[[{"header":{"parameterUnit":"m.s-1","parameterCategory":1,"la1":30.6,"la2":29.2853,"lo1":-89.7004,"lo2":-87.6739,"dy":0.0162,"dx":0.0183,"nx":112,"ny":82,"refTime":"2026-03-01T12:00:00:Z","depth":0,"parameterNumber":2,"parameterNumberName":"U-component_of_WINDS"},"data":[0.0,0.0,0.0,0.0,0.0,0.0,0.0,0.0,0.0,0.0,0.0,0.0,0.0,0.0,0.0,0.0,0.0,0.0,0.0,0.0,0.0,0.0,0.0,0.0,0.0,0.0,0.0,0.0,0.0,0.0,0.0,0.0,0.0,0.0,0.0,0.0,0.0,0.0,0.0,0.0,0.0,0.0,0.0,0.0,0.0,0.0,0.0,0.0,0.0,0.0,0.0,0.0,0.0,0.0,0.0,0.0,0.0,0.0,0.0,0.0,0.0,0.0,0.0,0.0,0.0,0.0,0.0,0.0,0.0,0.0,0.0,0.0,0.0,0.0,0.0,0.0,0.0,0.0,0.0,0.0,0.0,0.0,0.0,0.0,0.0,0.0,0.0,0.0,0.0,0.0,-1.9021,-2.02,-2.2558,-2.3836,-2.339,-2.3208,-2.2172,-1.9947,0.0,0.0,0.0,0.0,0.0,0.0,0.0,0.0,0.0,0.0,0.0,0.0,0.0,0.0,0.0,0.0,0.0,0.0,0.0,0.0,0.0,0.0,0.0,0.0,0.0,0.0,0.0,0.0,0.0,0.0,0.0,0.0,0.0,0.0,0.0,0.0,0.0,0.0,0.0,0.0,0.0,0.0,0.0,0.0,0.0,0.0,0.0,0.0,0.0,0.0,0.0,0.0,0.0,0.0,0.0,0.0,0.0,0.0,0.0,0.0,0.0,0.0,0.0,0.0,0.0,0.0,0.0,0.0,0.0,0.0,0.0,0.0,0.0,0.0,0.0,0.0,0.0,0.0,0.0,0.0,0.0,0.0,0.0,0.0,0.0,0.0,0.0,0.0,0.0,0.0,0.0,0.0,0.0,0.0,0.0,0.0,0.0,0.0,0.0,0.0,0.0,0.0,0.0,0.0,-1.9235,-2.1616,-2.2652,-2.3165,-2.3077,-2.2328,-2.1427,-2.0363,0.0,0.0,0.0,0.0,0.0,0.0,0.0,0.0,0.0,0.0,0.0,0.0,0.0,0.0,0.0,0.0,0.0,0.0,0.0,0.0,0.0,0.0,0.0,0.0,0.0,0.0,0.0,0.0,0.0,0.0,0.0,0.0,0.0,0.0,0.0,0.0,0.0,0.0,0.0,0.0,0.0,0.0,0.0,0.0,0.0,0.0,0.0,0.0,0.0,0.0,0.0,0.0,0.0,0.0,0.0,0.0,0.0,0.0,0.0,0.0,0.0,0.0,0.0,0.0,0.0,0.0,0.0,0.0,0.0,0.0,0.0,0.0,0.0,0.0,0.0,0.0,0.0,0.0,0.0,0.0,0.0,0.0,0.0,0.0,0.0,0.0,0.0,0.0,0.0,0.0,0.0,0.0,0.0,0.0,0.0,0.0,0.0,0.0,0.0,0.0,0.0,0.0,0.0,-1.8035,-1.9542,-2.184,-2.2644,-2.3001,-2.3001,-2.2331,-2.1485,-2.0455,-1.9269,0.0,0.0,0.0,0.0,0.0,0.0,0.0,0.0,0.0,0.0,0.0,0.0,0.0,0.0,0.0,0.0,0.0,0.0,0.0,0.0,0.0,0.0,0.0,0.0,0.0,0.0,0.0,0.0,0.0,0.0,0.0,0.0,0.0,0.0,0.0,0.0,0.0,0.0,0.0,0.0,0.0,0.0,0.0,0.0,0.0,0.0,0.0,0.0,0.0,0.0,0.0,0.0,0.0,0.0,0.0,0.0,0.0,0.0,0.0,0.0,0.0,0.0,0.0,0.0,0.0,0.0,0.0,0.0,0.0,0.0,0.0,0.0,0.0,0.0,0.0,0.0,0.0,0.0,0.0,0.0,0.0,0.0,0.0,0.0,0.0,0.0,0.0,0.0,0.0,0.0,0.0,0.0,0.0,0.0,0.0,0.0,0.0,0.0,0.0,0.0,0.0,0.0,-1.9084,-1.9892,-2.1752,-2.2413,-2.2703,-2.2703,-2.2056,-2.122,-2.0194,-1.8635,0.0,0.0,0.0,0.0,0.0,0.0,0.0,0.0,0.0,0.0,0.0,0.0,0.0,0.0,0.0,0.0,0.0,0.0,0.0,0.0,0.0,0.0,0.0,0.0,0.0,0.0,0.0,0.0,0.0,0.0,0.0,0.0,0.0,0.0,0.0,0.0,0.0,0.0,0.0,0.0,0.0,0.0,0.0,0.0,0.0,0.0,0.0,0.0,0.0,0.0,0.0,0.0,0.0,0.0,0.0,0.0,0.0,0.0,0.0,0.0,0.0,0.0,0.0,0.0,0.0,0.0,0.0,0.0,0.0,0.0,0.0,0.0,0.0,0.0,0.0,0.0,0.0,0.0,0.0,0.0,0.0,0.0,0.0,0.0,0.0,0.0,0.0,0.0,0.0,0.0,0.0,0.0,0.0,0.0,0.0,0.0,0.0,0.0,0.0,0.0,0.0,0.0,-1.9108,-2.0274,-2.1686,-2.1852,-2.1873,-2.1873,-2.0725,-1.9815,-1.9405,-1.7357,0.0,0.0,0.0,0.0,0.0,0.0,0.0,0.0,0.0,0.0,0.0,0.0,0.0,0.0,0.0,0.0,0.0,0.0,0.0,0.0,0.0,0.0,0.0,0.0,0.0,0.0,0.0,0.0,0.0,0.0,0.0,0.0,0.0,0.0,0.0,0.0,0.0,0.0,0.0,0.0,0.0,0.0,0.0,0.0,0.0,0.0,0.0,0.0,0.0,0.0,0.0,0.0,0.0,0.0,0.0,0.0,0.0,0.0,0.0,0.0,0.0,0.0,0.0,0.0,0.0,0.0,0.0,0.0,0.0,0.0,0.0,0.0,0.0,0.0,0.0,0.0,0.0,0.0,0.0,0.0,0.0,0.0,0.0,0.0,0.0,0.0,0.0,0.0,0.0,0.0,0.0,0.0,0.0,0.0,0.0,0.0,0.0,0.0,0.0,0.0,0.0,0.0,-1.8736,-2.001,0.0,-2.1797,-2.1797,-2.1797,-2.1073,-2.0107,-1.8929,0.0,0.0,0.0,0.0,0.0,0.0,0.0,0.0,0.0,0.0,0.0,0.0,0.0,0.0,0.0,0.0,0.0,0.0,0.0,0.0,0.0,0.0,0.0,0.0,0.0,0.0,0.0,0.0,0.0,0.0,0.0,0.0,0.0,0.0,0.0,0.0,0.0,0.0,0.0,0.0,0.0,0.0,0.0,0.0,0.0,0.0,0.0,0.0,0.0,0.0,0.0,0.0,0.0,0.0,0.0,0.0,0.0,0.0,0.0,0.0,0.0,0.0,0.0,0.0,0.0,0.0,0.0,0.0,0.0,0.0,0.0,0.0,0.0,0.0,0.0,0.0,0.0,0.0,0.0,0.0,0.0,0.0,0.0,0.0,0.0,0.0,0.0,0.0,0.0,0.0,0.0,0.0,0.0,0.0,0.0,0.0,0.0,0.0,0.0,0.0,0.0,0.0,-1.7502,-1.8775,-2.01,0.0,-2.1673,-2.159,-2.159,-2.0907,-1.9844,-1.8405,0.0,0.0,0.0,0.0,0.0,0.0,0.0,0.0,0.0,0.0,0.0,0.0,0.0,0.0,0.0,0.0,0.0,0.0,0.0,0.0,0.0,0.0,0.0,0.0,0.0,0.0,0.0,0.0,0.0,0.0,0.0,0.0,0.0,0.0,0.0,0.0,0.0,0.0,0.0,0.0,0.0,0.0,0.0,0.0,0.0,0.0,0.0,0.0,0.0,0.0,0.0,0.0,0.0,0.0,0.0,0.0,0.0,0.0,0.0,0.0,0.0,0.0,0.0,0.0,0.0,0.0,0.0,0.0,0.0,0.0,0.0,0.0,0.0,0.0,0.0,0.0,0.0,0.0,0.0,0.0,0.0,0.0,0.0,0.0,0.0,0.0,0.0,0.0,0.0,0.0,0.0,0.0,0.0,0.0,0.0,0.0,0.0,0.0,0.0,0.0,0.0,0.0,-1.7585,-1.9279,-2.0746,-2.1714,-2.1383,-2.1114,-2.1114,-1.9872,-1.8692,0.0,0.0,0.0,0.0,0.0,0.0,0.0,0.0,0.0,0.0,0.0,0.0,0.0,0.0,0.0,0.0,0.0,0.0,0.0,0.0,0.0,0.0,0.0,0.0,0.0,0.0,0.0,0.0,0.0,0.0,0.0,0.0,0.0,0.0,0.0,0.0,0.0,0.0,0.0,0.0,0.0,0.0,0.0,0.0,0.0,0.0,0.0,0.0,0.0,0.0,0.0,0.0,0.0,0.0,0.0,0.0,0.0,0.0,0.0,0.0,0.0,0.0,0.0,0.0,0.0,0.0,0.0,0.0,0.0,0.0,0.0,0.0,0.0,0.0,0.0,0.0,0.0,0.0,0.0,0.0,0.0,0.0,0.0,0.0,0.0,0.0,0.0,0.0,0.0,0.0,0.0,0.0,0.0,0.0,0.0,0.0,0.0,0.0,0.0,0.0,0.0,0.0,0.0,-1.7544,-1.9279,-2.0746,-2.1714,-2.1383,-2.1114,-2.1114,-2.0162,-1.8899,-1.7316,0.0,0.0,0.0,0.0,0.0,0.0,0.0,0.0,0.0,0.0,0.0,0.0,0.0,0.0,0.0,0.0,0.0,0.0,0.0,0.0,0.0,0.0,0.0,0.0,0.0,0.0,0.0,0.0,0.0,0.0,0.0,0.0,0.0,0.0,0.0,0.0,0.0,0.0,0.0,0.0,0.0,0.0,0.0,0.0,0.0,0.0,0.0,0.0,0.0,0.0,0.0,0.0,0.0,0.0,0.0,0.0,0.0,0.0,0.0,0.0,0.0,0.0,0.0,0.0,0.0,0.0,0.0,0.0,0.0,0.0,0.0,0.0,0.0,0.0,0.0,0.0,0.0,0.0,0.0,0.0,0.0,0.0,0.0,0.0,0.0,0.0,0.0,0.0,0.0,0.0,0.0,0.0,0.0,0.0,0.0,0.0,0.0,0.0,0.0,0.0,0.0,0.0,-1.7544,-1.9279,-2.0746,-2.1714,-2.1217,-2.0808,-2.0808,-2.0017,-1.8745,-1.6891,0.0,0.0,0.0,0.0,0.0,0.0,0.0,0.0,0.0,0.0,0.0,0.0,0.0,0.0,0.0,0.0,0.0,0.0,0.0,0.0,0.0,0.0,0.0,0.0,0.0,0.0,0.0,0.0,0.0,0.0,0.0,0.0,0.0,0.0,0.0,0.0,0.0,0.0,0.0,0.0,0.0,0.0,0.0,0.0,0.0,0.0,0.0,0.0,0.0,0.0,0.0,0.0,0.0,0.0,0.0,0.0,0.0,0.0,0.0,0.0,0.0,0.0,0.0,0.0,0.0,0.0,0.0,0.0,0.0,0.0,0.0,0.0,0.0,0.0,0.0,0.0,0.0,0.0,0.0,0.0,0.0,0.0,0.0,0.0,0.0,0.0,0.0,0.0,0.0,0.0,0.0,0.0,0.0,0.0,0.0,0.0,0.0,0.0,0.0,0.0,0.0,0.0,-1.7626,-1.93,-2.0746,-2.1714,-2.0969,-2.0395,-2.0395,-1.9603,-1.8351,-1.6589,0.0,0.0,0.0,0.0,0.0,0.0,0.0,0.0,0.0,0.0,0.0,0.0,0.0,0.0,0.0,0.0,0.0,0.0,0.0,0.0,0.0,0.0,0.0,0.0,0.0,0.0,0.0,0.0,0.0,0.0,0.0,0.0,0.0,0.0,0.0,0.0,0.0,0.0,0.0,0.0,0.0,0.0,0.0,0.0,0.0,0.0,0.0,0.0,0.0,0.0,0.0,0.0,0.0,0.0,0.0,0.0,0.0,0.0,0.0,0.0,-1.775,0.0,0.0,0.0,0.0,0.0,0.0,0.0,0.0,0.0,0.0,0.0,0.0,0.0,0.0,0.0,0.0,0.0,0.0,0.0,0.0,0.0,0.0,0.0,0.0,0.0,0.0,0.0,0.0,0.0,0.0,0.0,0.0,0.0,0.0,0.0,0.0,0.0,0.0,0.0,0.0,0.0,-1.803,-1.952,-2.0746,-2.1714,-2.0969,-2.0395,-2.0395,-1.9603,-1.8444,-1.6965,-1.6229,0.0,0.0,0.0,0.0,0.0,0.0,0.0,0.0,0.0,0.0,0.0,0.0,0.0,0.0,0.0,0.0,0.0,0.0,0.0,0.0,0.0,0.0,0.0,0.0,0.0,0.0,0.0,0.0,0.0,0.0,0.0,0.0,0.0,0.0,0.0,0.0,0.0,0.0,0.0,0.0,0.0,0.0,0.0,0.0,0.0,0.0,0.0,0.0,0.0,0.0,0.0,0.0,0.0,0.0,0.0,0.0,0.0,0.0,0.0,0.0,-1.9031,0.0,0.0,0.0,0.0,0.0,0.0,0.0,0.0,0.0,0.0,0.0,0.0,0.0,0.0,0.0,0.0,0.0,0.0,0.0,0.0,0.0,0.0,0.0,0.0,0.0,0.0,0.0,0.0,0.0,0.0,0.0,0.0,0.0,0.0,0.0,0.0,0.0,0.0,0.0,0.0,-1.8227,-1.9768,-2.1031,-2.1735,-2.0969,-2.0395,-2.0395,-1.9603,-1.8485,-1.711,-1.6572,0.0,0.0,0.0,0.0,0.0,0.0,0.0,0.0,0.0,0.0,0.0,0.0,0.0,0.0,0.0,0.0,0.0,0.0,0.0,0.0,0.0,0.0,0.0,0.0,0.0,0.0,0.0,0.0,0.0,0.0,0.0,0.0,0.0,0.0,0.0,0.0,0.0,0.0,0.0,0.0,0.0,0.0,0.0,0.0,0.0,0.0,0.0,0.0,0.0,0.0,0.0,0.0,0.0,-2.1432,-2.1865,-2.1907,-2.267,-2.3267,-2.3577,-2.2051,-2.149,-2.1507,-2.057,0.0,0.0,0.0,0.0,0.0,0.0,0.0,0.0,0.0,0.0,0.0,0.0,0.0,0.0,0.0,0.0,0.0,0.0,0.0,0.0,0.0,0.0,0.0,0.0,-1.8857,-1.8402,-1.6755,0.0,0.0,0.0,0.0,0.0,0.0,0.0,0.0,0.0,0.0,0.0,-1.8453,-1.9947,-2.1106,-2.168,-2.0978,-2.0442,-2.0395,-1.9665,-1.8651,-1.7316,-1.7172,-1.6407,0.0,0.0,0.0,0.0,0.0,0.0,0.0,0.0,0.0,0.0,0.0,0.0,0.0,0.0,0.0,0.0,0.0,0.0,0.0,0.0,0.0,0.0,0.0,0.0,0.0,0.0,0.0,0.0,0.0,0.0,0.0,0.0,-1.7998,-1.8995,0.0,0.0,0.0,0.0,0.0,0.0,0.0,0.0,0.0,0.0,0.0,0.0,0.0,-2.0179,-2.0742,-2.1949,-2.2816,-2.3279,-2.4405,-2.4921,-2.4921,-2.5043,-2.5259,-2.5544,-2.5485,0.0,-2.3412,-2.2087,0.0,0.0,0.0,0.0,0.0,0.0,0.0,0.0,0.0,0.0,0.0,0.0,0.0,0.0,0.0,0.0,0.0,0.0,0.0,0.0,0.0,0.0,-2.0644,-2.0323,-2.0243,-2.0062,0.0,-1.7492,-1.5976,-1.6175,-1.5303,0.0,0.0,0.0,0.0,0.0,0.0,0.0,-1.9076,-1.9753,-2.0447,-2.141,-2.1043,-2.0647,-2.0416,-1.9955,-1.9285,-1.8257,-1.7812,-1.7316,-1.6676,-1.5484,0.0,0.0,0.0,0.0,0.0,0.0,0.0,0.0,0.0,0.0,0.0,0.0,0.0,0.0,0.0,0.0,0.0,0.0,0.0,0.0,0.0,0.0,0.0,0.0,0.0,0.0,0.0,0.0,0.0,-1.7817,-1.8596,-1.8786,-1.8866,-1.8402,0.0,0.0,0.0,0.0,0.0,0.0,0.0,0.0,0.0,-2.0397,-2.1585,-2.2574,-2.3313,-2.4199,-2.4842,-2.5283,-2.602,-2.637,-2.6438,-2.6681,-2.6851,-2.6947,-2.7053,-2.6709,-2.5956,-2.4092,-2.2651,-2.1548,0.0,0.0,0.0,0.0,-2.0078,-2.0118,-2.1558,-2.1741,-2.1314,-2.1008,0.0,0.0,0.0,0.0,0.0,0.0,0.0,-1.9167,0.0,0.0,-2.1194,-2.1253,-2.1273,-2.1214,-2.1016,-1.9673,-1.8245,0.0,-1.6886,-1.6158,-1.4801,0.0,0.0,0.0,0.0,-1.7971,-1.95,-2.0236,-2.082,-2.128,-2.0916,-2.0572,-2.048,-1.9864,-1.9172,-1.8487,-1.8039,-1.7592,-1.7144,-1.6311,-1.5632,0.0,0.0,0.0,0.0,0.0,0.0,0.0,0.0,0.0,0.0,0.0,0.0,0.0,0.0,0.0,0.0,0.0,0.0,0.0,0.0,0.0,0.0,0.0,0.0,0.0,0.0,0.0,0.0,-1.8469,-1.9268,-1.9183,-1.9692,-1.9411,0.0,0.0,0.0,0.0,0.0,0.0,-1.9785,-2.1068,-2.203,-2.2509,-2.3751,-2.4706,-2.5438,-2.5877,-2.6255,-2.6574,-2.7012,-2.7152,-2.7172,-2.7563,-2.7753,-2.7824,-2.7703,-2.7753,-2.7643,-2.563,-2.4104,-2.296,-2.1966,-2.1242,-2.0887,-2.1549,-2.1789,-2.199,-2.3456,-2.3677,-2.3235,-2.2793,-2.187,-2.0669,-1.9138,0.0,0.0,0.0,0.0,-2.0112,-2.0879,-2.1311,-2.16,-2.1973,-2.2051,-2.2051,-2.2051,-2.1445,-2.0448,0.0,-1.8424,-1.7685,-1.578,0.0,0.0,0.0,0.0,-1.8774,-1.9773,-2.0472,-2.0931,-2.1108,-2.0789,-2.0587,-2.0504,-1.9901,-1.9279,-1.8717,-1.8395,-1.8014,-1.7552,-1.711,-1.6668,-1.6226,0.0,0.0,0.0,0.0,0.0,0.0,0.0,0.0,0.0,0.0,0.0,0.0,0.0,0.0,0.0,0.0,0.0,0.0,0.0,0.0,0.0,0.0,0.0,0.0,0.0,0.0,0.0,0.0,0.0,-2.1233,-2.1015,0.0,0.0,0.0,0.0,-1.9063,-2.0609,-2.159,-2.1689,-2.2934,-2.3927,-2.4538,-2.5496,-2.6093,-2.6339,-2.675,-2.6934,-2.6953,-2.7258,-2.7359,-2.741,-2.743,-2.7551,-2.7774,-2.7551,-2.7551,-2.7703,-2.6315,-2.5691,-2.549,-2.4139,-2.3617,-2.3596,-2.3637,-2.3657,-2.3737,-2.4195,-2.4075,-2.3898,-2.4681,-2.3647,-2.2006,-2.1471,-2.0604,0.0,0.0,-2.0919,-2.125,-2.1699,-2.2129,-2.2461,-2.248,-2.248,-2.248,-2.248,-2.2129,-2.1584,0.0,-1.9434,-1.8472,-1.8079,0.0,-1.7717,-1.8261,-1.8287,-1.8686,-2.0007,-2.0035,-2.0231,-2.0857,-2.0896,-2.0775,-2.0544,-2.0464,-2.0062,-1.9198,-1.9173,-1.8917,-1.8476,-1.8034,-1.7624,-1.715,-1.6246,0.0,0.0,0.0,0.0,0.0,0.0,0.0,0.0,0.0,0.0,0.0,0.0,0.0,0.0,0.0,0.0,0.0,0.0,0.0,0.0,0.0,0.0,0.0,0.0,0.0,0.0,0.0,0.0,-2.2262,-2.2733,0.0,-2.1445,-2.1689,-2.193,-2.1888,-2.2958,-2.3707,-2.3895,-2.4901,-2.5563,-2.5761,-2.6349,-2.6859,-2.7207,-2.7363,-2.7578,-2.7832,-2.7937,-2.799,-2.799,-2.799,-2.8042,-2.8094,-2.8042,-2.8042,-2.8035,-2.7357,-2.6804,-2.6355,-2.5597,-2.5179,-2.4992,-2.4992,-2.5216,-2.5492,-2.565,-2.5413,-2.496,-2.4427,-2.3772,-2.3158,-2.2683,-2.2268,-2.209,-2.2605,-2.2797,-2.2969,-2.3398,-2.3633,-2.373,-2.373,-2.3535,-2.334,-2.334,-2.2773,-2.2187,-2.1875,-2.0762,-1.9686,-1.9017,-1.8782,-1.8679,-1.8577,-1.8994,-1.9585,-2.0369,-2.037,-2.0429,-2.0683,-2.0683,-2.0663,-2.0582,-2.0267,-1.9853,-1.9318,-1.8986,-1.8749,-1.8557,-1.8178,-1.7882,-1.7724,-1.6876,-1.5546,0.0,0.0,0.0,0.0,0.0,0.0,0.0,0.0,0.0,0.0,0.0,0.0,0.0,0.0,0.0,0.0,0.0,0.0,0.0,0.0,0.0,0.0,0.0,0.0,0.0,-2.112,-2.2284,-2.2778,-2.3608,-2.378,-2.2848,-2.3361,-2.383,-2.3949,-2.4913,-2.5495,-2.5556,-2.6211,-2.668,-2.6816,-2.709,-2.7441,-2.7924,-2.7871,-2.8027,-2.8301,-2.8301,-2.8301,-2.8301,-2.8301,-2.8301,-2.8301,-2.8301,-2.8301,-2.8262,-2.7988,-2.7695,-2.7258,-2.6616,-2.63,-2.6122,-2.6122,-2.6348,-2.6602,-2.6602,-2.6406,-2.5996,-2.5,-2.457,-2.4375,-2.3926,-2.3647,-2.3588,-2.3926,-2.4004,-2.4062,-2.4336,-2.4414,-2.4414,-2.4414,-2.4199,-2.4004,-2.4004,-2.3437,-2.2949,-2.2949,-2.1894,-2.0879,-2.0273,-2.0156,-2.0059,-1.9766,-2.0215,-2.0625,-2.0762,-2.0781,-2.0742,-2.0625,-2.0605,-2.0605,-2.0605,-2.0293,-1.9961,-1.9531,-1.9102,-1.8754,-1.8617,-1.8188,-1.8008,-1.8008,-1.7012,-1.5829,-1.4523,0.0,0.0,0.0,0.0,0.0,0.0,0.0,0.0,0.0,0.0,0.0,0.0,0.0,0.0,0.0,0.0,0.0,0.0,0.0,0.0,0.0,0.0,0.0,-2.0781,-2.2004,-2.2859,-2.288,-2.3651,-2.4004,-2.3545,-2.4533,-2.5184,-2.5184,-2.6309,-2.6855,-2.6445,-2.6836,-2.7246,-2.7728,-2.7748,-2.7891,-2.8301,-2.832,-2.834,-2.834,-2.834,-2.834,-2.834,-2.832,-2.832,-2.832,-2.8301,-2.8301,-2.8301,-2.8301,-2.8301,-2.8203,-2.7383,-2.7051,-2.7051,-2.7051,-2.7051,-2.7051,-2.7031,-2.7031,-2.6973,-2.6543,-2.6113,-2.5654,-2.5254,-2.4824,-2.4492,-2.4473,-2.4473,-2.4473,-2.4453,-2.4453,-2.4453,-2.4453,-2.4453,-2.4434,-2.4434,-2.4102,-2.3809,-2.3809,-2.2793,-2.1934,-2.1914,-2.1894,-2.1894,-2.1894,-2.1894,0.0,-2.1268,-2.121,-2.1094,-2.0703,-2.0625,-2.0625,-2.0625,-2.0605,-2.0371,-1.9922,-1.9512,-1.9102,-1.8617,-1.8188,-1.8008,-1.8008,-1.677,-1.5879,-1.5449,0.0,0.0,0.0,0.0,0.0,0.0,0.0,0.0,0.0,0.0,0.0,0.0,0.0,0.0,0.0,0.0,0.0,0.0,0.0,0.0,0.0,-2.2064,-2.2526,-2.2289,-2.3125,-2.4115,-2.5111,-2.5662,-2.6014,-2.6016,-2.6269,-2.6484,-2.6484,-2.7109,-2.7441,-2.7376,-2.7715,-2.7988,-2.8125,-2.8418,-2.8633,-2.875,-2.9062,-2.9219,-2.9219,-2.9219,-2.9219,-2.9219,-2.8887,-2.875,-2.873,-2.8418,-2.8301,-2.8301,-2.8301,-2.8301,-2.8262,-2.8027,-2.7949,-2.7949,-2.7949,-2.7949,-2.7891,-2.7598,-2.748,-2.7422,-2.6992,-2.6758,-2.6641,-2.6523,-2.6387,-2.623,-2.5937,-2.584,-2.5781,-2.5401,-2.5323,-2.5323,-2.5323,-2.5117,-2.4883,-2.4883,-2.4551,-2.4238,-2.4238,-2.3711,-2.3066,-2.2441,-2.209,-2.1894,-2.1894,-2.1894,0.0,-2.1719,-2.1699,-2.166,-2.1543,-2.125,-2.1055,-2.1055,-2.0762,-2.0292,-1.9512,-1.9355,-1.9102,-1.8617,-1.8188,-1.8008,-1.8008,-1.7051,-1.6453,0.0,0.0,0.0,0.0,0.0,0.0,0.0,0.0,0.0,0.0,0.0,0.0,0.0,0.0,0.0,0.0,0.0,0.0,0.0,0.0,0.0,0.0,-2.3754,-2.4242,-2.4843,-2.4917,-2.5297,-2.6229,-2.6616,-2.687,-2.6992,-2.7187,-2.7285,-2.7285,-2.7676,-2.793,-2.793,-2.832,-2.8555,-2.8555,-2.8965,-2.9199,-2.9199,-2.9453,-2.9626,-2.9626,-2.9626,-2.9626,-2.9551,-2.9121,-2.8926,-2.8906,-2.8476,-2.8301,-2.8301,-2.8301,-2.8301,0.0,0.0,0.0,0.0,0.0,-2.8301,-2.8262,-2.8008,-2.793,-2.7891,-2.7637,-2.7422,-2.7285,-2.7285,-2.7168,-2.6973,-2.6719,-2.6641,-2.6602,-2.6348,-2.6133,-2.6016,-2.6016,-2.5664,-2.5352,-2.5352,-2.5,-2.4687,-2.4687,-2.4355,0.0,-2.3398,-2.2812,-2.2402,-2.2402,-2.2402,-2.2344,-2.2168,-2.2148,-2.209,-2.1894,-2.166,-2.1385,-2.121,-2.0996,0.0,0.0,0.0,-1.9004,-1.8364,-1.811,0.0,0.0,0.0,0.0,0.0,0.0,0.0,0.0,-1.6281,-1.6124,0.0,0.0,0.0,0.0,0.0,0.0,0.0,0.0,0.0,0.0,0.0,0.0,0.0,0.0,0.0,0.0,-2.4974,-2.5662,-2.7861,-2.7064,-2.6418,-2.6784,-2.6957,-2.7109,-2.7148,-2.75,-2.7787,-2.7787,-2.8086,-2.832,-2.8359,-2.8711,0.0,0.0,0.0,-2.9704,-2.9704,-2.9744,-2.9783,-2.9783,-2.9783,-2.9783,-2.9707,-2.9258,-2.9043,-2.8965,-2.8555,-2.834,-2.8301,-2.8301,-2.8301,-2.8301,-2.8301,-2.8301,-2.8301,-2.8301,-2.8301,-2.8301,-2.8301,0.0,0.0,-2.8301,-2.8047,-2.7787,-2.7787,-2.7461,-2.7148,-2.7109,-2.709,-2.707,-2.7031,-2.6699,-2.6406,-2.6445,-2.6094,-2.5693,-2.5752,-2.5469,-2.5184,-2.5184,-2.4785,-2.4492,-2.4492,-2.3789,-2.3159,-2.3159,-2.312,-2.2964,-2.2637,-2.2578,-2.2441,-2.207,0.0,0.0,-2.1366,-2.1288,-2.1094,-2.0644,-1.9766,-1.8945,-1.8184,-1.8164,-1.8286,-1.8676,-1.8715,-1.8929,-1.9355,-1.9414,-1.9453,-1.9453,-1.7474,-1.7109,0.0,0.0,0.0,0.0,0.0,0.0,0.0,0.0,0.0,0.0,0.0,0.0,0.0,0.0,0.0,-2.7931,-2.7678,-2.7814,-2.9423,-2.8371,-2.7427,-2.7506,-2.7532,-2.7676,-2.8008,-2.8125,-2.8164,-2.8164,-2.8242,-2.8437,-2.8789,-2.8867,-2.9082,-2.9434,-2.9863,-3.0078,-3.0078,-3.0449,-3.0644,-3.0644,0.0,0.0,-3.0625,-3.0156,-2.9766,-2.9414,-2.8984,-2.8613,-2.8301,-2.8301,-2.8301,-2.8301,-2.8301,-2.8301,-2.8301,-2.8301,-2.8301,-2.8301,-2.8301,-2.8301,-2.8301,-2.8301,-2.8242,-2.8164,-2.8164,-2.8105,0.0,-2.7637,-2.7539,-2.7461,-2.7109,-2.6699,-2.6465,-2.6816,-2.6309,-2.5791,-2.6191,-2.5918,-2.5557,-2.5557,-2.5254,-2.4941,-2.4941,-2.4238,-2.3672,-2.3672,-2.3315,-2.3062,-2.2984,-2.2984,-2.2945,-2.2867,-2.2598,-2.2363,-2.2266,-2.1953,-2.1426,-2.0664,-1.9766,-1.9219,-1.9043,-1.9043,-1.9082,-1.916,-1.9492,-1.9707,-1.9785,-2.0137,-2.0508,-2.0781,-1.9687,-1.9297,0.0,0.0,0.0,0.0,0.0,0.0,0.0,0.0,0.0,0.0,0.0,-2.4524,-2.5105,0.0,-2.8371,-2.9242,-2.9076,-2.9074,-2.9711,-2.8909,-2.8147,-2.8041,-2.7988,-2.8066,-2.8262,-2.8301,-2.8379,-2.8594,-2.8613,-2.8789,-2.9219,-2.9453,-2.9668,-2.9883,-3.0312,-3.0547,-3.0547,-3.0781,-3.0898,-3.0898,-3.0898,-3.0898,-3.0879,-3.041,-2.9961,-2.9551,-2.9101,-2.8672,-2.8301,-2.8301,-2.8301,-2.8301,-2.8301,-2.8301,-2.8301,-2.8301,-2.8301,-2.8301,-2.8301,-2.8301,-2.8301,-2.8301,-2.8301,-2.8301,-2.8301,-2.8301,-2.8242,-2.8047,-2.7988,-2.793,-2.7715,-2.7187,-2.6758,-2.6973,-2.6523,-2.6055,-2.6055,-2.6055,-2.5996,-2.5732,-2.5566,-2.541,-2.541,-2.4863,-2.4355,-2.4141,-2.3926,-2.3666,-2.3496,-2.3457,-2.3379,-2.312,-2.2906,-2.2734,-2.2539,-2.2129,-2.1602,-2.0937,-2.0508,-2.0156,-1.9979,-1.9959,-2.0039,-2.0254,-2.0469,-2.0684,-2.0898,-2.1113,-2.1348,-2.1562,-2.1328,-2.1094,0.0,0.0,0.0,0.0,0.0,0.0,0.0,-2.2326,-2.2895,-2.4414,-2.5711,-2.6895,-2.7932,-2.9181,-3.0182,-3.0623,-3.0354,-3.0132,-3.0053,-2.9204,-2.8514,-2.8354,-2.8301,-2.8301,-2.8301,-2.8301,-2.8476,-2.8887,-2.8926,-2.9141,-2.9668,-3.0019,-3.0234,-3.0332,-3.0703,-3.0898,-3.0898,-3.0898,-3.0898,-3.0898,-3.0898,-3.084,-3.0742,-3.0371,-2.9961,-2.9551,-2.9101,-2.8672,-2.8301,-2.8301,-2.8301,-2.8301,-2.8301,-2.8301,-2.8301,-2.8301,-2.8301,-2.8301,-2.8301,-2.8301,-2.8301,-2.8301,-2.8301,-2.8301,-2.8301,-2.8301,-2.8301,-2.8301,-2.8301,-2.8301,-2.8301,-2.7715,-2.7168,-2.7246,-2.6816,-2.6309,-2.6035,-2.6191,-2.6289,-2.5937,-2.5859,-2.5859,-2.5859,-2.5488,-2.5059,-2.4609,-2.4473,-2.4297,-2.3965,-2.3906,-2.3769,-2.3374,-2.3276,-2.3062,-2.2676,-2.2246,-2.1855,-2.1463,-2.1366,-2.1191,-2.0879,-2.086,-2.0996,-2.1307,-2.1405,-2.166,-2.2012,-2.2168,-2.2246,-2.2266,-2.2695,-2.2617,-2.3477,-2.2272,-2.187,-2.2719,-2.2543,-2.31,0.0,-2.66,-2.6193,-2.7188,-2.8793,-3.0019,-3.0007,-3.147,-3.2996,-3.3966,-3.2581,-3.1456,-3.1923,-2.9891,-2.8354,-2.8301,-2.8301,-2.8301,-2.8301,-2.8301,-2.8476,-2.8887,-2.8926,-2.9277,-3.0078,-3.0176,-3.0391,-3.0801,-3.0859,-3.0898,-3.0898,-3.0898,-3.0898,-3.0898,-3.0898,-3.0684,-3.0273,-3.0215,-2.9961,-2.9551,-2.9101,-2.8672,-2.8301,-2.8301,-2.8301,-2.8301,-2.8301,-2.8301,-2.8301,-2.8301,-2.8301,-2.8301,-2.8301,-2.8301,-2.8301,-2.8301,-2.8301,-2.8301,-2.8301,-2.8301,-2.8301,-2.8301,-2.8301,-2.8301,-2.8301,-2.7949,-2.7695,-2.8066,-2.7246,-2.6484,-2.6797,-2.6621,-2.6367,-2.6328,-2.6309,-2.6309,-2.6309,-2.5957,-2.5508,-2.5059,-2.4668,-2.4394,-2.4355,-2.4355,-2.4336,-2.4277,-2.3945,-2.3535,-2.3062,-2.2633,-2.2422,-2.2383,-2.2012,-2.1797,-2.1738,-2.1738,-2.1758,-2.1816,-2.2187,-2.2383,-2.2441,-2.3203,-2.3574,-2.3594,-2.4004,-2.3769,-2.5963,-2.4983,-2.4538,-2.4958,-2.5385,-2.6113,-2.7745,-2.8247,-2.87,-2.9688,-3.1057,-3.2131,-3.2357,-3.3551,-3.4334,-3.3853,-3.3311,-3.2727,-3.1977,-3.0949,-2.9881,-2.8958,-2.9108,-2.9006,-2.8335,-2.8516,-2.8828,-2.9258,-2.9531,-2.9941,-3.0566,-3.0605,-3.0684,-3.0879,-3.0898,-3.0898,-3.0898,-3.0898,-3.0898,-3.0898,-3.0898,-3.0644,-3.0195,-3.0195,-2.9824,-2.916,-2.875,-2.8457,-2.832,-2.8555,-2.8516,-2.832,-2.8555,-2.8516,-2.8301,-2.8301,-2.8301,-2.8301,-2.8301,-2.8301,-2.8301,-2.8301,-2.8301,-2.8301,-2.8301,-2.8301,-2.8301,-2.8301,-2.8301,-2.8301,-2.8301,-2.7988,-2.7767,-2.7891,-2.7519,-2.7051,-2.6719,-2.6699,-2.6602,-2.6113,-2.6211,-2.6387,-2.6387,-2.623,-2.6055,-2.5859,-2.5469,-2.5098,-2.4824,-2.4805,-2.4707,-2.4453,-2.4258,-2.4082,-2.3861,-2.373,-2.3613,-2.3613,-2.3457,-2.3359,-2.3359,-2.3359,-2.3359,-2.3359,-2.3535,-2.3613,-2.3613,-2.3984,-2.416,-2.416,-2.4336,-2.4375,-2.7067,-2.6776,-2.6801,-2.7102,-2.7971,-2.8825,-2.8976,-2.9754,-3.0683,-3.1461,-3.239,-3.3244,-3.3796,-3.4675,-3.4938,-3.3958,-3.3932,-3.3697,-3.2527,-3.186,-3.1106,-2.9952,-2.9641,-2.9238,-2.8615,-2.8657,-2.8926,-2.9355,-2.9785,-3.0215,-3.0684,-3.082,-3.0898,-3.0898,-3.0898,-3.0898,-3.0898,-3.0898,-3.0898,-3.0898,-3.0898,-3.0586,-3.0019,-2.9902,-2.9453,-2.873,-2.8555,-2.8398,-2.832,-2.8613,-2.8574,-2.832,-2.8633,-2.8555,-2.8301,-2.8301,-2.8301,-2.8301,-2.8301,-2.8301,-2.8301,-2.8301,-2.8301,-2.8301,-2.8301,-2.8301,-2.8301,-2.8301,-2.8301,-2.8301,-2.8301,-2.8066,-2.7885,-2.7885,-2.7806,-2.7552,-2.6875,-2.6973,-2.6973,-2.623,-2.6348,-2.6523,-2.6406,-2.6387,-2.6387,-2.6387,-2.6113,-2.5762,-2.5312,-2.5254,-2.5078,-2.4648,-2.459,-2.4551,-2.4434,-2.4414,-2.4414,-2.4414,-2.4414,-2.4414,-2.4414,-2.4414,-2.4414,-2.4414,-2.4414,-2.4414,-2.4414,-2.4531,-2.459,-2.4609,-2.4727,-2.4941,-2.5812,-2.644,-2.7519,-2.8574,-2.9665,-3.0658,-3.1185,-3.1738,-3.2139,-3.219,-3.2667,-3.3244,-3.3796,-3.4349,-3.4881,-3.5361,-3.4822,-3.4385,-3.4337,-3.2518,-3.1213,-3.1142,-2.9629,-2.8693,-2.9024,-2.8608,-2.8496,-2.8906,-2.9336,-2.9766,-3.0195,-3.0644,-3.0898,-3.0898,-3.0898,-3.0898,-3.0898,-3.0898,-3.0898,-3.0898,-3.0898,-3.043,-2.957,-2.9141,-2.8711,-2.834,-2.873,-2.8672,-2.8301,-2.8301,-2.8301,-2.8301,-2.8301,-2.8301,-2.8301,-2.8301,-2.8301,-2.8301,-2.8301,-2.8301,-2.8301,-2.8301,-2.8301,-2.8301,-2.8301,-2.8301,-2.8301,-2.8301,-2.8301,-2.8301,-2.8301,-2.8281,-2.8281,-2.8281,-2.7969,-2.7708,-2.7689,-2.7689,-2.7571,-2.707,-2.6992,-2.6875,-2.6465,-2.6387,-2.6387,-2.6387,-2.6387,-2.6211,-2.5732,-2.5674,-2.5547,-2.5145,-2.5106,-2.4883,-2.4453,-2.4414,-2.4414,-2.4414,-2.4414,-2.4414,-2.4414,-2.4414,-2.4414,-2.4414,-2.4414,-2.4414,-2.4414,-2.4844,-2.5106,-2.5106,-2.5488,-2.5654,-2.7118,-2.8097,-2.9126,-2.9854,-3.0859,-3.1712,-3.1888,-3.2365,-3.2792,-3.2792,-3.2943,-3.3187,-3.3319,-3.3796,-3.4304,-3.4674,-3.4851,-3.4988,-3.5162,-3.4412,-3.3087,-3.1087,-3.1007,-3.051,-2.8915,-2.8481,-2.8476,-2.8887,-2.9316,-2.9629,-2.9766,-2.9922,-3.0137,-3.043,-3.043,-3.0586,-3.0879,-3.0586,-3.043,-3.043,-2.9863,-2.9434,-2.9121,-2.8691,-2.8418,-2.8301,-2.8437,-2.8418,-2.832,-2.8594,-2.8535,-2.832,-2.8594,-2.8535,-2.8301,-2.8301,-2.8301,-2.8301,-2.8301,-2.8301,-2.8301,-2.8301,-2.8301,-2.8301,-2.8301,-2.8301,-2.8301,-2.8301,-2.8301,-2.8301,-2.8301,-2.8301,-2.8301,-2.8301,-2.8184,-2.8008,-2.7787,-2.7728,-2.7539,-2.709,-2.7012,-2.6973,-2.6836,-2.6562,-2.6387,-2.6387,-2.6387,-2.623,-2.5752,-2.5693,-2.5635,-2.5527,-2.5508,-2.5449,-2.5265,-2.5245,-2.5245,-2.5245,-2.5245,-2.5245,-2.5245,-2.5245,-2.5245,-2.5245,-2.5245,-2.5245,-2.5245,-2.5449,-2.5508,-2.5508,-2.5615,-2.5898,-2.8649,-2.9804,-3.0834,-3.1612,-3.2466,-3.3068,-3.2867,-3.3093,-3.3319,-3.3162,-3.281,-3.2466,-3.2466,-3.2616,-3.3,-3.3751,-3.4375,-3.4981,-3.5759,-3.5324,-3.422,-3.239,-3.2081,-3.1482,-3.0089,-2.9506,-2.9262,-2.9279,-2.9684,-2.9778,-2.9391,-2.9492,-2.9687,-2.9961,-2.998,-3.0117,-3.041,-3.0117,-2.998,-2.9961,-2.9258,-2.8926,-2.8906,-2.8476,-2.8301,-2.8301,-2.8301,-2.8301,-2.832,-2.8574,-2.8535,-2.832,-2.8594,-2.8535,-2.832,-2.8457,-2.8516,-2.8496,-2.834,-2.8301,-2.8301,-2.8301,-2.8301,-2.8301,-2.8301,-2.8301,-2.8301,-2.8301,-2.8301,-2.8301,-2.8301,-2.8301,-2.8301,-2.8301,-2.8301,-2.8223,-2.7949,-2.7891,-2.7754,-2.7324,-2.7246,-2.7207,-2.7051,-2.6797,-2.6562,-2.6406,-2.6387,-2.6348,-2.6161,-2.6142,-2.6142,-2.6142,-2.6055,-2.5977,-2.5977,-2.5771,-2.5693,-2.5693,-2.5693,-2.5693,-2.5693,-2.5693,-2.5693,-2.5693,-2.5693,-2.5693,-2.5693,-2.5693,-2.5693,-2.5693,-2.5849,-2.6113,-3.0256,-3.1512,-3.2591,-3.3671,-3.4299,-3.455,-3.4022,-3.3872,-3.3696,-3.3119,-3.2114,-3.1311,-3.1235,-3.0884,-3.1135,-3.2742,-3.352,-3.45,-3.6179,-3.5294,-3.4545,-3.4713,-3.2791,-3.1669,-3.2351,-3.1609,-3.0788,-3.0099,0.0,-3.0092,-2.8996,-2.9333,-2.9567,-2.9643,-2.9587,-2.9607,-2.9626,-2.9607,-2.9531,-2.9548,-2.9082,-2.8887,-2.8867,-2.8476,-2.8301,-2.8301,-2.8301,-2.8301,-2.8301,-2.8301,-2.8301,-2.8301,-2.832,-2.832,-2.8379,-2.8789,-2.8945,-2.8906,-2.8496,-2.8359,-2.8359,-2.834,-2.832,-2.832,-2.8301,-2.8301,-2.8301,-2.8301,-2.8301,-2.8301,-2.8301,-2.8301,-2.8301,-2.8301,-2.8301,-2.8301,-2.8301,-2.8301,-2.8184,-2.7826,-2.7728,-2.7519,-2.709,-2.6992,-2.6855,-2.6484,-2.6406,-2.6523,-2.6894,-2.6973,-2.6973,-2.6953,-2.6621,-2.6387,-2.6367,-2.5977,-2.5693,-2.5693,-2.5693,-2.5693,-2.5693,-2.5693,-2.5693,-2.5732,-2.5693,-2.5693,-2.5732,-2.5693,-2.5693,-2.5732,-2.6191,-2.6406,-3.1461,-3.2918,-3.4104,-3.4449,-3.4299,-3.4073,-3.3922,-3.3571,-3.2993,-3.2014,-3.1286,-3.0432,-2.9176,-2.9854,-3.0884,-3.1687,-3.3345,-3.4951,-3.6229,-3.5754,-3.4915,-3.3792,-3.3434,-3.3102,-3.2589,-3.2951,-3.2966,-3.2404,-3.0952,-2.994,-2.9676,-2.9019,-2.9183,-3.0296,-2.9501,-2.9238,-2.9626,-2.9258,-2.8926,-2.8613,-2.8496,-2.8457,-2.8437,-2.834,-2.8301,-2.8301,-2.8301,-2.8301,-2.8301,-2.8301,-2.8301,-2.832,-2.8633,-2.8769,-2.8809,-2.9238,-2.9394,-2.9394,-2.9277,-2.9238,-2.9199,-2.8867,-2.8769,-2.8711,-2.8398,-2.8301,-2.8301,-2.8301,-2.8301,-2.8301,-2.8301,-2.8301,-2.8301,-2.8301,-2.8301,-2.8301,-2.8301,-2.8301,-2.8262,-2.8164,-2.7943,-2.7519,-2.709,-2.6758,-2.6621,-2.6836,-2.6582,-2.6309,-2.6044,-2.6348,-2.6426,-2.6044,-2.625,-2.625,-2.5937,-2.5752,-2.5693,-2.5693,-2.5693,-2.5693,-2.5693,-2.5693,-2.5849,-2.6211,-2.5898,-2.5849,-2.623,-2.5849,-2.5898,-2.623,-2.6328,-2.6738,-3.2717,-3.4173,-3.5378,-3.5107,-3.4806,-3.4424,-3.3696,-3.3093,-3.224,-3.0633,-2.9704,-2.88,-2.7595,-2.8147,-2.9202,-3.0482,-3.234,-3.4173,-3.578,-3.5724,-3.5275,-3.4414,-3.4317,-3.4126,-3.3618,-3.4029,-3.4003,-3.3277,-3.2022,-3.0897,-2.9984,-2.9303,-2.9179,-2.9581,-2.8957,-2.8769,-2.9004,-2.8769,-2.8516,-2.8301,-2.8301,-2.8301,-2.8301,-2.8301,-2.8301,-2.8301,-2.8301,-2.8301,-2.8301,-2.8496,-2.8574,-2.8613,-2.9043,-2.9199,-2.9258,-2.9687,-2.9844,-2.9863,-3.0078,-3.0156,-3.0039,-2.9414,-2.9199,-2.916,-2.8926,-2.8848,-2.8809,-2.8613,-2.8574,-2.8516,-2.834,-2.8301,-2.8301,-2.8301,-2.8301,-2.8301,-2.8301,-2.8301,-2.8301,-2.8301,-2.8105,-2.7812,-2.7383,-2.7109,-2.6973,-2.7012,-2.6816,-2.6582,-2.6278,-2.6504,-2.6562,-2.6328,-2.6348,-2.6289,-2.6055,-2.581,-2.5693,-2.5693,-2.5693,-2.5693,-2.5693,-2.5693,-2.581,-2.6094,-2.581,-2.581,-2.6094,-2.6055,-2.6152,-2.6406,-2.6777,-2.7207,-3.3847,-3.5152,-3.6279,-3.5633,-3.5433,-3.4956,-3.3345,-3.2466,-3.1361,-2.9139,-2.7896,-2.7027,-2.6399,-2.6524,-2.7404,-2.9453,-3.121,-3.3068,-3.5207,-3.5508,-3.5475,-3.5595,-3.5155,-3.4867,-3.4775,-3.4775,-3.4433,-3.3449,-3.34,-3.2426,-3.0224,-2.9984,-2.9408,-2.8354,-2.8301,-2.8301,-2.8301,-2.8301,-2.8301,-2.8301,-2.8301,-2.8301,-2.8301,-2.8301,-2.8301,-2.8301,-2.8301,-2.832,-2.8398,-2.8769,-2.8945,-2.9043,-2.9492,-2.9648,-2.9707,-3.0137,-3.0293,-3.0351,-3.0762,-3.0898,-3.0762,-2.9922,-2.9648,-2.9648,-2.9646,-2.9626,-2.9492,-2.9121,-2.9004,-2.8926,-2.8555,-2.8418,-2.8379,-2.8379,-2.834,-2.8301,-2.8301,-2.8301,-2.8301,-2.8301,-2.8301,-2.8184,-2.7812,-2.7748,-2.7539,-2.7148,-2.7051,-2.7012,-2.7012,-2.707,-2.7051,-2.6934,-2.666,-2.6426,-2.6309,-2.5908,-2.5693,-2.5693,-2.5693,-2.5693,-2.5693,-2.5693,-2.5732,-2.5849,-2.581,-2.583,-2.5947,-2.6309,-2.6504,-2.6582,-2.7376,-2.7748,-3.4424,-3.5454,-3.6279,-3.5633,-3.5157,-3.4379,-3.2742,-3.1612,-3.0256,-2.8021,-2.7077,-2.6323,-2.5285,-2.659,-2.8247,-2.9578,-3.1562,-3.3545,-3.5257,-3.5369,-3.5335,-3.5547,-3.533,-3.5017,-3.4823,-3.4775,-3.4726,0.0,-3.4531,-3.3598,-3.141,-3.038,-2.9408,-2.8354,-2.8301,-2.8301,-2.8301,-2.8301,-2.8301,-2.8301,-2.8301,-2.8301,-2.8301,-2.8301,-2.8301,-2.8301,-2.8301,0.0,-2.8809,-2.8887,-2.9141,-2.9492,-2.9922,-3.0098,-3.0137,-3.0605,-3.0762,-3.0781,-3.0859,-3.0898,-3.0801,-3.0254,-3.0098,-3.0019,-2.9668,-2.9626,-2.9551,-2.9473,-2.9453,-2.9434,-2.9375,-2.9082,-2.8809,-2.8809,-2.8535,-2.8301,-2.8301,-2.8301,-2.8301,-2.8301,-2.8301,-2.8262,-2.8203,-2.7891,-2.7689,-2.7559,-2.7246,-2.7012,-2.7012,-2.7324,-2.7285,-2.6562,-2.6738,-2.6621,-2.5849,-2.5732,-2.5693,-2.5693,-2.5693,-2.5693,-2.5693,-2.5693,-2.6025,-2.6777,-2.6445,-2.6621,-2.7324,-2.7051,-2.709,-2.7493,-2.765,-2.7851,-3.465,-3.5529,-3.6279,-3.5633,-3.4881,-3.3721,-3.1461,-3.0105,-2.8599,-2.6088,-2.5393,-2.4933,-2.4073,-2.5252,-2.6766,-2.7907,-2.9679,-3.1712,-3.3947,-3.4435,-3.4853,-3.5688,-3.5572,-3.5307,-3.5017,-3.4872,-3.4775,-3.4775,-3.4775,-3.4115,-3.2549,-3.1359,-3.0557,-3.0037,-3.0037,-3.0037,-3.0037,-3.0037,-2.9723,-2.9112,-2.9112,-2.8847,-2.8301,-2.8301,-2.8301,-2.8301,-2.8516,-2.873,-2.8945,-2.9394,-2.9707,-2.9941,-3.0391,-3.0547,-3.0586,-3.082,-3.0898,-3.0898,-3.0898,-3.0898,-3.0859,-3.0625,-3.0547,-3.0527,-3.0312,-3.0254,-3.0215,-2.9961,-2.9902,-2.9844,-2.9629,-2.9414,-2.9258,-2.9258,-2.8926,-2.8555,-2.834,-2.8301,-2.8301,-2.8301,-2.8301,-2.8301,-2.8301,-2.8125,-2.7988,-2.7988,-2.7812,-2.7676,-2.7676,-2.7851,-2.7656,-2.6816,-2.6894,-2.6855,-2.6395,-2.6406,-2.6406,-2.6406,-2.6406,-2.6406,-2.6406,-2.6406,-2.6551,-2.7012,-2.6816,-2.6914,-2.7324,-2.7344,-2.7461,-2.7728,-2.7891,-2.8105,-3.47,-3.5529,-3.6254,-3.5483,-3.4625,-3.3144,-3.0256,-2.8649,-2.7017,-2.4356,-2.3728,-2.3527,-2.317,-2.4023,-2.5209,-2.6474,-2.7921,-2.9854,-3.2516,-3.347,-3.4385,-3.5655,-3.569,0.0,-3.5235,-3.5017,0.0,-3.4872,-3.4872,-3.436,-3.325,-3.2196,-3.1586,-3.1586,-3.1586,-3.1586,-3.1586,-3.1586,-3.1,-2.9932,-2.9932,-2.9375,-2.8301,-2.8301,-2.8301,-2.832,-2.8633,-2.8887,-2.9121,-2.9785,-3.0176,-3.0391,-3.0742,-3.0898,-3.0898,-3.0898,-3.0898,-3.0898,-3.0898,-3.0898,-3.0898,-3.0898,-3.0898,-3.0898,-3.0898,-3.0898,-3.082,-3.0449,-3.0351,-3.0273,-2.9941,-2.9785,-2.9687,-2.959,-2.9238,-2.8828,-2.8496,-2.8359,-2.8301,-2.8301,-2.8301,-2.8301,-2.8301,-2.8301,-2.8301,-2.8301,-2.8301,-2.8301,-2.8301,-2.8301,-2.8027,-2.7363,-2.7207,-2.7109,-2.7031,-2.7012,-2.7012,-2.7012,-2.7012,-2.7012,-2.7012,-2.7012,-2.7051,-2.7148,-2.7148,-2.7187,-2.7285,-2.7637,-2.7865,-2.7865,-2.8144,-2.8301,-3.4575,-3.5529,-3.6153,-3.5052,-3.4349,-3.3043,-2.9715,-2.777,-2.5996,-2.3647,-2.2794,-2.2598,-2.302,-2.4023,-2.5335,-2.6942,-2.8172,-2.9665,-3.1964,-3.3219,-3.4234,-3.518,0.0,0.0,-3.5235,-3.5187,-3.5163,-3.5163,-3.5163,-3.458,-3.325,-3.2196,-3.1586,-3.1586,-3.1586,-3.1586,-3.1586,-3.1586,-3.1,-2.9932,-2.9932,-2.9375,-2.8301,-2.8301,-2.8301,-2.8301,-2.834,-2.8789,0.0,-2.959,-3.0098,-3.084,-3.0879,-3.0898,-3.0898,-3.0898,-3.0898,-3.0898,-3.0898,-3.0898,-3.0898,-3.0898,-3.0898,-3.0898,-3.0898,-3.0898,-3.0879,-3.084,-3.082,-3.082,-3.0781,-3.0449,-3.0039,-2.9668,-2.9238,-2.8906,-2.8867,-2.8555,-2.8301,-2.8301,-2.8301,-2.8301,-2.8301,-2.8301,-2.8301,-2.8301,-2.8301,-2.8301,-2.8301,-2.8301,-2.8262,-2.8184,-2.7832,-2.7441,-2.7051,-2.7012,-2.7012,-2.7012,-2.7012,-2.7012,-2.7012,-2.7012,-2.7207,-2.765,-2.7669,-2.7793,-2.8184,-2.8223,-2.8242,-2.8242,-2.8281,-2.8301,-3.4399,-3.5052,-3.5278,-3.4826,-3.3796,-3.2114,-2.9126,-2.7143,-2.531,-2.307,-2.2196,-2.197,-2.2518,-2.297,-2.3853,-2.5536,-2.6129,-2.7308,-2.9841,-3.0934,-3.2173,-3.419,-3.4661,-3.5024,-3.5642,0.0,-3.5428,-3.5428,-3.5428,-3.5211,-3.4653,-3.4115,-3.3747,-3.3747,-3.3747,-3.3697,-3.3499,-3.2901,-3.2022,-3.0897,-3.0224,-2.9375,-2.8301,-2.8301,-2.8301,-2.8301,-2.8555,-2.8867,0.0,-2.9726,-3.0156,-3.0508,-3.0781,-3.0898,-3.0898,-3.0898,-3.0898,-3.0898,-3.0898,-3.0898,-3.0898,-3.0898,-3.0898,-3.0898,-3.0898,-3.0898,-3.0898,-3.0898,-3.0898,-3.0898,-3.0898,-3.0762,-3.0508,-3.0059,-2.9824,-2.9609,-2.9375,-2.8965,-2.8672,-2.8672,-2.8457,-2.8301,-2.8301,-2.8301,-2.8301,-2.8301,-2.8301,-2.8301,-2.8301,-2.8301,-2.8301,-2.8301,-2.8144,-2.7969,-2.7793,-2.7773,-2.7773,-2.7773,-2.7773,-2.7773,-2.7773,-2.7773,-2.7871,-2.8047,-2.8047,-2.8125,-2.8301,-2.8301,-2.8301,-2.8301,-2.8301,-2.8437,-3.3822,-3.4474,-3.465,-3.4324,-3.3093,-3.1235,-2.8499,-2.644,-2.4531,-2.2498,-2.1619,-2.1446,-2.197,-2.2196,-2.2799,-2.433,0.0,-2.5912,-2.8311,-2.9478,-3.0859,-3.3144,-3.3676,-3.4268,-3.536,-3.5614,-3.5764,-3.586,-3.5764,-3.5764,-3.586,-3.5572,-3.538,-3.5235,-3.5235,-3.5066,-3.4775,-3.4066,-3.3151,-3.2072,-3.1257,-3.0276,-2.927,-2.89,-2.8953,-2.929,-2.922,-2.9277,0.0,-3.0191,-3.0362,-3.0234,-3.0703,-3.0898,-3.0898,-3.0898,-3.0898,-3.0898,-3.0898,-3.0898,-3.0898,-3.0898,-3.0898,-3.0898,-3.0898,-3.0898,-3.0898,-3.0898,-3.0898,-3.0898,-3.0898,-3.0898,-3.082,-3.0488,-3.0293,-3.0117,-2.9824,-2.9414,-2.9121,-2.9121,-2.8769,-2.8476,-2.8476,-2.8379,-2.8301,-2.8301,-2.8301,-2.8301,-2.8301,-2.8301,-2.8301,-2.8301,-2.8301,-2.8301,-2.8301,-2.8301,-2.8301,-2.8301,-2.8301,-2.8301,-2.8301,-2.8301,-2.8301,-2.8301,-2.8301,-2.8301,-2.8301,-2.8301,-2.8301,-2.8301,-2.8418,-2.8769,-3.2835,-3.3897,-3.4449,-3.337,-3.224,-3.0683,-2.7957,-2.5586,-2.3527,-2.1845,-2.1094,-2.0867,-2.1393,-2.1945,-2.2673,-2.3828,-2.4908,0.0,-2.7871,-2.9553,-3.1009,-3.2114,-3.2529,-3.3126,-3.4218,-3.531,-3.6098,-3.6358,-3.6146,0.0,-3.6358,-3.6146,-3.5764,-3.5235,-3.5235,-3.5066,-3.4775,-3.4775,-3.4213,-3.3201,-3.3151,-3.26,-3.1534,-3.038,-3.0484,-3.1513,-3.0401,-3.0128,0.0,-3.1037,-3.0792,-3.0234,-3.0703,-3.0898,-3.0898,-3.0898,-3.0898,-3.0898,-3.0898,-3.0898,-3.0898,-3.0898,-3.0898,-3.0898,-3.0898,-3.0898,-3.0898,-3.0898,-3.0898,-3.0898,-3.0898,-3.0898,-3.0898,-3.0879,-3.0527,-3.0195,-3.0195,-2.9863,-2.957,-2.957,-2.9199,-2.8906,-2.8906,-2.8574,-2.8301,-2.8301,-2.8301,-2.8301,-2.8301,-2.8301,-2.8301,-2.8301,-2.8301,-2.8301,-2.8301,-2.8301,-2.8301,-2.8301,-2.8301,-2.8301,-2.8301,-2.8301,-2.8301,-2.8301,-2.8301,-2.8301,-2.8301,-2.8301,-2.8301,-2.8301,-2.8711,-2.9375,-3.1025,-3.1662,-3.1838,-3.1486,-3.0532,-2.9176,-2.7203,-2.5343,-2.3527,-2.1873,-2.0767,-2.0363,-2.1345,-2.1619,-2.2472,-2.4732,-2.5385,0.0,-2.7871,-2.9553,-3.1009,-3.2089,-3.4003,-3.5361,-3.5712,-3.6063,-3.631,-3.6405,-3.631,-3.631,-3.6405,-3.631,-3.6098,-3.5764,-3.5572,-3.5332,-3.5066,-3.4164,-3.3549,-3.3201,-3.2448,-3.1942,-3.1586,-3.1206,-3.1257,-3.1586,-3.1227,-3.0672,-3.018,-3.0636,-3.0403,-2.9805,-3.0254,-3.0605,-3.0898,-3.0898,-3.0898,-3.0898,-3.0898,-3.0898,-3.0898,-3.0898,-3.0898,-3.0898,-3.0898,-3.0898,-3.0898,-3.0898,-3.0898,-3.0898,-3.0898,-3.0898,-3.0898,-3.0898,-3.0781,-3.0664,-3.0664,-3.0312,-3.0,-3.0,-2.9648,-2.9355,-2.9355,-2.9258,-2.9062,-2.8769,-2.8711,-2.8613,-2.832,-2.8301,-2.8301,-2.8301,-2.8301,-2.8301,-2.8301,-2.8301,-2.8301,-2.8301,-2.8301,-2.8301,-2.8301,-2.8301,-2.8301,-2.8301,-2.8301,-2.8301,-2.8301,-2.8301,-2.8437,-2.873,-2.9453,-2.9941,-2.9089,-2.998,-3.0256,-3.003,-2.9126,-2.7871,-2.6214,-2.4556,-2.2949,-2.1521,-2.0439,-2.0087,-2.1043,-2.1194,-2.187,-2.4004,-2.4707,-2.5586,-2.7243,-2.9101,-3.0859,-3.2365,-3.4424,-3.573,-3.573,-3.6179,-3.6405,-3.6405,-3.6405,-3.6405,-3.6405,-3.631,-3.6193,-3.6003,-3.5716,-3.5476,-3.5235,-3.4262,-3.3819,-3.3819,-3.3151,-3.2801,-3.2801,-3.2398,-3.2426,-3.275,-3.1942,-3.1206,0.0,-3.0588,-3.0099,-2.9375,-2.9961,-3.0371,-3.0644,-3.082,-3.0898,-3.0898,-3.0898,-3.0898,-3.1015,-3.146,-3.1903,-3.2113,-3.173,-3.1286,-3.0898,-3.0898,-3.0898,-3.0898,-3.0898,-3.0898,-3.0898,-3.0898,-3.0898,-3.0898,-3.0898,-3.0664,-3.0449,-3.0449,-3.0098,-2.9805,-2.9805,-2.9668,-2.9473,-2.9199,-2.916,-2.9062,-2.8809,-2.8769,-2.8711,-2.8555,-2.8535,-2.8457,-2.8301,-2.8301,-2.8301,-2.8301,-2.8301,-2.8301,-2.8301,-2.8301,-2.8301,-2.8301,-2.8437,-2.8535,-2.8535,-2.8691,-2.8984,-2.9414,-2.9941,-3.0293,0.0,-2.8549,-2.9302,-2.8737,-2.7846,-2.664,-2.5026,-2.3427,0.0,-2.0918,-2.0239,-2.0012,-2.0691,-2.0767,-2.1144,-2.2347,-2.3427,-2.4682,-2.6373,-2.8611,-3.0859,-3.3043,-3.4223,-3.4851,-3.4851,-3.5755,-3.6405,-3.6405,-3.6405,-3.6405,-3.6405,-3.6146,-3.6003,-3.6003,-3.5764,-3.5476,-3.5235,-3.492,-3.4775,-3.4775,-3.4775,-3.4775,-3.4775,-3.377,-3.3869,0.0,-3.27,-3.1768,-3.1659,-3.1021,-3.0112,-2.9113,-2.9937,-3.0233,-3.0254,-3.0723,-3.0937,-3.0995,-3.0995,-3.1054,-3.1344,-3.2457,-3.3515,-3.4224,-3.3119,-3.2018,-3.117,-3.117,-3.1112,-3.0995,-3.0995,-3.0957,-3.0898,-3.0898,-3.0898,-3.0898,-3.0898,-3.0898,-3.0898,-3.0898,-3.0547,-3.0254,-3.0254,-2.9922,-2.9704,-2.9685,-2.9609,-2.9609,-2.957,-2.9626,-2.9414,-2.9004,-2.8965,-2.8809,-2.8418,-2.832,-2.8301,-2.8301,-2.832,-2.834,-2.834,-2.8359,-2.8379,-2.8379,-2.8769,-2.8965,-2.8965,-2.9394,-2.9805,-3.0195,-3.0234,-3.0488,-2.3412,0.0,-2.5929,-2.5778,-2.5285,-2.4556,0.0,-2.2573,-2.1493,-2.0842,-2.0239,-2.0238,-2.1669,-2.1568,-2.2071,-2.4431,-2.5059,-2.5812,-2.7494,-3.0357,-3.3162,-3.5374,-3.5877,-3.6028,-3.6028,-3.6254,-3.6405,-3.6405,-3.6405,-3.6405,-3.6405,-3.631,-3.631,-3.631,-3.586,-3.5476,-3.5235,-3.492,-3.4775,-3.4775,-3.4775,-3.4775,-3.4775,-3.4531,-3.458,-3.4775,-3.4262,-3.3549,-3.2801,-3.2662,-3.1646,-3.0248,-3.0724,-3.067,-3.0254,-3.0723,-3.1518,-3.2285,-3.2285,-3.2835,-3.3607,-3.3888,-3.4168,-3.4336,-3.4056,-3.3776,-3.3551,-3.3551,-3.2949,-3.2285,-3.2285,-3.1556,-3.0898,-3.0898,-3.0898,-3.0898,-3.0898,-3.0898,-3.0898,-3.0898,-3.0801,-3.0723,-3.0723,-3.0644,-3.0449,-3.0098,-3.0059,-2.9941,-2.9665,-2.9626,-2.9587,-2.9434,-2.9414,-2.9375,-2.9277,-2.8672,-2.8301,-2.8301,-2.8594,-2.8769,-2.8769,-2.9082,-2.9277,-2.9277,-2.9375,-2.9414,-2.9414,-2.9844,-3.0098,-3.0195,-3.0566,-3.0781,-2.1448,-2.315,-2.48,-2.48,-2.4406,-2.3853,-2.3246,-2.2071,-2.0968,-2.0415,-2.0012,-2.0162,-2.1343,-2.1518,-2.2146,-2.413,-2.5109,-2.6615,-2.9578,-3.1989,-3.4218,-3.6179,-3.6405,-3.6405,-3.6405,-3.6405,-3.6405,-3.6405,-3.6405,-3.6405,-3.6405,-3.6288,-3.6241,-3.6241,-3.5812,-3.5524,-3.538,-3.5114,-3.492,-3.4775,-3.492,-3.492,-3.4775,-3.4775,-3.4775,-3.4775,-3.4262,-3.377,-3.3151,-3.265,-3.1922,-3.1115,-3.1476,-3.1563,-3.1525,-3.1999,-3.2705,-3.3459,-3.3459,-3.4224,-3.5113,-3.4558,-3.5168,-3.5936,-3.5388,-3.5608,-3.5827,-3.4725,-3.3572,-3.2685,-3.2685,-3.1787,-3.0898,-3.0898,-3.0898,-3.0898,-3.0898,-3.0898,-3.0898,-3.0898,-3.0898,-3.0898,-3.0898,-3.0898,-3.0801,-3.0547,-3.0508,-3.043,-3.0215,-3.0176,-3.0098,-2.9883,-2.9863,-2.9785,-2.9646,-2.9141,-2.8887,-2.8887,-2.9082,-2.9219,-2.9219,-2.9453,-2.9668,-2.9863,-2.9863,-2.9961,-3.0176,-3.041,-3.0508,-3.0527,-3.0781,-3.0898,-2.0668,-2.2648,-2.4499,-2.4424,-2.4155,-2.3728,-2.312,-2.187,-2.0691,-2.0162,-2.0062,-2.0288,-2.1069,-2.1597,-2.2297,-2.3521,-2.5234,-2.777,-3.1788,-3.3319,-3.46,-3.6229,-3.6405,-3.6405,-3.6405,-3.6405,-3.6405,-3.6405,-3.6405,-3.6405,-3.6405,-3.6193,-3.6051,-3.6051,-3.5812,-3.5668,-3.5668,-3.5428,-3.5138,-3.492,-3.5114,-3.5066,-3.4872,-3.4823,-3.4823,-3.4823,-3.3869,-3.3449,-3.3449,-3.2499,-3.1993,-3.1885,-3.2295,-3.263,-3.294,-3.3432,-3.4021,-3.456,-3.4869,-3.5608,-3.6286,-3.5278,-3.6317,-3.7814,-3.6773,-3.7173,-3.7601,-3.5553,-3.4,-3.2913,-3.2742,-3.1787,-3.0898,-3.0898,-3.0898,-3.0957,-3.1112,-3.0995,-3.0937,-3.1112,-3.1015,-3.0898,-3.0898,-3.0898,-3.0957,-3.117,-3.0995,-3.0957,-3.117,-3.0995,-3.0742,-3.0351,-3.0293,-3.0156,-2.9861,-2.9822,-2.9822,-2.9822,-2.9707,-2.9687,-2.9822,-2.9822,-2.9941,-3.0293,-3.0293,-3.0488,-3.0898,-3.0898,-3.0898,-3.0898,-3.0898,-3.0898,-2.1146,-2.2347,-2.3246,-2.2824,-2.2945,-2.3095,-2.2543,-2.187,-2.1343,-2.1242,-2.1217,-2.1694,-2.3201,-2.3552,-2.428,-2.6314,-2.8448,-3.0583,-3.2641,-3.3897,-3.5027,-3.6279,-3.6405,-3.6405,-3.6405,-3.6405,-3.6405,-3.6405,-3.6405,-3.6405,-3.6405,-3.6358,-3.631,-3.631,-3.6098,-3.5908,-3.5908,-3.5668,-3.5524,-3.5476,-3.5284,-3.5187,-3.5114,-3.4872,-3.492,-3.5114,-3.4726,-3.4677,-3.4872,-3.4458,-3.377,-3.2996,-3.3373,-3.3034,-3.2429,-3.3247,-3.4292,-3.5451,-3.6932,-3.7601,-3.7708,-3.7495,-3.7708,-3.7974,-3.7761,-3.7868,-3.7921,-3.7548,-3.5827,-3.3888,-3.297,-3.1787,-3.0898,-3.0898,-3.0898,-3.117,-3.217,-3.1614,-3.117,-3.2248,-3.1614,-3.0898,-3.0898,-3.0898,-3.1228,-3.2305,-3.1556,-3.1286,-3.2285,-3.1518,-3.0859,-3.0801,-3.0781,-3.0762,-3.0703,-3.0684,-3.0684,-3.0684,-3.0312,-3.0273,-3.0664,-3.0684,-3.0723,-3.0781,-3.0781,-3.082,-3.0898,-3.0898,-3.0898,-3.0898,-3.0898,-3.0898,-2.0465,-2.1619,-2.2669,-2.2719,-2.3371,-2.3948,-2.3697,-2.297,-2.2343,-2.2343,-2.2343,-2.2698,-2.3803,-2.4732,-2.6273,-2.9051,-3.0608,-3.2064,-3.3721,-3.465,-3.5454,-3.6304,-3.6405,-3.6405,-3.6405,-3.6405,-3.6405,-3.6405,-3.6405,-3.6405,-3.6405,-3.6405,-3.6405,-3.6405,-3.6288,-3.6241,-3.6241,-3.6098,-3.5908,-3.562,-3.562,-3.5572,-3.5428,-3.5284,-3.5284,-3.5428,-3.5114,-3.509,-3.5187,-3.492,-3.4531,-3.4089,-3.4275,-3.4233,-3.4175,-3.5166,-3.6114,-3.6927,-3.7719,-3.7974,-3.7974,-3.7974,-3.7974,-3.7974,-3.7974,-3.7974,-3.7868,-3.7227,-3.6231,-3.5223,-3.4747,-3.3685,-3.2778,-3.2778,-3.2778,-3.2949,-3.3515,-3.3176,-3.2949,-3.3515,-3.3176,-3.2778,-3.2778,-3.2778,-3.3006,-3.3515,-3.3176,-3.2778,-3.2685,-3.2721,-3.2571,-3.196,-3.2399,-3.2778,-3.2778,-3.2227,-3.1556,-3.0937,-3.0684,-3.0664,-3.0879,-3.0898,-3.0898,-3.0898,-3.0898,-3.0898,-3.0898,-3.0898,-3.0898,-3.0898,-3.0898,-3.0898,-2.0339,-2.1343,-2.2443,-2.3145,-2.3948,-2.4725,-2.5285,-2.4499,-2.3747,-2.4023,-2.4073,-2.4199,-2.4682,-2.6273,-2.8385,-3.1135,-3.2265,-3.3294,-3.468,-3.5332,-3.5881,-3.6355,-3.6405,-3.6405,-3.6405,-3.6405,-3.6405,-3.6405,-3.6405,-3.6405,-3.6405,-3.6405,-3.6405,-3.6405,-3.6405,-3.6405,-3.6405,-3.6405,-3.6168,-3.5812,-3.5908,-3.5908,-3.5668,-3.562,-3.562,-3.5668,-3.5332,-3.5235,-3.5284,-3.492,-3.4775,-3.4775,-3.4775,-3.516,-3.5737,-3.6675,-3.7348,-3.7805,-3.795,-3.7974,-3.7974,-3.7974,-3.7974,-3.7974,-3.7974,-3.7974,-3.7814,-3.6881,-3.6611,-3.6503,-3.5959,-3.5113,-3.4391,-3.4391,-3.4391,-3.4503,-3.4781,-3.4614,-3.4503,-3.4781,-3.4614,-3.4391,-3.4391,-3.4391,-3.4503,-3.4781,-3.4558,-3.4168,-3.3572,-3.4,-3.4056,-3.3176,-3.3888,-3.4391,-3.4391,-3.3628,-3.2685,-3.1787,-3.1228,-3.0898,-3.0898,-3.0898,-3.0995,-3.1344,-3.1054,-3.1054,-3.1344,-3.1054,-3.1054,-3.1344,-3.0995,-3.1054,-2.1901,-2.2221,-2.2573,-2.3678,-2.4004,-2.4607,-2.664,-2.6239,-2.5711,-2.6766,-2.6992,-2.6992,-2.7042,-2.885,-3.0708,-3.1964,-3.3495,-3.4731,-3.5357,-3.5956,-3.6355,-3.6405,-3.6405,-3.6405,-3.6405,-3.6405,-3.6405,-3.6405,-3.6405,-3.6405,-3.6405,-3.6405,-3.6405,-3.6405,-3.6405,-3.6405,-3.6405,-3.6405,-3.6358,-3.6358,-3.6098,-3.5955,-3.5955,-3.5716,-3.5716,-3.5955,-3.5428,-3.5332,-3.5524,-3.5017,-3.4775,-3.4775,-3.4775,-3.516,-3.5689,-3.6266,-3.6795,-3.7324,-3.7805,-3.7974,-3.7974,-3.7974,-3.7974,-3.7974,-3.7974,-3.7974,-3.7974,-3.7868,-3.7868,-3.7364,-3.5113,-3.4447,-3.4391,-3.4391,-3.4391,-3.4725,-3.585,-3.5168,-3.4725,-3.585,-3.5168,-3.4391,-3.4391,-3.4391,-3.4781,-3.5904,-3.5113,-3.4781,-3.5795,-3.5057,-3.4391,-3.428,-3.4336,-3.4391,-3.4391,-3.4336,-3.4224,-3.4168,-3.2113,-3.0898,-3.0898,-3.0898,-3.146,-3.2571,-3.146,-3.146,-3.2571,-3.146,-3.146,-3.2514,-3.1402,-3.1518,-2.1277,-2.1794,-2.2573,-2.3728,-2.4506,-2.5385,-2.6977,-2.7218,-2.7469,-2.8599,-2.885,-2.895,-2.9302,-3.0055,-3.1185,-3.2968,-3.4073,-3.5027,-3.5931,-3.6279,-3.6405,-3.6405,-3.6405,-3.6405,-3.6405,-3.6405,-3.6405,-3.6405,-3.6405,-3.6405,-3.6405,-3.6405,-3.6405,-3.6405,-3.6405,-3.6405,-3.6405,-3.6405,-3.6405,-3.6405,-3.631,-3.6241,-3.6241,-3.6121,-3.6121,-3.6241,-3.586,-3.5668,-3.5572,-3.5235,-3.492,-3.4775,-3.4775,-3.516,-3.5689,-3.6218,-3.6747,-3.7276,-3.7805,-3.7974,-3.7974,-3.7974,-3.7974,-3.7974,-3.7974,-3.7974,-3.7974,-3.7974,-3.7974,-3.7814,-3.6881,-3.6665,-3.6665,-3.6665,-3.6665,-3.6773,-3.7227,-3.6935,-3.6773,-3.7203,-3.6935,-3.6665,-3.6665,-3.6665,-3.6773,-3.7281,-3.6935,-3.6534,-3.6263,-3.6426,-3.6317,-3.563,-3.6154,-3.6317,-3.5553,-3.5498,-3.5168,-3.4447,-3.3551,-3.3063,-3.3063,-3.3063,-3.3289,-3.3741,-3.2628,-3.2227,-3.2685,-3.1518,-3.1112,-3.1556,-3.1112,-3.1112,-2.1075,-2.1594,-2.2548,-2.3477,-2.4682,-2.5988,-2.7469,-2.8247,-2.9051,-3.0532,-3.0557,-3.0407,-3.0783,-3.1009,-3.1738,-3.3596,-3.45,-3.5303,-3.6279,-3.6405,-3.6405,-3.6405,-3.6405,-3.6405,-3.6405,-3.6405,-3.6405,-3.6405,-3.6405,-3.6405,-3.6405,-3.6405,-3.6405,-3.6405,-3.6405,-3.6405,-3.6405,-3.6405,-3.6405,-3.6405,-3.6405,-3.6405,-3.6405,-3.6405,-3.6405,-3.6405,-3.6098,-3.586,-3.5572,-3.5428,-3.5163,-3.492,-3.4823,-3.5089,-3.5523,-3.6054,-3.6635,-3.7294,-3.7802,-3.8117,-3.8238,-3.8238,-3.8238,-3.8238,-3.8238,-3.8238,-3.8238,-3.8238,-3.821,-3.8157,-3.8157,-3.808,-3.7974,-3.7974,-3.7974,-3.7974,-3.7974,-3.7974,-3.7974,-3.7974,-3.7974,-3.7974,-3.7974,-3.7974,-3.7974,-3.7974,-3.7974,-3.7708,-3.6858,-3.7471,-3.7655,-3.685,-3.7495,-3.7655,-3.6827,-3.6773,-3.6449,-3.5608,-3.5553,-3.5168,-3.4447,-3.4391,-3.4614,-3.509,-3.4,-3.3459,-3.3494,-3.2322,-3.1652,-3.1614,-3.1228,-3.1228,-2.1728,-2.1895,-2.2447,-2.297,-2.4374,-2.6214,-2.8386,-2.9402,-3.0432,-3.2641,-3.219,-3.1411,-3.1411,-3.1863,-3.2591,-3.3721,-3.4781,-3.5683,-3.6329,-3.6405,-3.6405,-3.6405,-3.6405,-3.6405,-3.6405,-3.6405,-3.6405,-3.6405,-3.6405,-3.6405,-3.6405,-3.6405,-3.6405,-3.6405,-3.6405,-3.6405,-3.6405,-3.6405,-3.6405,-3.6405,-3.6405,-3.6405,-3.6405,-3.6405,-3.6405,-3.6405,-3.6098,-3.586,-3.562,-3.562,-3.5428,-3.5187,-3.492,-3.4969,-3.5284,-3.5819,-3.6503,-3.7266,-3.7806,-3.8347,-3.8788,-3.8788,-3.8788,-3.8788,-3.8788,-3.8788,-3.8788,-3.8788,-3.8631,-3.8421,-3.8421,-3.8185,-3.7974,-3.7974,-3.7974,-3.7974,-3.7974,-3.7974,-3.7974,-3.7974,-3.7974,-3.7974,-3.7974,-3.7974,-3.7974,-3.7974,-3.7974,-3.7974,-3.7974,-3.7974,-3.7974,-3.7974,-3.7974,-3.7974,-3.7974,-3.7974,-3.7974,-3.7974,-3.7974,-3.6935,-3.4558,-3.4447,-3.509,-3.6565,-3.5476,-3.5035,-3.5288,-3.4069,-3.336,-3.3063,-3.1825,-3.194,-2.1277,-2.187,-2.3095,-2.4048,-2.6104,-2.8286,-2.974,-3.0532,-3.1537,-3.3771,-3.3345,-3.2591,-3.2591,-3.2717,-3.3068,-3.3771,-3.4781,-3.5683,-3.6329,-3.6405,-3.6405,-3.6405,-3.6405,-3.6405,-3.6405,-3.6405,-3.6405,-3.6405,-3.6405,-3.6405,-3.6405,-3.6405,-3.6405,-3.6405,-3.6405,-3.6405,-3.6405,-3.6405,-3.6405,-3.6405,-3.6405,-3.6405,-3.6405,-3.6405,-3.6405,-3.6405,-3.631,-3.6146,-3.586,-3.5668,-3.5572,-3.5476,-3.538,-3.5428,-3.5525,-3.6064,-3.6677,-3.7266,-3.7806,-3.8347,-3.8788,-3.8788,-3.8788,-3.8788,-3.8788,-3.8788,-3.8788,-3.8788,-3.8736,-3.8631,-3.8473,-3.8344,-3.8238,-3.8027,-3.7974,-3.7974,-3.7974,-3.7974,-3.7974,-3.7974,-3.7974,-3.7974,-3.7974,-3.7974,-3.7974,-3.7974,-3.7974,-3.7974,-3.7974,-3.7974,-3.7974,-3.7974,-3.7974,-3.7974,-3.7974,-3.7974,-3.7974,-3.7974,-3.821,-3.7868,-3.6989,-3.6935,-3.6827,-3.6665,-3.5498,-3.4614,-3.4112,-3.2664,-3.194,-3.1825,-3.1498,-3.1498,-2.2081,-2.2874,-2.4048,-2.5184,-2.7218,-2.9364,-3.1185,-3.2164,-3.3043,-3.4148,-3.4048,-3.3721,-3.3721,-3.3721,-3.3897,-3.4474,-3.5303,-3.5981,-3.6355,-3.6405,-3.6405,-3.6405,-3.6405,-3.6405,-3.6405,-3.6405,-3.6405,-3.6405,-3.6405,-3.6405,-3.6405,-3.6405,-3.6405,-3.6405,-3.6405,-3.6405,-3.6405,-3.6405,-3.6405,-3.6405,-3.6405,-3.6405,-3.6405,-3.6405,-3.6405,-3.6405,-3.6263,-3.6193,-3.6146,-3.5764,-3.5668,-3.5764,-3.562,-3.5668,-3.5814,-3.6134,-3.6652,-3.7271,-3.7816,-3.8361,-3.8881,-3.9104,-3.9154,-3.9154,-3.9154,-3.9154,-3.9154,-3.9154,-3.905,-3.8945,-3.8631,-3.8473,-3.8315,-3.808,-3.7974,-3.7974,-3.7974,-3.7974,-3.7974,-3.7974,-3.7974,-3.7974,-3.7974,-3.7974,-3.7974,-3.7974,-3.7974,-3.7974,-3.7974,-3.7974,-3.7974,-3.7974,-3.7974,-3.7974,-3.7974,-3.7974,-3.8051,-3.8133,-3.8315,-3.8368,-3.8315,-3.8315,-3.8133,-3.7708,-3.7042,-3.6208,-3.5333,-3.437,-3.3381,-3.2379,-3.2379,-3.2113,-2.3457,-2.4356,-2.5159,-2.6348,-2.7896,-2.9854,-3.2466,-3.3897,-3.4525,-3.4073,-3.4374,-3.468,-3.468,-3.4731,-3.4906,-3.5408,-3.6006,-3.6405,-3.6405,-3.6405,-3.6405,-3.6405,-3.6405,-3.6405,-3.6405,-3.6405,-3.6405,-3.6405,-3.6405,-3.6405,-3.6405,-3.6355,-3.6329,-3.6329,-3.6279,-3.6254,-3.6254,-3.6254,-3.6254,-3.6254,-3.6304,-3.6329,-3.6329,-3.638,-3.6405,-3.6405,-3.6146,-3.6193,-3.6358,-3.586,-3.5812,-3.6003,-3.5764,-3.5812,-3.6051,-3.6051,-3.6543,-3.7262,-3.7764,-3.8316,-3.8894,-3.9446,-3.9622,-3.9622,-3.9672,-3.9697,-3.9697,-3.9697,-3.9517,-3.9258,-3.8945,-3.8631,-3.8368,-3.808,-3.8027,-3.7974,-3.7974,-3.7974,-3.7974,-3.7974,-3.7974,-3.7974,-3.7974,-3.7974,-3.7974,-3.7974,-3.7974,-3.7974,-3.7974,-3.7974,-3.7974,-3.7974,-3.7974,-3.8027,-3.8027,-3.8027,-3.8133,-3.8421,-3.8473,-3.8579,-3.8788,-3.8788,-3.8893,-3.9154,-3.9154,-3.8659,-3.7737,-3.7713,-3.6457,-3.4168,-3.4168,-3.3593,-2.2602,-2.4029,-2.5812,-2.7369,-2.9327,-3.126,-3.2742,-3.3596,-3.4173,-3.4474,-3.465,-3.468,-3.468,-3.5031,-3.5357,-3.5483,-3.6006,-3.6405,-3.6405,-3.6405,-3.6405,-3.6405,-3.6405,-3.6405,-3.6405,-3.6405,-3.6405,-3.6405,-3.6405,-3.6405,-3.6405,-3.5956,-3.5683,-3.5683,-3.5303,-3.5077,-3.5077,-3.5077,-3.5077,-3.5077,-3.5504,-3.5683,-3.5683,-3.6157,-3.6405,-3.6405,-3.631,-3.6358,-3.6405,-3.6263,-3.6263,-3.631,-3.6263,-3.6263,-3.631,-3.631,-3.6709,-3.7211,-3.7312,-3.7713,-3.8291,-3.8868,-3.9044,-3.912,-3.9572,-3.9697,-3.9697,-3.9697,-3.9645,-3.9542,-3.9258,-3.8945,-3.8631,-3.8368,-3.8133,-3.7974,-3.7974,-3.7974,-3.7974,-3.7974,-3.7974,-3.7974,-3.7974,-3.7974,-3.7974,-3.7974,-3.7974,-3.7974,-3.7974,-3.7974,-3.7974,-3.7974,-3.7974,-3.8104,-3.8315,-3.8291,-3.8421,-3.8684,-3.8945,-3.8998,-3.8788,-3.8788,-3.8502,-3.7897,-3.7897,-3.7447,-3.6565,-3.6294,-3.589,-3.5343,-3.5343,-3.4901,-2.3407,-2.4933,-2.6615,-2.9051,-3.0532,-3.1687,-3.286,-3.3294,-3.3596,-3.3872,-3.4349,-3.468,-3.468,-3.5132,-3.5508,-3.5508,-3.6006,-3.6405,-3.6405,-3.6405,-3.6405,-3.6405,-3.6405,-3.6405,-3.6405,-3.6405,-3.6405,-3.6405,-3.6107,-3.5981,-3.5981,-3.5454,-3.5107,-3.5107,-3.4831,-3.468,-3.468,-3.468,-3.468,-3.468,-3.4956,-3.5232,-3.5508,-3.6107,-3.6405,-3.6405,-3.6405,-3.6405,-3.6405,-3.6405,-3.6405,-3.6405,-3.6405,-3.6405,-3.6405,-3.6405,-3.6581,-3.6835,-3.7086,-3.7362,-3.7713,-3.8266,-3.8642,-3.8919,-3.922,-3.9496,-3.9697,-3.9697,-3.9697,-3.9645,-3.9362,-3.9154,-3.8945,-3.8684,-3.8291,-3.7974,-3.7974,-3.7974,-3.7974,-3.7974,-3.7974,-3.7974,-3.7974,-3.808,-3.821,-3.821,-3.8291,-3.8368,-3.8368,-3.8368,-3.8368,-3.8368,-3.8368,-3.8473,-3.8579,-3.8579,-3.8631,-3.8788,-3.9102,-3.933,-3.942,-3.955,-3.934,-3.8761,-3.8867,-3.8708,-3.8257,-3.8096,-3.7577,-3.6727,-3.6185,-3.5445,-2.3985,-2.577,-2.7354,-3.0357,-3.126,-3.1662,-3.2692,-3.3061,-3.3111,-3.3111,-3.3872,-3.4575,-3.4575,-3.4981,-3.5357,-3.5357,-3.578,-3.6128,-3.6128,-3.6128,-3.6128,-3.6128,-3.6128,-3.6128,-3.6128,-3.6128,-3.6128,-3.6128,-3.5655,-3.5357,-3.5357,-3.4831,-3.4575,-3.4575,-3.45,-3.4424,-3.4424,-3.4424,-3.4424,-3.4449,-3.4625,-3.4956,-3.5508,-3.6107,-3.6405,-3.6405,-3.6405,-3.6405,-3.6405,-3.6405,-3.6405,-3.6405,-3.6405,-3.6405,-3.6405,-3.6405,-3.6405,-3.648,-3.6933,-3.7036,-3.7136,-3.7688,-3.8241,-3.8743,-3.8894,-3.9245,-3.9697,-3.9697,-3.9697,-3.9645,-3.9438,-3.931,-3.9206,-3.8945,-3.8526,-3.8157,-3.8157,-3.8157,-3.8133,-3.808,-3.8027,-3.7974,-3.7974,-3.8185,-3.8368,-3.8421,-3.8579,-3.8736,-3.8788,-3.8788,-3.8788,-3.8788,-3.8788,-3.8841,-3.8893,-3.8893,-3.8942,-3.9093,-3.9355,-3.9708,-4.0202,-4.0492,-4.0542,-4.0351,-4.0442,-4.0526,-4.0526,-4.019,-3.9312,-3.7897,-3.675,-3.5698,-2.1619,-2.4556,-2.7656,-2.9528,-3.0708,-3.1562,-3.219,-3.2717,-3.3111,-3.3111,-3.3571,-3.3997,-3.3997,-3.4449,-3.4826,-3.4826,-3.4901,-3.4951,-3.4951,-3.4951,-3.4951,-3.4951,-3.4951,-3.4951,-3.4951,-3.4951,-3.4951,-3.4951,-3.4831,-3.4826,-3.4826,-3.4299,-3.3997,-3.3997,-3.3545,-3.3294,-3.3294,-3.3294,-3.3294,-3.3294,-3.4274,-3.4956,-3.5508,-3.6107,-3.6405,-3.6405,-3.6405,-3.6405,-3.6405,-3.6405,-3.6405,-3.6405,-3.6405,-3.6405,-3.6405,-3.6405,-3.6405,-3.6405,-3.648,-3.6505,-3.6606,-3.7111,-3.7663,-3.8216,-3.8718,-3.9245,-3.9697,-3.9697,-3.9697,-3.9697,-3.9645,-3.9465,-3.9258,-3.9258,-3.8945,-3.8684,-3.8684,-3.8684,-3.8631,-3.8421,-3.8133,-3.7974,-3.7974,-3.8027,-3.8133,-3.8368,-3.8421,-3.8526,-3.8788,-3.8788,-3.8788,-3.8788,-3.8788,-3.8893,-3.9206,-3.9206,-3.9534,-4.0217,-4.0295,-4.0492,-4.0749,-4.1068,-4.1293,-4.1469,-4.0843,-4.0526,-4.0526,-3.8977,-3.8128,-3.7897,-3.675,-3.6004,-2.2577,-2.5059,-2.7404,-2.9679,-3.0382,-3.0809,-3.1938,-3.2416,-3.2692,-3.3061,-3.3269,-3.3445,-3.3445,-3.3897,-3.4248,-3.4248,-3.4525,-3.468,-3.468,-3.468,-3.468,-3.468,-3.468,-3.468,-3.468,-3.468,-3.468,-3.468,-3.4424,-3.4248,-3.4248,-3.3746,-3.3445,-3.3445,-3.3194,-3.3111,-3.3111,-3.3111,-3.3111,-3.3136,-3.3872,-3.455,-3.5056,-3.5655,-3.6081,-3.6405,-3.6405,-3.6405,-3.6405,-3.6405,-3.6405,-3.6405,-3.6405,-3.6405,-3.6405,-3.6405,-3.6405,-3.6405,-3.6405,-3.6405,-3.6455,-3.6681,-3.7312,-3.8065,-3.8316,-3.8994,-3.9697,-3.9697,-3.9697,-3.9697,-3.9697,-3.9594,-3.9517,-3.9517,-3.9413,-3.931,-3.931,-3.905,-3.8788,-3.8631,-3.8526,-3.8473,-3.8473,-3.8631,-3.8788,-3.8893,-3.905,-3.9154,-3.9258,-3.931,-3.931,-3.931,-3.931,-3.9486,-3.9915,-3.9992,-4.0165,-4.0661,-4.0871,-4.1068,-4.132,-4.1618,-4.2003,-4.2443,-4.1777,-4.1081,-4.0403,-3.9996,-3.911,-3.7699,-3.698,-3.6678,-2.2728,-2.4682,-2.6298,-2.89,-2.9679,-3.0156,-3.1512,-3.2014,-3.234,-3.2767,-3.2968,-3.3111,-3.3111,-3.342,-3.3696,-3.3696,-3.4048,-3.4299,-3.4299,-3.4299,-3.4299,-3.4299,-3.4299,-3.4299,-3.4299,-3.4299,-3.4299,-3.4299,-3.3922,-3.3696,-3.3696,-3.3294,-3.3111,-3.3111,-3.3111,-3.3111,-3.3111,-3.3111,-3.3111,-3.3136,-3.3646,-3.4198,-3.4751,-3.5257,-3.5855,-3.6405,-3.6405,-3.6405,-3.6405,-3.6405,-3.6405,-3.6405,-3.6405,-3.6405,-3.6405,-3.6405,-3.6405,-3.6405,-3.6405,-3.6405,-3.6405,-3.6405,-3.701,-3.7814,-3.7965,-3.8693,-3.9521,-3.9647,-3.9697,-3.9697,-3.9697,-3.9697,-3.9697,-3.9697,-3.9697,-3.9697,-3.9697,-3.9258,-3.8945,-3.8945,-3.8841,-3.8788,-3.8788,-3.8998,-3.9206,-3.9258,-3.9465,-3.9696,-3.9898,-3.9898,-3.9948,-4.0099,-4.0124,-4.0275,-4.0701,-4.0727,-4.0846,-4.1234,-4.1422,-4.1672,-4.2002,-4.2248,-4.2615,-4.2961,-4.264,-4.1872,-4.0755,-4.0849,-3.9922,-3.8096,-3.7445,-3.7425,-2.0289,-2.2071,-2.3822,-2.6147,-2.8284,-2.9955,-3.0557,-3.1486,-3.2215,-3.224,-3.2692,-3.3111,-3.3111,-3.3093,-3.3162,-3.3162,-3.3187,-3.3169,-3.3169,-3.3169,-3.3169,-3.3169,-3.3169,-3.3169,-3.3169,-3.3169,-3.3169,-3.3169,-3.3187,-3.3162,-3.3162,-3.3136,-3.3111,-3.3111,-3.3111,-3.3111,-3.3111,-3.3111,-3.3111,-3.3136,-3.3646,-3.4198,-3.4751,-3.5257,-3.5855,-3.6405,-3.6405,-3.6405,-3.6405,-3.6405,-3.6405,-3.6405,-3.6405,-3.6405,-3.6405,-3.6405,-3.6405,-3.6405,-3.6405,-3.6405,-3.6405,-3.6405,-3.6807,-3.7337,-3.7839,-3.8442,-3.907,-3.9546,-3.9697,-3.9697,-3.9697,-3.9697,-3.9697,-3.9697,-3.9697,-3.9697,-3.9697,-3.949,-3.9258,-3.9258,-3.8998,-3.8788,-3.8788,-3.8788,-3.8945,-3.9258,-3.931,-3.9613,-4.0348,-4.0475,-4.0676,-4.115,-4.12,-4.12,-4.125,-4.125,-4.153,-4.2082,-4.2162,-4.2414,-4.2911,-4.2936,-4.2936,-4.2986,-4.2961,-4.2685,-4.2103,-4.0495,-3.9623,-3.9458,-3.8377,-3.8067,-1.9837,-2.1343,-2.312,-2.536,-2.6826,-2.8108,-2.9704,-3.0658,-3.1286,-3.1612,-3.2139,-3.2516,-3.2516,-3.2817,-3.3111,-3.3111,-3.3111,-3.3111,-3.3111,-3.3111,-3.3111,-3.3111,-3.3111,-3.3111,-3.3111,-3.3111,-3.3111,-3.3111,-3.3111,-3.3111,-3.3111,-3.3111,-3.3111,-3.3111,-3.3111,-3.3111,-3.3111,-3.3111,-3.3111,-3.3111,-3.3269,-3.3671,-3.4198,-3.4731,-3.5282,-3.5855,-3.6207,-3.6405,-3.6405,-3.6405,-3.6405,-3.6405,-3.6405,-3.6405,-3.6405,-3.6405,-3.6405,-3.6405,-3.6405,-3.6405,-3.6405,-3.6405,-3.7033,-3.7739,-3.7939,-3.8668,-3.9446,-3.9647,-3.9697,-3.9697,-3.9697,-3.9697,-3.9697,-3.9697,-3.9697,-3.9697,-3.9697,-3.9645,-3.9542,-3.9542,-3.949,-3.9486,-3.9835,-3.9885,-3.9962,-4.0067,-4.0367,-4.0595,-4.0526,-4.0774,-4.1075,-4.125,-4.1275,-4.148,-4.1831,-4.1856,-4.2108,-4.2715,-4.274,-4.2816,-4.2961,-4.2986,-4.2986,-4.2986,-4.2986,-4.2526,-4.1516,-4.1312,-4.0602,-3.9358,-3.9396,-3.9685,-1.9183,-2.0614,-2.2573,-2.4782,-2.5611,-2.654,-2.895,-2.9779,-3.0206,-3.0733,-3.1436,-3.1989,-3.219,-3.2516,-3.2842,-3.3086,-3.3111,-3.3111,-3.3111,-3.3111,-3.3111,-3.3111,-3.3111,-3.3111,-3.3111,-3.3111,-3.3111,-3.3111,-3.3111,-3.3111,-3.3111,-3.3111,-3.3111,-3.3111,-3.3111,-3.3111,-3.3111,-3.3111,-3.3111,-3.3111,-3.3111,-3.337,-3.3922,-3.4274,-3.4806,-3.5508,-3.5931,-3.6182,-3.6405,-3.6405,-3.6405,-3.6405,-3.6405,-3.6405,-3.6405,-3.6405,-3.6405,-3.6405,-3.6405,-3.6405,-3.6405,-3.6405,-3.6985,-3.7764,-3.7939,-3.8668,-3.9446,-3.9647,-3.9697,-3.9697,-3.9697,-3.9697,-3.9697,-3.9697,-3.9697,-3.9697,-3.9697,-3.9697,-3.9747,-3.9923,-3.9973,-4.0149,-4.0701,-4.0802,-4.0802,-4.0802,-4.105,-4.1225,-4.1078,-4.1379,-4.1681,-4.1856,-4.1882,-4.2032,-4.2464,-4.2489,-4.264,-4.2961,-4.2986,-4.2986,-4.2986,-4.2986,-4.2986,-4.2986,-4.2986,-4.2569,-4.1753,-4.2196,-4.1805,-4.05,-4.0967,-4.1411,0.0,0.0,0.0,0.0,-2.47,-2.5427,-2.8161,-2.8762,-2.8938,-2.9603,-3.0557,-3.1461,-3.2064,-3.219,-3.2365,-3.3011,-3.3111,-3.3111,-3.3111,-3.3111,-3.3111,-3.3111,-3.3111,-3.3111,-3.3111,-3.3111,-3.3111,-3.3111,-3.3111,-3.3111,-3.3111,-3.3111,-3.3111,-3.3111,-3.3111,-3.3111,-3.3111,-3.3111,-3.3111,-3.3111,-3.3111,-3.3345,-3.3872,-3.3897,-3.45,-3.5483,-3.5483,-3.5855,-3.6405,-3.6405,-3.6405,-3.6405,-3.6405,-3.6405,-3.6405,-3.6405,-3.6405,-3.6405,-3.6405,-3.6405,-3.643,-3.6405,-3.6807,-3.7337,-3.7839,-3.8417,-3.9019,-3.9546,-3.9697,-3.9697,-3.9697,-3.9697,-3.9697,-3.9697,-3.9697,-3.9697,-3.9722,-3.9722,-3.9873,-4.04,-4.0526,-4.0701,-4.12,-4.13,-4.13,-4.13,-4.1326,-4.158,-4.2137,-4.2213,-4.2439,-4.2911,-4.2986,-4.2986,-4.2986,-4.2986,-4.2986,-4.2986,-4.2986,-4.2986,-4.2986,-4.2986,-4.2986,-4.2986,-4.2986,-4.2986,-4.2986,-4.2986,-4.2986,-4.2986,-4.2986,-4.2986,-1.8807,0.0,0.0,0.0,0.0,0.0,0.0,-2.5929,-2.6465,-2.8222,-2.88,-2.9428,-3.0809,-3.1361,-3.1813,-3.2365,-3.2792,-3.3111,-3.3111,-3.3111,-3.3111,-3.3111,-3.3111,-3.3111,-3.3111,-3.3111,-3.3111,0.0,-3.3111,-3.3111,-3.3111,-3.3111,-3.3111,-3.3111,-3.3111,-3.3111,-3.3111,-3.3111,-3.3111,-3.3111,-3.3111,-3.3169,-3.3319,-3.3721,-3.4274,-3.4931,-3.5332,-3.5855,-3.6405,-3.6405,-3.6405,-3.6405,-3.6405,-3.6405,-3.6405,-3.6405,-3.6405,-3.6405,-3.6405,-3.6681,-3.6885,-3.6531,-3.7335,-3.8366,-3.809,-3.8693,-3.9496,-3.9647,-3.9697,-3.9697,-3.9697,-3.9697,-3.9697,-3.9697,-3.9697,-3.9798,-4.0199,-4.03,-4.0325,-4.0475,-4.0774,-4.1279,-4.1831,-4.1932,-4.1932,-4.1932,-4.2258,-4.2434,-4.2238,-4.2564,-4.2866,-4.2961,-4.2986,-4.2986,-4.2986,-4.2986,-4.2986,-4.2986,-4.2986,-4.2986,-4.2986,-4.2986,-4.2986,-4.2986,-4.2986,-4.2986,-4.2986,-4.2986,-4.2986,-4.2986,-4.2986,-4.2986,-1.9484,0.0,0.0,0.0,0.0,0.0,-2.4958,-2.4983,-2.5109,-2.7318,-2.777,-2.8197,-2.9654,-3.0357,-3.0909,-3.1461,-3.2014,-3.2583,-3.3061,-3.3111,-3.3111,-3.3111,-3.3111,-3.3111,-3.3111,-3.3111,-3.3111,-3.3111,-3.3111,-3.3111,-3.3111,-3.3111,-3.3111,-3.3111,-3.3111,-3.3111,-3.3111,-3.3111,-3.3111,-3.3111,-3.3111,-3.3111,-3.3136,-3.3395,-3.3972,-3.4751,-3.5006,-3.5655,-3.6405,-3.6405,-3.6405,-3.6405,-3.6405,-3.6405,-3.6405,-3.6405,-3.6405,-3.6405,-3.6405,-3.6782,-3.7086,-3.6581,-3.7536,-3.8818,-3.8191,-3.8793,-3.9697,-3.9697,-3.9697,-3.9697,-3.9697,-3.9697,-3.9697,-3.9697,-3.9697,-3.9848,-4.04,-4.0701,-4.0927,-4.1153,-4.1455,-4.1856,-4.2464,-4.2564,-4.2564,-4.2564,-4.2816,-4.2861,-4.259,-4.2841,-4.2986,-4.2986,-4.2986,-4.2986,-4.2986,-4.2986,-4.2986,-4.2986,-4.2986,-4.2986,-4.2986,-4.2986,-4.2986,-4.2986,-4.2986,-4.2986,-4.2986,-4.2986,-4.2986,-4.2986,-4.2986,-4.2986,-2.0338,-2.1167,0.0,0.0,-2.2723,0.0,-2.5292,-2.4865,-2.4406,0.0,-2.6917,-2.7293,-2.8524,-2.9176,-2.9704,-3.0256,-3.0834,-3.1612,-3.2742,-3.2943,-3.2993,-3.2993,-3.3086,-3.3111,-3.3111,-3.3111,-3.3111,-3.3111,-3.3111,-3.3111,-3.3111,-3.3111,-3.3111,-3.3111,-3.3111,-3.3111,-3.3111,-3.3111,-3.3111,-3.3111,-3.3111,-3.3111,-3.3111,-3.3111,-3.3671,-3.468,-3.468,-3.5353,-3.6405,-3.6405,-3.6405,-3.6405,-3.6405,-3.6405,-3.6405,-3.6405,-3.6405,-3.6405,-3.648,-3.6832,-3.7111,-3.6656,-3.7586,-3.8818,-3.8191,-3.8793,-3.9697,-3.9697,-3.9697,-3.9697,-3.9697,-3.9697,-3.9697,-3.9697,-3.9697,-3.9848,-4.0475,-4.0949,-4.153,-4.2187,-4.2313,-4.2464,-4.2886,-4.2986,-4.2986,-4.2986,-4.2986,-4.2986,-4.2986,-4.2986,-4.2986,-4.2986,-4.2986,-4.2986,-4.2986,-4.2986,-4.2986,-4.2986,-4.2986,-4.2986,-4.2986,-4.2986,-4.2986,-4.2986,-4.2986,-4.2986,-4.2986,-4.2986,-4.2986,-4.2986,-4.2986,-4.2986,-2.1798,-2.2071,-2.2372,-2.2573,-2.2694,0.0,-2.2523,-2.2548,-2.3025,0.0,-2.4632,-2.5234,-2.7243,-2.7695,-2.7946,-2.8499,-2.9453,-3.0482,-3.1562,-3.2089,-3.239,-3.239,-3.2792,-3.3111,-3.3111,-3.3111,-3.3111,-3.3111,-3.3111,-3.3111,-3.3111,-3.3111,-3.3111,-3.3111,-3.3111,-3.3111,-3.3111,-3.3111,-3.3111,-3.3111,-3.3111,-3.3111,-3.3111,-3.3111,-3.3671,-3.468,-3.468,-3.5353,-3.6405,-3.6405,-3.6405,-3.6405,-3.6405,-3.6405,-3.6405,-3.6405,-3.6405,-3.648,-3.686,-3.7086,-3.7161,-3.7061,-3.7913,-3.8818,-3.8191,-3.8793,-3.9697,-3.9697,-3.9697,-3.9697,-3.9697,-3.9697,-3.9697,-3.9697,-3.9697,-3.9973,-4.0899,-4.12,-4.163,-4.261,-4.2811,-4.2861,-4.2961,-4.2986,-4.2986,-4.2986,-4.2986,-4.2986,-4.2986,-4.2986,-4.2986,-4.2986,-4.2986,-4.2986,-4.2986,-4.2986,-4.2986,-4.2986,-4.2986,-4.2986,-4.2986,-4.2986,-4.2986,-4.2986,-4.2986,-4.2986,-4.2986,-4.2986,-4.2986,-4.2986,-4.2986,-4.2986,-2.2426,-2.2523,-2.2769,-2.3075,0.0,0.0,0.0,-2.2723,-2.2774,-2.4456,-2.413,-2.4155,-2.6088,-2.6239,-2.6314,-2.7178,-2.8222,-2.9151,-2.9679,-3.0934,-3.1813,-3.1813,-3.2064,-3.234,-3.2616,-3.2641,-3.2767,-3.3086,-3.3111,-3.3111,-3.3111,-3.3111,-3.3111,-3.3111,-3.3111,-3.3111,-3.3111,-3.3111,-3.3111,-3.3111,-3.3111,-3.3111,-3.3136,-3.337,-3.3947,-3.468,-3.4956,-3.5604,-3.6405,-3.6405,-3.6405,-3.6405,-3.6405,-3.6405,-3.6405,-3.6405,-3.6581,-3.6857,-3.7086,-3.7362,-3.7588,-3.7588,-3.8165,-3.8818,-3.8517,-3.9019,-3.9697,-3.9697,-3.9697,-3.9697,-3.9697,-3.9697,-3.9697,-3.9697,-3.9898,-4.0325,-4.11,-4.1555,-4.1982,-4.2811,-4.2986,-4.2986,-4.2986,-4.2986,-4.2986,-4.2986,-4.2986,-4.2986,-4.2986,-4.2986,-4.2986,-4.2986,-4.2986,-4.2986,-4.2986,-4.2986,-4.2986,-4.2986,-4.2986,-4.2986,-4.2986,-4.2986,-4.2986,-4.2986,-4.2986,-4.2986,-4.2986,-4.2986,-4.2986,-4.2986,-4.2986,-4.2986,-2.31,-2.3321,-2.3898,0.0,0.0,-2.3452,0.0,0.0,0.0,0.0,0.0,0.0,0.0,0.0,0.0,-2.5871,0.0,0.0,0.0,-2.9352,0.0,-3.0884,-3.111,-3.1411,-3.1863,-3.1813,-3.2039,-3.2692,-3.2667,-3.2692,-3.2893,-3.3061,-3.3111,-3.3111,-3.3111,-3.3111,-3.3111,-3.3111,-3.3111,-3.3111,-3.3111,-3.3111,-3.3136,-3.3646,-3.4198,-3.4705,-3.5257,-3.5855,-3.6405,-3.6405,-3.6405,-3.6405,-3.6405,-3.6405,-3.6405,-3.6405,-3.6757,-3.7186,-3.7312,-3.7563,-3.7889,-3.809,-3.8492,-3.8944,-3.9045,-3.9346,-3.9697,-3.9697,-3.9697,-3.9697,-3.9697,-3.9697,-3.9697,-3.9697,-4.0124,-4.0676,-4.1175,-4.1756,-4.2363,-4.2861,-4.2986,-4.2986,-4.2986,-4.2986,-4.2986,-4.2986,-4.2986,-4.2986,-4.2986,-4.2986,-4.2986,-4.2986,-4.2986,-4.2986,-4.2986,-4.2986,-4.2986,-4.2986,-4.2986,-4.2986,-4.2986,-4.2986,-4.2986,-4.2986,-4.2986,-4.2986,-4.2986,-4.2986,-4.2986,-4.2986,-4.2986,-4.2986,0.0,0.0,0.0,0.0,-2.536,0.0,0.0,0.0,-2.3602,-2.2849,0.0,0.0,0.0,0.0,0.0,0.0,0.0,0.0,-2.5963,-2.6967,-2.8122,-2.9063,-3.0105,-3.0733,-3.0783,-3.0357,-3.0482,-3.1512,-3.116,-3.1311,-3.2265,-3.2792,-3.3111,-3.3111,-3.3111,-3.3111,-3.3111,-3.3111,-3.3111,-3.3111,-3.3111,-3.3111,-3.3136,-3.3646,-3.4198,-3.4705,-3.5257,-3.5855,-3.6405,-3.6405,-3.6405,-3.6405,-3.6405,-3.6405,-3.6405,-3.6405,-3.6757,-3.7262,-3.7739,-3.7638,-3.7437,-3.8442,-3.8818,-3.902,-3.9446,-3.9647,-3.9697,-3.9697,-3.9697,-3.9697,-3.9697,-3.9697,-3.9697,-3.9697,-4.0124,-4.0676,-4.1175,-4.1756,-4.2363,-4.2861,-4.2986,-4.2986,-4.2986,-4.2986,-4.2986,-4.2986,-4.2986,-4.2986,-4.2986,-4.2986,-4.2986,-4.2986,-4.2986,-4.2986,-4.2986,-4.2986,-4.2986,-4.2986,-4.2986,-4.2986,-4.2986,-4.2986,-4.2986,-4.2986,-4.2986,-4.2986,-4.2986,-4.2986,-4.2986,-4.2986,-4.2986,-4.2986,0.0,0.0,0.0,0.0,0.0,0.0,-2.3753,0.0,-2.3421,0.0,0.0,0.0,0.0,0.0,0.0,0.0,-2.4858,0.0,0.0,0.0,-2.649,-2.8247,0.0,0.0,-2.9515,-2.9729,-3.0105,-3.0884,-3.0432,-3.0608,-3.1687,-3.2265,-3.2742,-3.3111,-3.3111,-3.3111,-3.3111,-3.3111,-3.3111,-3.3111,-3.3111,-3.3111,-3.3119,-3.3972,-3.45,-3.4731,-3.5655,-3.6157,-3.6405,-3.6405,-3.6405,-3.6405,-3.6405,-3.6405,-3.6455,-3.6782,-3.7186,-3.7688,-3.7914,-3.7864,-3.7739,-3.8216,-3.8818,-3.9396,-3.9622,-3.9697,-3.9697,-3.9697,-3.9697,-3.9697,-3.9697,-3.9697,-3.9772,-4.0099,-4.0601,-4.1153,-4.1706,-4.2258,-4.2766,-4.2936,-4.2986,-4.2986,-4.2986,-4.2986,-4.2986,-4.2986,-4.2986,-4.2986,-4.2986,-4.2986,-4.2986,-4.2986,-4.2986,-4.2986,-4.2986,-4.2986,-4.2986,-4.2986,-4.2986,-4.2986,-4.2986,-4.2986,-4.2986,-4.2986,-4.2986,-4.2986,-4.2986,-4.2986,-4.2986,-4.2986,-4.2986,-4.2986,-2.5711,0.0,0.0,0.0,0.0,0.0,0.0,0.0,0.0,0.0,0.0,0.0,0.0,0.0,0.0,0.0,0.0,-2.46,0.0,-2.4205,0.0,0.0,0.0,0.0,0.0,-2.8674,-2.9001,-2.9854,-2.9277,-2.9478,-3.0884,-3.1612,-3.224,-3.2817,-3.2993,-3.3111,-3.3111,-3.3111,-3.3111,-3.3111,-3.3111,-3.3169,-3.3345,-3.4299,-3.4756,-3.4956,-3.5956,-3.6405,-3.6405,-3.6405,-3.6405,-3.6405,-3.6405,-3.6405,-3.648,-3.6985,-3.7538,-3.8015,-3.8015,-3.8115,-3.8241,-3.8241,-3.8894,-3.9697,-3.9697,-3.9697,-3.9697,-3.9697,-3.9697,-3.9697,-3.9697,-3.9798,-4.0023,-4.0425,-4.1053,-4.1681,-4.2137,-4.264,-4.2986,-4.2986,-4.2986,-4.2986,-4.2986,-4.2986,-4.2986,-4.2986,-4.2986,-4.2986,-4.2986,-4.2986,-4.2986,-4.2986,-4.2986,-4.2986,-4.2986,-4.2986,-4.2986,-4.2986,-4.2986,-4.2986,-4.2986,-4.2986,-4.2986,-4.2986,-4.2986,-4.2986,-4.2986,-4.2986,-4.2986,-4.2986,-4.2986,-4.2986,0.0,0.0,0.0,-2.5728,0.0,0.0,0.0,0.0,-2.5234,0.0,0.0,0.0,0.0,0.0,0.0,0.0,0.0,0.0,0.0,0.0,0.0,0.0,0.0,0.0,0.0,-2.6666,-2.6414,-2.8072,-2.7203,-2.7555,-2.9729,-3.0834,-3.1662,-3.2215,-3.2792,-3.3111,-3.3111,-3.3111,-3.3111,-3.3111,-3.3111,-3.3345,-3.3897,-3.4449,-3.4956,-3.5508,-3.6107,-3.6405,-3.6405,-3.6405,-3.6405,-3.6405,-3.6405,-3.6405,-3.648,-3.6985,-3.7538,-3.8015,-3.8015,-3.8366,-3.8894,-3.8894,-3.922,-3.9697,-3.9697,-3.9697,-3.9697,-3.9697,-3.9697,-3.9697,-3.9697,-4.0099,-4.0501,-4.0501,-4.1354,-4.2187,-4.2213,-4.264,-4.2986,-4.2986,-4.2986,-4.2986,-4.2986,-4.2986,-4.2986,-4.2986,-4.2986,-4.2986,-4.2986,-4.2986,-4.2986,-4.2986,-4.2986,-4.2986,-4.2986,-4.2986,-4.2986,-4.2986,-4.2986,-4.2986,-4.2986,-4.2986,-4.2986,-4.2986,-4.2986,-4.2986,-4.2986,-4.2986,-4.2986,-4.2986,-4.2986,-4.2986,-2.9101,-3.0005,-3.0457,-2.7695,0.0,0.0,0.0,0.0,0.0,0.0,0.0,0.0,0.0,0.0,0.0,0.0,0.0,0.0,0.0,0.0,0.0,0.0,0.0,0.0,0.0,0.0,-2.6424,-2.7002,-2.67,-2.7304,-2.9126,-3.0281,-3.1286,-3.219,-3.2767,-3.3111,-3.3111,-3.3111,-3.3111,-3.3111,-3.3111,-3.337,-3.3922,-3.4474,-3.4981,-3.5533,-3.6132,-3.6405,-3.6405,-3.6405,-3.6405,-3.6405,-3.6405,-3.6631,-3.696,-3.7513,-3.7839,-3.8065,-3.8442,-3.8718,-3.8919,-3.8919,-3.9245,-3.9697,-3.9697,-3.9697,-3.9697,-3.9697,-3.9697,-3.9772,-4.0149,-4.0375,-4.0701,-4.143,-4.1936,-4.2313,-4.2665,-4.2836,-4.2986,-4.2986,-4.2986,-4.2986,-4.2986,-4.2986,-4.2986,-4.2986,-4.2986,-4.2986,-4.2986,-4.2986,-4.2986,-4.2986,-4.2986,-4.2986,-4.2986,-4.2986,-4.2986,-4.2986,-4.2986,-4.2986,-4.2986,-4.2986,-4.2986,-4.2986,-4.2986,-4.2986,-4.2986,-4.2986,-4.2986,-4.2986,-4.2986,-4.2986,-3.0181,-3.0859,-3.116,-2.895,-2.8699,0.0,-2.6189,0.0,-2.6866,0.0,0.0,0.0,0.0,0.0,0.0,0.0,0.0,0.0,0.0,-2.1568,0.0,0.0,0.0,0.0,0.0,-2.5209,-2.5644,-2.6424,-2.5946,-2.6389,0.0,-2.9603,-3.0733,-3.1612,-3.2566,-3.3111,-3.3111,-3.3111,-3.3111,-3.3111,-3.3269,-3.3671,-3.4198,-3.4731,-3.5282,-3.5855,-3.6207,-3.6405,-3.6405,-3.6405,-3.6405,-3.6405,-3.6405,-3.6757,-3.7236,-3.7789,-3.814,-3.8366,-3.8793,-3.8919,-3.8944,-3.9094,-3.9396,-3.9697,-3.9697,-3.9697,-3.9697,-3.9697,-3.9848,-4.0074,-4.0425,-4.0802,-4.1279,-4.2037,-4.2363,-4.259,-4.2911,-4.2986,-4.2986,-4.2986,-4.2986,-4.2986,-4.2986,-4.2986,-4.2986,-4.2986,-4.2986,-4.2986,-4.2986,-4.2986,-4.2986,-4.2986,-4.2986,-4.2986,-4.2986,-4.2986,-4.2986,-4.2986,-4.2986,-4.2986,-4.2986,-4.2986,-4.2986,-4.2986,-4.2986,-4.2986,-4.2986,-4.2986,-4.2986,-4.2986,-4.2986,-4.2986]},{"header":{"parameterUnit":"m.s-1","parameterCategory":1,"la1":30.6,"la2":29.2853,"lo1":-89.7004,"lo2":-87.6739,"dy":0.0162,"dx":0.0183,"nx":112,"ny":82,"refTime":"2026-03-01T12:00:00:Z","depth":0,"parameterNumber":3,"parameterNumberName":"V-component_of_WINDS"},"data":[0.0,0.0,0.0,0.0,0.0,0.0,0.0,0.0,0.0,0.0,0.0,0.0,0.0,0.0,0.0,0.0,0.0,0.0,0.0,0.0,0.0,0.0,0.0,0.0,0.0,0.0,0.0,0.0,0.0,0.0,0.0,0.0,0.0,0.0,0.0,0.0,0.0,0.0,0.0,0.0,0.0,0.0,0.0,0.0,0.0,0.0,0.0,0.0,0.0,0.0,0.0,0.0,0.0,0.0,0.0,0.0,0.0,0.0,0.0,0.0,0.0,0.0,0.0,0.0,0.0,0.0,0.0,0.0,0.0,0.0,0.0,0.0,0.0,0.0,0.0,0.0,0.0,0.0,0.0,0.0,0.0,0.0,0.0,0.0,0.0,0.0,0.0,0.0,0.0,0.0,2.6976,2.8916,3.1699,3.3186,3.2641,3.2387,3.087,2.7708,0.0,0.0,0.0,0.0,0.0,0.0,0.0,0.0,0.0,0.0,0.0,0.0,0.0,0.0,0.0,0.0,0.0,0.0,0.0,0.0,0.0,0.0,0.0,0.0,0.0,0.0,0.0,0.0,0.0,0.0,0.0,0.0,0.0,0.0,0.0,0.0,0.0,0.0,0.0,0.0,0.0,0.0,0.0,0.0,0.0,0.0,0.0,0.0,0.0,0.0,0.0,0.0,0.0,0.0,0.0,0.0,0.0,0.0,0.0,0.0,0.0,0.0,0.0,0.0,0.0,0.0,0.0,0.0,0.0,0.0,0.0,0.0,0.0,0.0,0.0,0.0,0.0,0.0,0.0,0.0,0.0,0.0,0.0,0.0,0.0,0.0,0.0,0.0,0.0,0.0,0.0,0.0,0.0,0.0,0.0,0.0,0.0,0.0,0.0,0.0,0.0,0.0,0.0,0.0,2.7922,3.1972,3.3347,3.3942,3.3813,3.2716,3.125,2.9422,0.0,0.0,0.0,0.0,0.0,0.0,0.0,0.0,0.0,0.0,0.0,0.0,0.0,0.0,0.0,0.0,0.0,0.0,0.0,0.0,0.0,0.0,0.0,0.0,0.0,0.0,0.0,0.0,0.0,0.0,0.0,0.0,0.0,0.0,0.0,0.0,0.0,0.0,0.0,0.0,0.0,0.0,0.0,0.0,0.0,0.0,0.0,0.0,0.0,0.0,0.0,0.0,0.0,0.0,0.0,0.0,0.0,0.0,0.0,0.0,0.0,0.0,0.0,0.0,0.0,0.0,0.0,0.0,0.0,0.0,0.0,0.0,0.0,0.0,0.0,0.0,0.0,0.0,0.0,0.0,0.0,0.0,0.0,0.0,0.0,0.0,0.0,0.0,0.0,0.0,0.0,0.0,0.0,0.0,0.0,0.0,0.0,0.0,0.0,0.0,0.0,0.0,0.0,2.6801,2.9178,3.2763,3.3729,3.4101,3.4101,3.3186,3.1778,2.9832,2.7518,0.0,0.0,0.0,0.0,0.0,0.0,0.0,0.0,0.0,0.0,0.0,0.0,0.0,0.0,0.0,0.0,0.0,0.0,0.0,0.0,0.0,0.0,0.0,0.0,0.0,0.0,0.0,0.0,0.0,0.0,0.0,0.0,0.0,0.0,0.0,0.0,0.0,0.0,0.0,0.0,0.0,0.0,0.0,0.0,0.0,0.0,0.0,0.0,0.0,0.0,0.0,0.0,0.0,0.0,0.0,0.0,0.0,0.0,0.0,0.0,0.0,0.0,0.0,0.0,0.0,0.0,0.0,0.0,0.0,0.0,0.0,0.0,0.0,0.0,0.0,0.0,0.0,0.0,0.0,0.0,0.0,0.0,0.0,0.0,0.0,0.0,0.0,0.0,0.0,0.0,0.0,0.0,0.0,0.0,0.0,0.0,0.0,0.0,0.0,0.0,0.0,0.0,2.9246,3.0631,3.3336,3.4023,3.43,3.43,3.3323,3.1908,3.001,2.7433,0.0,0.0,0.0,0.0,0.0,0.0,0.0,0.0,0.0,0.0,0.0,0.0,0.0,0.0,0.0,0.0,0.0,0.0,0.0,0.0,0.0,0.0,0.0,0.0,0.0,0.0,0.0,0.0,0.0,0.0,0.0,0.0,0.0,0.0,0.0,0.0,0.0,0.0,0.0,0.0,0.0,0.0,0.0,0.0,0.0,0.0,0.0,0.0,0.0,0.0,0.0,0.0,0.0,0.0,0.0,0.0,0.0,0.0,0.0,0.0,0.0,0.0,0.0,0.0,0.0,0.0,0.0,0.0,0.0,0.0,0.0,0.0,0.0,0.0,0.0,0.0,0.0,0.0,0.0,0.0,0.0,0.0,0.0,0.0,0.0,0.0,0.0,0.0,0.0,0.0,0.0,0.0,0.0,0.0,0.0,0.0,0.0,0.0,0.0,0.0,0.0,0.0,3.0067,3.2288,3.4537,3.4802,3.4835,3.4835,3.2927,3.133,3.0387,2.6921,0.0,0.0,0.0,0.0,0.0,0.0,0.0,0.0,0.0,0.0,0.0,0.0,0.0,0.0,0.0,0.0,0.0,0.0,0.0,0.0,0.0,0.0,0.0,0.0,0.0,0.0,0.0,0.0,0.0,0.0,0.0,0.0,0.0,0.0,0.0,0.0,0.0,0.0,0.0,0.0,0.0,0.0,0.0,0.0,0.0,0.0,0.0,0.0,0.0,0.0,0.0,0.0,0.0,0.0,0.0,0.0,0.0,0.0,0.0,0.0,0.0,0.0,0.0,0.0,0.0,0.0,0.0,0.0,0.0,0.0,0.0,0.0,0.0,0.0,0.0,0.0,0.0,0.0,0.0,0.0,0.0,0.0,0.0,0.0,0.0,0.0,0.0,0.0,0.0,0.0,0.0,0.0,0.0,0.0,0.0,0.0,0.0,0.0,0.0,0.0,0.0,0.0,2.984,3.1946,0.0,3.4883,3.4883,3.4883,3.3723,3.2023,2.9857,0.0,0.0,0.0,0.0,0.0,0.0,0.0,0.0,0.0,0.0,0.0,0.0,0.0,0.0,0.0,0.0,0.0,0.0,0.0,0.0,0.0,0.0,0.0,0.0,0.0,0.0,0.0,0.0,0.0,0.0,0.0,0.0,0.0,0.0,0.0,0.0,0.0,0.0,0.0,0.0,0.0,0.0,0.0,0.0,0.0,0.0,0.0,0.0,0.0,0.0,0.0,0.0,0.0,0.0,0.0,0.0,0.0,0.0,0.0,0.0,0.0,0.0,0.0,0.0,0.0,0.0,0.0,0.0,0.0,0.0,0.0,0.0,0.0,0.0,0.0,0.0,0.0,0.0,0.0,0.0,0.0,0.0,0.0,0.0,0.0,0.0,0.0,0.0,0.0,0.0,0.0,0.0,0.0,0.0,0.0,0.0,0.0,0.0,0.0,0.0,0.0,0.0,2.8078,3.0046,3.2166,0.0,3.4684,3.4551,3.4551,3.3458,3.1681,2.9171,0.0,0.0,0.0,0.0,0.0,0.0,0.0,0.0,0.0,0.0,0.0,0.0,0.0,0.0,0.0,0.0,0.0,0.0,0.0,0.0,0.0,0.0,0.0,0.0,0.0,0.0,0.0,0.0,0.0,0.0,0.0,0.0,0.0,0.0,0.0,0.0,0.0,0.0,0.0,0.0,0.0,0.0,0.0,0.0,0.0,0.0,0.0,0.0,0.0,0.0,0.0,0.0,0.0,0.0,0.0,0.0,0.0,0.0,0.0,0.0,0.0,0.0,0.0,0.0,0.0,0.0,0.0,0.0,0.0,0.0,0.0,0.0,0.0,0.0,0.0,0.0,0.0,0.0,0.0,0.0,0.0,0.0,0.0,0.0,0.0,0.0,0.0,0.0,0.0,0.0,0.0,0.0,0.0,0.0,0.0,0.0,0.0,0.0,0.0,0.0,0.0,0.0,2.821,3.0928,3.3282,3.475,3.422,3.3789,3.3789,3.1802,2.9914,0.0,0.0,0.0,0.0,0.0,0.0,0.0,0.0,0.0,0.0,0.0,0.0,0.0,0.0,0.0,0.0,0.0,0.0,0.0,0.0,0.0,0.0,0.0,0.0,0.0,0.0,0.0,0.0,0.0,0.0,0.0,0.0,0.0,0.0,0.0,0.0,0.0,0.0,0.0,0.0,0.0,0.0,0.0,0.0,0.0,0.0,0.0,0.0,0.0,0.0,0.0,0.0,0.0,0.0,0.0,0.0,0.0,0.0,0.0,0.0,0.0,0.0,0.0,0.0,0.0,0.0,0.0,0.0,0.0,0.0,0.0,0.0,0.0,0.0,0.0,0.0,0.0,0.0,0.0,0.0,0.0,0.0,0.0,0.0,0.0,0.0,0.0,0.0,0.0,0.0,0.0,0.0,0.0,0.0,0.0,0.0,0.0,0.0,0.0,0.0,0.0,0.0,0.0,2.8144,3.0928,3.3282,3.475,3.422,3.3789,3.3789,3.2266,3.0245,2.7779,0.0,0.0,0.0,0.0,0.0,0.0,0.0,0.0,0.0,0.0,0.0,0.0,0.0,0.0,0.0,0.0,0.0,0.0,0.0,0.0,0.0,0.0,0.0,0.0,0.0,0.0,0.0,0.0,0.0,0.0,0.0,0.0,0.0,0.0,0.0,0.0,0.0,0.0,0.0,0.0,0.0,0.0,0.0,0.0,0.0,0.0,0.0,0.0,0.0,0.0,0.0,0.0,0.0,0.0,0.0,0.0,0.0,0.0,0.0,0.0,0.0,0.0,0.0,0.0,0.0,0.0,0.0,0.0,0.0,0.0,0.0,0.0,0.0,0.0,0.0,0.0,0.0,0.0,0.0,0.0,0.0,0.0,0.0,0.0,0.0,0.0,0.0,0.0,0.0,0.0,0.0,0.0,0.0,0.0,0.0,0.0,0.0,0.0,0.0,0.0,0.0,0.0,2.8144,3.0928,3.3282,3.475,3.3955,3.3381,3.3381,3.2034,2.9926,2.7031,0.0,0.0,0.0,0.0,0.0,0.0,0.0,0.0,0.0,0.0,0.0,0.0,0.0,0.0,0.0,0.0,0.0,0.0,0.0,0.0,0.0,0.0,0.0,0.0,0.0,0.0,0.0,0.0,0.0,0.0,0.0,0.0,0.0,0.0,0.0,0.0,0.0,0.0,0.0,0.0,0.0,0.0,0.0,0.0,0.0,0.0,0.0,0.0,0.0,0.0,0.0,0.0,0.0,0.0,0.0,0.0,0.0,0.0,0.0,0.0,0.0,0.0,0.0,0.0,0.0,0.0,0.0,0.0,0.0,0.0,0.0,0.0,0.0,0.0,0.0,0.0,0.0,0.0,0.0,0.0,0.0,0.0,0.0,0.0,0.0,0.0,0.0,0.0,0.0,0.0,0.0,0.0,0.0,0.0,0.0,0.0,0.0,0.0,0.0,0.0,0.0,0.0,2.8276,3.0962,3.3282,3.475,3.3557,3.2718,3.2718,3.1371,2.9297,2.6483,0.0,0.0,0.0,0.0,0.0,0.0,0.0,0.0,0.0,0.0,0.0,0.0,0.0,0.0,0.0,0.0,0.0,0.0,0.0,0.0,0.0,0.0,0.0,0.0,0.0,0.0,0.0,0.0,0.0,0.0,0.0,0.0,0.0,0.0,0.0,0.0,0.0,0.0,0.0,0.0,0.0,0.0,0.0,0.0,0.0,0.0,0.0,0.0,0.0,0.0,0.0,0.0,0.0,0.0,0.0,0.0,0.0,0.0,0.0,0.0,2.8475,0.0,0.0,0.0,0.0,0.0,0.0,0.0,0.0,0.0,0.0,0.0,0.0,0.0,0.0,0.0,0.0,0.0,0.0,0.0,0.0,0.0,0.0,0.0,0.0,0.0,0.0,0.0,0.0,0.0,0.0,0.0,0.0,0.0,0.0,0.0,0.0,0.0,0.0,0.0,0.0,0.0,2.8853,3.1239,3.3282,3.475,3.3557,3.2718,3.2718,3.1371,2.9516,2.7216,2.5971,0.0,0.0,0.0,0.0,0.0,0.0,0.0,0.0,0.0,0.0,0.0,0.0,0.0,0.0,0.0,0.0,0.0,0.0,0.0,0.0,0.0,0.0,0.0,0.0,0.0,0.0,0.0,0.0,0.0,0.0,0.0,0.0,0.0,0.0,0.0,0.0,0.0,0.0,0.0,0.0,0.0,0.0,0.0,0.0,0.0,0.0,0.0,0.0,0.0,0.0,0.0,0.0,0.0,0.0,0.0,0.0,0.0,0.0,0.0,0.0,3.0531,0.0,0.0,0.0,0.0,0.0,0.0,0.0,0.0,0.0,0.0,0.0,0.0,0.0,0.0,0.0,0.0,0.0,0.0,0.0,0.0,0.0,0.0,0.0,0.0,0.0,0.0,0.0,0.0,0.0,0.0,0.0,0.0,0.0,0.0,0.0,0.0,0.0,0.0,0.0,0.0,2.9099,3.1636,3.3657,3.4783,3.3557,3.2718,3.2718,3.1371,2.9582,2.7448,2.6586,0.0,0.0,0.0,0.0,0.0,0.0,0.0,0.0,0.0,0.0,0.0,0.0,0.0,0.0,0.0,0.0,0.0,0.0,0.0,0.0,0.0,0.0,0.0,0.0,0.0,0.0,0.0,0.0,0.0,0.0,0.0,0.0,0.0,0.0,0.0,0.0,0.0,0.0,0.0,0.0,0.0,0.0,0.0,0.0,0.0,0.0,0.0,0.0,0.0,0.0,0.0,0.0,0.0,3.4466,3.5162,3.5229,3.6456,3.7326,3.7731,3.5461,3.4475,3.4419,3.2839,0.0,0.0,0.0,0.0,0.0,0.0,0.0,0.0,0.0,0.0,0.0,0.0,0.0,0.0,0.0,0.0,0.0,0.0,0.0,0.0,0.0,0.0,0.0,0.0,3.1461,3.055,2.7208,0.0,0.0,0.0,0.0,0.0,0.0,0.0,0.0,0.0,0.0,0.0,2.9602,3.2077,3.4024,3.4864,3.3736,3.2873,3.2718,3.147,2.9847,2.7779,2.7547,2.6321,0.0,0.0,0.0,0.0,0.0,0.0,0.0,0.0,0.0,0.0,0.0,0.0,0.0,0.0,0.0,0.0,0.0,0.0,0.0,0.0,0.0,0.0,0.0,0.0,0.0,0.0,0.0,0.0,0.0,0.0,0.0,0.0,2.6496,2.7897,0.0,0.0,0.0,0.0,0.0,0.0,0.0,0.0,0.0,0.0,0.0,0.0,0.0,3.3173,3.4521,3.653,3.7878,3.8648,4.0021,4.0667,4.0667,4.0867,4.0917,4.0878,4.1283,0.0,3.7466,3.5346,0.0,0.0,0.0,0.0,0.0,0.0,0.0,0.0,0.0,0.0,0.0,0.0,0.0,0.0,0.0,0.0,0.0,0.0,0.0,0.0,0.0,0.0,3.4443,3.3907,3.3773,3.3471,0.0,2.9183,2.6721,2.692,2.5531,0.0,0.0,0.0,0.0,0.0,0.0,0.0,3.1054,3.2472,3.3695,3.4938,3.4339,3.3528,3.2752,3.1934,3.0787,2.9218,2.8575,2.7779,2.6752,2.4779,0.0,0.0,0.0,0.0,0.0,0.0,0.0,0.0,0.0,0.0,0.0,0.0,0.0,0.0,0.0,0.0,0.0,0.0,0.0,0.0,0.0,0.0,0.0,0.0,0.0,0.0,0.0,0.0,0.0,2.6665,2.8911,2.9067,2.9758,2.945,0.0,0.0,0.0,0.0,0.0,0.0,0.0,0.0,0.0,3.3863,3.5746,3.7476,3.8992,4.0373,4.1446,4.2183,4.3198,4.3671,4.3676,4.4077,4.4248,4.419,4.4582,4.4015,4.246,3.8837,3.6514,3.4991,0.0,0.0,0.0,0.0,3.3006,3.3072,3.5352,3.5652,3.4951,3.4451,0.0,0.0,0.0,0.0,0.0,0.0,0.0,3.2458,0.0,0.0,3.6161,3.6262,3.6295,3.6194,3.5857,3.3566,3.1052,0.0,2.8453,2.7295,2.4693,0.0,0.0,0.0,0.0,2.9761,3.2214,3.3595,3.4565,3.5155,3.4553,3.3985,3.3584,3.2495,3.1362,3.0316,2.9582,2.8848,2.8115,2.6747,2.5697,0.0,0.0,0.0,0.0,0.0,0.0,0.0,0.0,0.0,0.0,0.0,0.0,0.0,0.0,0.0,0.0,0.0,0.0,0.0,0.0,0.0,0.0,0.0,0.0,0.0,0.0,0.0,0.0,2.8714,3.0613,3.0112,3.1361,3.1215,0.0,0.0,0.0,0.0,0.0,0.0,3.3091,3.5237,3.6846,3.7834,3.9822,4.1527,4.2864,4.3603,4.4241,4.4778,4.5291,4.5526,4.5559,4.6099,4.6304,4.6307,4.6334,4.6304,4.6006,4.1927,3.9335,3.7745,3.6109,3.5178,3.4935,3.6041,3.6444,3.6779,3.9134,3.9502,3.8765,3.8028,3.6578,3.4656,3.2249,0.0,0.0,0.0,0.0,3.4486,3.5802,3.6726,3.7506,3.8058,3.8193,3.8193,3.8193,3.7144,3.5239,0.0,3.1355,3.0249,2.6656,0.0,0.0,0.0,0.0,3.1556,3.3235,3.441,3.5182,3.5304,3.4857,3.4432,3.4209,3.3203,3.2165,3.1227,3.0691,3.0054,2.9283,2.8546,2.7809,2.7072,0.0,0.0,0.0,0.0,0.0,0.0,0.0,0.0,0.0,0.0,0.0,0.0,0.0,0.0,0.0,0.0,0.0,0.0,0.0,0.0,0.0,0.0,0.0,0.0,0.0,0.0,0.0,0.0,0.0,3.1853,3.3067,0.0,0.0,0.0,0.0,3.1884,3.4555,3.6199,3.6185,3.8263,4.0217,4.1762,4.3283,4.4518,4.5505,4.6215,4.665,4.6684,4.6507,4.6447,4.6417,4.6451,4.6424,4.6337,4.6424,4.6424,4.6106,4.3796,4.2758,4.2423,4.0273,3.9402,3.9368,3.9435,3.9469,3.9603,4.0467,4.0266,3.9871,4.1178,3.9747,3.736,3.6542,3.5329,0.0,0.0,3.596,3.6806,3.7584,3.8328,3.8903,3.8937,3.8937,3.8937,3.8937,3.8328,3.729,0.0,3.366,3.1914,3.0923,0.0,3.0003,3.0543,3.0891,3.1881,3.4049,3.444,3.4778,3.5407,3.5475,3.5093,3.4276,3.4142,3.3471,3.2031,3.1909,3.1562,3.0825,3.0087,2.9331,2.8613,2.7106,0.0,0.0,0.0,0.0,0.0,0.0,0.0,0.0,0.0,0.0,0.0,0.0,0.0,0.0,0.0,0.0,0.0,0.0,0.0,0.0,0.0,0.0,0.0,0.0,0.0,0.0,0.0,0.0,3.5283,3.6647,0.0,3.5603,3.6185,3.6769,3.7066,3.8975,4.0347,4.0871,4.2591,4.3833,4.4395,4.5409,4.6287,4.7124,4.7394,4.7767,4.8206,4.8146,4.8115,4.8115,4.8115,4.8084,4.8054,4.8084,4.8084,4.7953,4.6675,4.5505,4.4409,4.3132,4.2745,4.2854,4.2854,4.313,4.3603,4.3872,4.3468,4.2692,4.1782,4.0762,3.9809,3.9091,3.8473,3.8261,3.8956,3.9386,3.9783,4.0527,4.0933,4.1102,4.1102,4.0764,4.0426,4.0426,3.9445,3.843,3.7889,3.596,3.4011,3.2773,3.2367,3.211,3.1854,3.2651,3.3753,3.5014,3.5194,3.5295,3.5554,3.5554,3.5431,3.5116,3.4666,3.3958,3.2959,3.2474,3.207,3.182,3.1092,3.0586,3.0316,2.8866,2.6657,0.0,0.0,0.0,0.0,0.0,0.0,0.0,0.0,0.0,0.0,0.0,0.0,0.0,0.0,0.0,0.0,0.0,0.0,0.0,0.0,0.0,0.0,0.0,0.0,0.0,3.3555,3.6098,3.717,3.8905,3.9577,3.8405,3.9463,4.0456,4.1066,4.2719,4.3827,4.4153,4.5399,4.621,4.6447,4.6921,4.753,4.8244,4.8274,4.8545,4.9018,4.9018,4.9018,4.9018,4.9018,4.9018,4.9018,4.9018,4.9018,4.8951,4.8477,4.7609,4.6507,4.5525,4.5211,4.5359,4.5359,4.5635,4.6075,4.6075,4.5737,4.5026,4.3301,4.2557,4.2219,4.1441,4.106,4.0959,4.1441,4.1576,4.1677,4.2151,4.2286,4.2286,4.2286,4.1914,4.1576,4.1576,4.0595,3.9749,3.9749,3.7922,3.6073,3.5115,3.4912,3.4742,3.4235,3.5013,3.5723,3.596,3.5994,3.5926,3.5633,3.56,3.56,3.56,3.5148,3.4573,3.3829,3.3085,3.2564,3.2327,3.1582,3.119,3.119,2.9465,2.7486,2.5218,0.0,0.0,0.0,0.0,0.0,0.0,0.0,0.0,0.0,0.0,0.0,0.0,0.0,0.0,0.0,0.0,0.0,0.0,0.0,0.0,0.0,0.0,0.0,3.1027,3.4706,3.7394,3.7519,3.9655,4.0853,4.0171,4.2172,4.3511,4.3511,4.5568,4.6515,4.5805,4.6481,4.7192,4.7906,4.7939,4.8308,4.9018,4.9052,4.9086,4.9086,4.9086,4.9086,4.9086,4.9052,4.9052,4.9052,4.9018,4.9018,4.9018,4.9018,4.9018,4.8849,4.7428,4.6853,4.6853,4.6853,4.6853,4.6853,4.6819,4.6819,4.6718,4.5974,4.5229,4.4547,4.3741,4.2997,4.2422,4.2388,4.2388,4.2388,4.2354,4.2354,4.2354,4.2354,4.2354,4.232,4.232,4.1745,4.1238,4.1238,3.9478,3.799,3.7956,3.7922,3.7922,3.7922,3.7922,0.0,3.6931,3.6829,3.6535,3.5769,3.5633,3.5633,3.5633,3.56,3.5284,3.4506,3.3795,3.3085,3.2327,3.1582,3.119,3.119,2.8973,2.7503,2.6759,0.0,0.0,0.0,0.0,0.0,0.0,0.0,0.0,0.0,0.0,0.0,0.0,0.0,0.0,0.0,0.0,0.0,0.0,0.0,0.0,0.0,3.2329,3.5021,3.5497,3.7461,3.974,4.2104,4.3457,4.4384,4.4834,4.55,4.5872,4.5872,4.6955,4.753,4.7297,4.8003,4.8477,4.8714,4.9221,4.9593,4.9796,5.0338,5.0608,5.0608,5.0608,5.0608,5.0608,5.0033,4.9796,4.9763,4.9221,4.9018,4.9018,4.9018,4.9018,4.8951,4.8545,4.8409,4.8409,4.8409,4.8409,4.8308,4.78,4.7597,4.7496,4.6752,4.6346,4.6143,4.594,4.5703,4.5432,4.4925,4.4756,4.4654,4.4107,4.3972,4.3972,4.3972,4.3504,4.3098,4.3098,4.2523,4.1982,4.1982,4.1068,3.9952,3.887,3.8261,3.7922,3.7922,3.7922,0.0,3.7618,3.7584,3.7516,3.7313,3.6806,3.6468,3.6468,3.596,3.5059,3.3795,3.3525,3.3085,3.2327,3.1582,3.119,3.119,2.9533,2.857,0.0,0.0,0.0,0.0,0.0,0.0,0.0,0.0,0.0,0.0,0.0,0.0,0.0,0.0,0.0,0.0,0.0,0.0,0.0,0.0,0.0,0.0,3.5383,3.8236,3.9566,4.0761,4.2311,4.4529,4.5525,4.619,4.6752,4.709,4.7259,4.7259,4.7936,4.8376,4.8376,4.9052,4.9458,4.9458,5.0168,5.0574,5.0574,5.1014,5.1185,5.1185,5.1185,5.1185,5.1183,5.0439,5.0101,5.0067,4.9323,4.9018,4.9018,4.9018,4.9018,0.0,0.0,0.0,0.0,0.0,4.9018,4.8951,4.8511,4.8376,4.8308,4.7868,4.7496,4.7259,4.7259,4.7056,4.6718,4.6278,4.6143,4.6075,4.5635,4.5263,4.506,4.506,4.4451,4.391,4.391,4.3301,4.276,4.276,4.2185,0.0,4.0527,3.9512,3.8802,3.8802,3.8802,3.87,3.8396,3.8362,3.8261,3.7922,3.7516,3.7134,3.6829,3.6366,0.0,0.0,0.0,3.2916,3.1887,3.1447,0.0,0.0,0.0,0.0,0.0,0.0,0.0,0.0,2.8128,2.7858,0.0,0.0,0.0,0.0,0.0,0.0,0.0,0.0,0.0,0.0,0.0,0.0,0.0,0.0,0.0,0.0,3.8183,4.0573,4.3108,4.4164,4.4961,4.5698,4.6456,4.6955,4.7022,4.7631,4.8007,4.8007,4.8646,4.9052,4.912,4.9729,0.0,0.0,0.0,5.132,5.132,5.1388,5.1455,5.1455,5.1455,5.1455,5.1454,5.0676,5.0304,5.0168,4.9458,4.9086,4.9018,4.9018,4.9018,4.9018,4.9018,4.9018,4.9018,4.9018,4.9018,4.9018,4.9018,0.0,0.0,4.9018,4.8578,4.8007,4.8007,4.7564,4.7022,4.6955,4.6921,4.6887,4.6819,4.6244,4.5737,4.5805,4.5196,4.4615,4.4716,4.4113,4.3511,4.3511,4.2929,4.2422,4.2422,4.1204,4.0214,4.0214,4.0146,3.9876,3.9208,3.9106,3.887,3.8227,0.0,0.0,3.71,3.6965,3.6535,3.5667,3.4235,3.2814,3.1495,3.1461,3.1752,3.2429,3.2496,3.2869,3.3525,3.3626,3.3694,3.3694,3.019,2.9634,0.0,0.0,0.0,0.0,0.0,0.0,0.0,0.0,0.0,0.0,0.0,0.0,0.0,0.0,0.0,3.6814,4.0084,4.3139,4.5308,4.6524,4.7267,4.7402,4.7567,4.7936,4.8511,4.8714,4.8781,4.8781,4.8917,4.9255,4.9864,4.9999,5.0371,5.098,5.1725,5.2097,5.2097,5.2739,5.3078,5.3078,0.0,0.0,5.3044,5.2232,5.1555,5.0947,5.0202,4.956,4.9018,4.9018,4.9018,4.9018,4.9018,4.9018,4.9018,4.9018,4.9018,4.9018,4.9018,4.9018,4.9018,4.9018,4.8917,4.8781,4.8781,4.868,0.0,4.7868,4.7699,4.7564,4.6955,4.6244,4.5838,4.6447,4.5568,4.4784,4.5365,4.4891,4.4378,4.4378,4.3741,4.32,4.32,4.1982,4.1001,4.1001,4.0485,4.0045,3.991,3.991,3.9842,3.9706,3.914,3.8734,3.8565,3.8024,3.711,3.5701,3.4235,3.3288,3.2983,3.2983,3.3051,3.3186,3.3761,3.4134,3.4269,3.4878,3.552,3.6084,3.41,3.3423,0.0,0.0,0.0,0.0,0.0,0.0,0.0,0.0,0.0,0.0,0.0,2.975,3.1989,0.0,3.6724,3.9249,4.2109,4.4556,4.6191,4.7523,4.8385,4.8446,4.8477,4.8612,4.8951,4.9018,4.9154,4.9526,4.956,4.9864,5.0608,5.1014,5.1386,5.1758,5.2503,5.2909,5.2909,5.3315,5.3518,5.3518,5.3518,5.3518,5.3484,5.2672,5.1894,5.1183,5.0405,4.9661,4.9018,4.9018,4.9018,4.9018,4.9018,4.9018,4.9018,4.9018,4.9018,4.9018,4.9018,4.9018,4.9018,4.9018,4.9018,4.9018,4.9018,4.9018,4.8917,4.8578,4.8477,4.8376,4.8003,4.709,4.6346,4.6718,4.594,4.5128,4.5128,4.5128,4.5026,4.4682,4.4282,4.4012,4.4012,4.3064,4.2185,4.1813,4.1441,4.1094,4.0696,4.0629,4.0493,4.0146,3.9774,3.9377,3.9039,3.8328,3.7415,3.6265,3.552,3.4912,3.4518,3.4484,3.4709,3.5081,3.5453,3.5825,3.6197,3.6569,3.6975,3.7347,3.6941,3.6535,0.0,0.0,0.0,0.0,0.0,0.0,0.0,2.6548,2.7345,2.9485,3.0846,3.2554,3.5431,3.6933,3.8631,4.129,4.3552,4.5309,4.6389,4.7892,4.8894,4.8987,4.9018,4.9018,4.9018,4.9018,4.9323,5.0033,5.0101,5.0473,5.1386,5.1995,5.2367,5.2536,5.3179,5.3518,5.3518,5.3518,5.3518,5.3518,5.3518,5.3416,5.3247,5.2604,5.1894,5.1183,5.0405,4.9661,4.9018,4.9018,4.9018,4.9018,4.9018,4.9018,4.9018,4.9018,4.9018,4.9018,4.9018,4.9018,4.9018,4.9018,4.9018,4.9018,4.9018,4.9018,4.9018,4.9018,4.9018,4.9018,4.9018,4.8003,4.7056,4.7192,4.6447,4.5568,4.5094,4.5365,4.5534,4.4925,4.479,4.479,4.479,4.4147,4.3403,4.2625,4.2388,4.2083,4.1508,4.1407,4.117,4.0587,4.0417,4.0045,3.9276,3.8531,3.7855,3.7269,3.71,3.6705,3.6073,3.6039,3.6366,3.6998,3.7168,3.7516,3.8125,3.8396,3.8531,3.8565,3.9309,3.9174,2.7979,2.6542,2.6063,2.7136,2.6926,2.753,0.0,3.163,3.1563,3.4027,3.5241,3.6255,3.7724,3.8603,3.9673,4.1203,4.3533,4.5449,4.6124,4.7835,4.8987,4.9018,4.9018,4.9018,4.9018,4.9018,4.9323,5.0033,5.0101,5.071,5.2097,5.2266,5.2638,5.3348,5.345,5.3518,5.3518,5.3518,5.3518,5.3518,5.3518,5.3145,5.2435,5.2334,5.1894,5.1183,5.0405,4.9661,4.9018,4.9018,4.9018,4.9018,4.9018,4.9018,4.9018,4.9018,4.9018,4.9018,4.9018,4.9018,4.9018,4.9018,4.9018,4.9018,4.9018,4.9018,4.9018,4.9018,4.9018,4.9018,4.9018,4.8409,4.797,4.8612,4.7192,4.5872,4.6413,4.6109,4.5669,4.5602,4.5568,4.5568,4.5568,4.4959,4.4181,4.3403,4.2726,4.2252,4.2185,4.2185,4.2151,4.2049,4.1474,4.0764,4.0045,3.93,3.8836,3.8768,3.8125,3.7753,3.7652,3.7652,3.7686,3.7787,3.843,3.8768,3.887,4.0189,4.0832,4.0865,4.1576,4.117,3.0941,2.9774,2.9179,2.9744,3.0253,3.112,3.3066,3.3664,3.4355,3.6174,3.7425,3.8462,3.934,4.0431,4.1558,4.275,4.4206,4.5461,4.6419,4.7204,4.7703,4.7721,4.8087,4.8513,4.8954,4.939,4.9932,5.0676,5.115,5.186,5.2942,5.301,5.3145,5.3484,5.3518,5.3518,5.3518,5.3518,5.3518,5.3518,5.3518,5.3078,5.23,5.23,5.1657,5.0507,4.9796,4.9289,4.9052,4.9458,4.939,4.9052,4.9458,4.939,4.9018,4.9018,4.9018,4.9018,4.9018,4.9018,4.9018,4.9018,4.9018,4.9018,4.9018,4.9018,4.9018,4.9018,4.9018,4.9018,4.9018,4.8477,4.7973,4.8308,4.7665,4.6853,4.6278,4.6244,4.6075,4.5229,4.5399,4.5703,4.5703,4.5432,4.5128,4.479,4.4113,4.347,4.2997,4.2963,4.2794,4.2354,4.2016,4.1711,4.1433,4.1102,4.0899,4.0899,4.0629,4.046,4.046,4.046,4.046,4.046,4.0764,4.0899,4.0899,4.1542,4.1847,4.1847,4.2151,4.2219,3.2258,3.1839,3.1869,3.2228,3.3335,3.4352,3.4532,3.5459,3.6567,3.7494,3.8601,3.9619,4.0277,4.1324,4.2477,4.3464,4.4421,4.5332,4.6131,4.6357,4.6444,4.6454,4.6977,4.7596,4.8337,4.9263,5.0101,5.0845,5.1589,5.2334,5.3145,5.3382,5.3518,5.3518,5.3518,5.3518,5.3518,5.3518,5.3518,5.3518,5.3518,5.2976,5.1995,5.1792,5.1014,4.9763,4.9458,4.9187,4.9052,4.956,4.9492,4.9052,4.9593,4.9458,4.9018,4.9018,4.9018,4.9018,4.9018,4.9018,4.9018,4.9018,4.9018,4.9018,4.9018,4.9018,4.9018,4.9018,4.9018,4.9018,4.9018,4.8612,4.8176,4.8176,4.8041,4.7601,4.6549,4.6718,4.6718,4.5432,4.5635,4.594,4.5737,4.5703,4.5703,4.5703,4.5229,4.4621,4.3842,4.3741,4.3436,4.2692,4.2591,4.2523,4.232,4.2286,4.2286,4.2286,4.2286,4.2286,4.2286,4.2286,4.2286,4.2286,4.2286,4.2286,4.2286,4.2489,4.2591,4.2625,4.2828,4.32,3.0761,3.1509,3.2796,3.4053,3.5432,3.6537,3.7165,3.7823,3.8302,3.8362,3.8931,3.9619,4.0277,4.0935,4.1662,4.2329,4.3777,4.4812,4.4849,4.5274,4.5522,4.5524,4.5733,4.6142,4.6902,4.8205,4.9357,5.0067,5.0811,5.1555,5.23,5.3078,5.3518,5.3518,5.3518,5.3518,5.3518,5.3518,5.3518,5.3518,5.3518,5.2706,5.1217,5.0473,4.9729,4.9086,4.9763,4.9661,4.9018,4.9018,4.9018,4.9018,4.9018,4.9018,4.9018,4.9018,4.9018,4.9018,4.9018,4.9018,4.9018,4.9018,4.9018,4.9018,4.9018,4.9018,4.9018,4.9018,4.9018,4.9018,4.9018,4.8984,4.8984,4.8984,4.8443,4.7872,4.7838,4.7838,4.7635,4.6887,4.6752,4.6549,4.5838,4.5703,4.5703,4.5703,4.5703,4.5399,4.4682,4.4581,4.4248,4.3443,4.3375,4.3098,4.2354,4.2286,4.2286,4.2286,4.2286,4.2286,4.2286,4.2286,4.2286,4.2286,4.2286,4.2286,4.2286,4.3031,4.3375,4.3375,4.4147,4.4547,3.2317,3.3484,3.4711,3.5579,3.6776,3.7793,3.8003,3.8571,3.908,3.908,3.926,3.9463,3.9709,4.0277,4.0973,4.1783,4.2751,4.3594,4.4205,4.4545,4.4714,4.4707,4.4905,4.5339,4.605,4.7872,4.9323,5.0033,5.0777,5.1319,5.1555,5.1826,5.2198,5.2706,5.2706,5.2976,5.3484,5.2976,5.2706,5.2706,5.1725,5.098,5.0439,4.9695,4.9221,4.9018,4.9255,4.9221,4.9052,4.9526,4.9424,4.9052,4.9526,4.9424,4.9018,4.9018,4.9018,4.9018,4.9018,4.9018,4.9018,4.9018,4.9018,4.9018,4.9018,4.9018,4.9018,4.9018,4.9018,4.9018,4.9018,4.9018,4.9018,4.9018,4.8815,4.8511,4.8007,4.7906,4.7699,4.6921,4.6786,4.6718,4.6481,4.6007,4.5703,4.5703,4.5703,4.5432,4.4716,4.4615,4.4513,4.4215,4.4181,4.4079,4.387,4.3836,4.3836,4.3836,4.3836,4.3836,4.3836,4.3836,4.3836,4.3836,4.3836,4.3836,4.3836,4.4079,4.4181,4.4181,4.4479,4.4857,3.4143,3.5519,3.6746,3.7674,3.8691,3.9409,3.917,3.9439,3.9709,3.9433,3.9014,3.8691,3.8691,3.8871,3.9415,4.0671,4.1423,4.2341,4.3572,4.3524,4.3506,4.3772,4.3854,4.4238,4.5244,4.6877,4.8222,4.9214,5.0019,5.0553,5.0779,5.1082,5.142,5.1894,5.1928,5.2164,5.2672,5.2164,5.1928,5.1894,5.0676,5.0101,5.0067,4.9323,4.9018,4.9018,4.9018,4.9018,4.9052,4.9492,4.9424,4.9052,4.9526,4.9424,4.9052,4.9289,4.939,4.9357,4.9086,4.9018,4.9018,4.9018,4.9018,4.9018,4.9018,4.9018,4.9018,4.9018,4.9018,4.9018,4.9018,4.9018,4.9018,4.9018,4.9018,4.8883,4.8409,4.8308,4.8071,4.7327,4.7192,4.7124,4.6853,4.6413,4.6007,4.5737,4.5703,4.5635,4.5427,4.5393,4.5393,4.5393,4.5128,4.4993,4.4993,4.475,4.4615,4.4615,4.4615,4.4615,4.4615,4.4615,4.4615,4.4615,4.4615,4.4615,4.4615,4.4615,4.4615,4.4615,4.4886,4.5229,3.6058,3.7554,3.8841,4.0127,4.0876,4.1175,4.0546,4.0367,4.0157,3.9469,3.8272,3.7315,3.7225,3.6806,3.7105,3.902,3.9948,4.1115,4.3021,4.2436,4.2093,4.2963,4.2638,4.2994,4.4527,4.5248,4.6187,4.7704,0.0,4.9226,4.997,5.0678,5.1083,5.1085,5.1117,5.1151,5.1185,5.1151,5.115,5.105,5.0371,5.0033,4.9999,4.9323,4.9018,4.9018,4.9018,4.9018,4.9018,4.9018,4.9018,4.9018,4.9052,4.9052,4.9154,4.9864,5.0135,5.0067,4.9357,4.912,4.912,4.9086,4.9052,4.9052,4.9018,4.9018,4.9018,4.9018,4.9018,4.9018,4.9018,4.9018,4.9018,4.9018,4.9018,4.9018,4.9018,4.9018,4.8815,4.8075,4.7906,4.7665,4.6921,4.6752,4.6515,4.5872,4.5737,4.594,4.6583,4.6718,4.6718,4.6684,4.6109,4.5703,4.5669,4.4993,4.4615,4.4615,4.4615,4.4615,4.4615,4.4615,4.4615,4.4682,4.4615,4.4615,4.4682,4.4615,4.4615,4.4682,4.5365,4.5737,3.7494,3.923,4.0733,4.1055,4.0876,4.0606,4.0427,4.0008,3.932,3.8153,3.7285,3.6267,3.4771,3.5579,3.6806,3.7764,3.9738,4.1654,4.308,4.3374,4.3503,4.3741,4.3474,4.363,4.4547,4.4329,4.4755,4.617,4.7435,4.8265,4.8427,4.9142,4.9544,4.9559,5.0082,5.0642,5.1185,5.0676,5.0101,4.956,4.9357,4.9289,4.9255,4.9086,4.9018,4.9018,4.9018,4.9018,4.9018,4.9018,4.9018,4.9052,4.9593,4.983,4.9898,5.0642,5.0913,5.0913,5.071,5.0642,5.0574,4.9999,4.983,4.9729,4.9187,4.9018,4.9018,4.9018,4.9018,4.9018,4.9018,4.9018,4.9018,4.9018,4.9018,4.9018,4.9018,4.9018,4.8951,4.8781,4.8277,4.7665,4.6921,4.6346,4.6109,4.6481,4.6041,4.5568,4.5224,4.5635,4.5771,4.5224,4.5466,4.5466,4.4925,4.4716,4.4615,4.4615,4.4615,4.4615,4.4615,4.4615,4.4886,4.5399,4.4857,4.4886,4.5432,4.4886,4.4857,4.5432,4.5602,4.6312,3.899,4.0726,4.2162,4.1931,4.1572,4.1025,4.0157,3.9439,3.8422,3.6507,3.54,3.4322,3.2886,3.3544,3.4801,3.6327,3.8542,4.0726,4.2641,4.3145,4.3463,4.3949,4.3629,4.3679,4.4512,4.4248,4.4514,4.5593,4.6483,4.7238,4.7869,4.8289,4.8683,4.8988,4.9405,4.983,5.0236,4.983,4.939,4.9018,4.9018,4.9018,4.9018,4.9018,4.9018,4.9018,4.9018,4.9018,4.9018,4.9357,4.9492,4.956,5.0304,5.0574,5.0676,5.142,5.1691,5.1725,5.2097,5.2232,5.2029,5.0947,5.0574,5.0507,5.0101,4.9965,4.9898,4.956,4.9492,4.939,4.9086,4.9018,4.9018,4.9018,4.9018,4.9018,4.9018,4.9018,4.9018,4.9018,4.868,4.8173,4.7428,4.6955,4.6718,4.6786,4.6447,4.6041,4.563,4.5906,4.6007,4.5602,4.5635,4.5534,4.5128,4.4818,4.4615,4.4615,4.4615,4.4615,4.4615,4.4615,4.4818,4.5196,4.4818,4.4818,4.5196,4.5128,4.5297,4.5737,4.638,4.7124,4.0337,4.1893,4.314,4.256,4.2321,4.1752,3.9738,3.8691,3.7375,3.4803,3.3245,3.2138,3.1391,3.154,3.2587,3.51,3.7195,3.9409,4.2051,4.241,4.2844,4.3858,4.351,4.3541,4.451,4.461,4.4874,4.5515,4.5551,4.6202,4.7671,4.7869,4.8225,4.8987,4.9018,4.9018,4.9018,4.9018,4.9018,4.9018,4.9018,4.9018,4.9018,4.9018,4.9018,4.9018,4.9018,4.9052,4.9187,4.983,5.0135,5.0304,5.1082,5.1352,5.1454,5.2198,5.2469,5.257,5.3281,5.3518,5.3281,5.1826,5.1352,5.1352,5.1219,5.1185,5.1082,5.0439,5.0236,5.0101,4.9458,4.9221,4.9154,4.9154,4.9086,4.9018,4.9018,4.9018,4.9018,4.9018,4.9018,4.8815,4.8173,4.7939,4.7699,4.7022,4.6853,4.6786,4.6786,4.6887,4.6853,4.665,4.6177,4.5771,4.5568,4.4987,4.4615,4.4615,4.4615,4.4615,4.4615,4.4615,4.4682,4.4886,4.4818,4.4852,4.5055,4.5568,4.5906,4.6041,4.7297,4.7939,4.1025,4.2252,4.314,4.256,4.1991,4.1063,3.902,3.7674,3.6058,3.3395,3.2198,3.1301,3.0133,3.1689,3.3664,3.525,3.7614,3.9978,4.2111,4.2526,4.296,4.3897,4.4021,4.422,4.4572,4.461,4.4648,0.0,4.4799,4.5405,4.6898,4.7572,4.8225,4.8987,4.9018,4.9018,4.9018,4.9018,4.9018,4.9018,4.9018,4.9018,4.9018,4.9018,4.9018,4.9018,4.9018,0.0,4.9898,5.0033,5.0473,5.1082,5.1826,5.2131,5.2198,5.301,5.3281,5.3315,5.345,5.3518,5.3348,5.2401,5.2131,5.1995,5.1386,5.1185,5.1183,5.1048,5.1014,5.098,5.0879,5.0371,4.9898,4.9898,4.9424,4.9018,4.9018,4.9018,4.9018,4.9018,4.9018,4.8951,4.8849,4.8308,4.7838,4.7733,4.7192,4.6786,4.6786,4.7327,4.7259,4.6007,4.6312,4.6109,4.4886,4.4682,4.4615,4.4615,4.4615,4.4615,4.4615,4.4615,4.519,4.638,4.5805,4.6109,4.7327,4.6853,4.6921,4.75,4.777,4.824,4.1294,4.2342,4.314,4.256,4.1662,4.0187,3.7494,3.5878,3.4083,3.1091,3.0195,2.9714,2.8753,3.0161,3.1898,3.3185,3.537,3.7793,4.0457,4.122,4.2092,4.368,4.4026,4.4189,4.4419,4.4534,4.461,4.461,4.461,4.5067,4.6163,4.6932,4.7505,4.7836,4.7836,4.7836,4.7836,4.7836,4.8032,4.845,4.845,4.8608,4.9018,4.9018,4.9018,4.9018,4.939,4.9763,5.0135,5.0913,5.1454,5.186,5.2638,5.2909,5.2976,5.3382,5.3518,5.3518,5.3518,5.3518,5.345,5.3044,5.2909,5.2875,5.2503,5.2401,5.2334,5.1894,5.1792,5.1691,5.1319,5.0947,5.0676,5.0676,5.0101,4.9458,4.9086,4.9018,4.9018,4.9018,4.9018,4.9018,4.9018,4.8714,4.8477,4.8477,4.8173,4.7936,4.7936,4.824,4.7902,4.6447,4.6583,4.6515,4.5833,4.5737,4.5737,4.5737,4.5737,4.5737,4.5737,4.5737,4.6104,4.6786,4.6447,4.6616,4.7327,4.7361,4.7564,4.7906,4.8308,4.868,4.1354,4.2342,4.311,4.2381,4.1265,3.9499,3.6058,3.4143,3.2198,2.9026,2.8278,2.8038,2.7675,2.8693,3.0043,3.1481,3.3275,3.5579,3.8751,3.9888,4.116,4.3253,4.378,0.0,4.4297,4.4419,0.0,4.4534,4.4534,4.488,4.566,4.641,4.6828,4.6828,4.6828,4.6828,4.6828,4.6828,4.7171,4.7901,4.7901,4.829,4.9018,4.9018,4.9018,4.9052,4.9593,5.0033,5.0439,5.1589,5.2266,5.2638,5.3247,5.3518,5.3518,5.3518,5.3518,5.3518,5.3518,5.3518,5.3518,5.3518,5.3518,5.3518,5.3518,5.3518,5.3382,5.2739,5.257,5.2435,5.186,5.1589,5.142,5.1251,5.0642,4.9932,4.9357,4.912,4.9018,4.9018,4.9018,4.9018,4.9018,4.9018,4.9018,4.9018,4.9018,4.9018,4.9018,4.9018,4.8545,4.7394,4.7124,4.6955,4.6819,4.6786,4.6786,4.6786,4.6786,4.6786,4.6786,4.6786,4.6853,4.7022,4.7022,4.709,4.7259,4.7868,4.8142,4.8142,4.8748,4.9018,4.1205,4.2342,4.2991,4.1773,4.0935,3.9379,3.5492,3.3095,3.0913,2.8244,2.7225,2.6931,2.7495,2.8693,3.0193,3.2108,3.3574,3.5432,3.8093,3.9589,4.098,4.2582,0.0,0.0,4.4297,4.4335,4.4305,4.4305,4.4305,4.4761,4.566,4.641,4.6828,4.6828,4.6828,4.6828,4.6828,4.6828,4.7171,4.7901,4.7901,4.829,4.9018,4.9018,4.9018,4.9018,4.9086,4.9864,0.0,5.1251,5.2131,5.3416,5.3484,5.3518,5.3518,5.3518,5.3518,5.3518,5.3518,5.3518,5.3518,5.3518,5.3518,5.3518,5.3518,5.3518,5.3484,5.3416,5.3382,5.3382,5.3315,5.2739,5.2029,5.1386,5.0642,5.0067,4.9999,4.9458,4.9018,4.9018,4.9018,4.9018,4.9018,4.9018,4.9018,4.9018,4.9018,4.9018,4.9018,4.9018,4.8951,4.8815,4.8206,4.753,4.6853,4.6786,4.6786,4.6786,4.6786,4.6786,4.6786,4.6786,4.7124,4.777,4.7804,4.8139,4.8815,4.8883,4.8917,4.8917,4.8984,4.9018,4.0995,4.1773,4.2043,4.1504,4.0277,3.8272,3.4711,3.2347,3.0163,2.7555,2.6452,2.6183,2.6896,2.7435,2.8427,3.0432,3.1209,3.2617,3.5642,3.6866,3.8427,4.1018,4.2047,4.2962,4.3819,0.0,4.4143,4.4143,4.4143,4.4266,4.4655,4.5067,4.5295,4.5295,4.5295,4.5332,4.5478,4.5913,4.6483,4.7238,4.7671,4.829,4.9018,4.9018,4.9018,4.9018,4.9458,4.9999,0.0,5.1488,5.2232,5.2841,5.3315,5.3518,5.3518,5.3518,5.3518,5.3518,5.3518,5.3518,5.3518,5.3518,5.3518,5.3518,5.3518,5.3518,5.3518,5.3518,5.3518,5.3518,5.3518,5.3281,5.2841,5.2063,5.1657,5.1285,5.0879,5.0168,4.9661,4.9661,4.9289,4.9018,4.9018,4.9018,4.9018,4.9018,4.9018,4.9018,4.9018,4.9018,4.9018,4.9018,4.8748,4.8443,4.8139,4.8105,4.8105,4.8105,4.8105,4.8105,4.8105,4.8105,4.8274,4.8578,4.8578,4.8714,4.9018,4.9018,4.9018,4.9018,4.9018,4.9255,4.0307,4.1085,4.1294,4.0905,3.9439,3.7225,3.3963,3.1509,2.9235,2.6811,2.5764,2.5501,2.6183,2.6452,2.7171,2.8996,0.0,3.0881,3.3815,3.513,3.6776,3.9499,4.0581,4.1663,4.299,4.359,4.3871,4.3793,4.3871,4.3871,4.3793,4.4026,4.4181,4.4297,4.4297,4.4381,4.461,4.5104,4.5733,4.6448,4.7001,4.7638,4.8354,4.8576,4.8545,4.8388,4.9114,4.9579,0.0,5.1126,5.1932,5.2367,5.3179,5.3518,5.3518,5.3518,5.3518,5.3518,5.3518,5.3518,5.3518,5.3518,5.3518,5.3518,5.3518,5.3518,5.3518,5.3518,5.3518,5.3518,5.3518,5.3518,5.3382,5.2807,5.2469,5.2164,5.1657,5.0947,5.0439,5.0439,4.983,4.9323,4.9323,4.9154,4.9018,4.9018,4.9018,4.9018,4.9018,4.9018,4.9018,4.9018,4.9018,4.9018,4.9018,4.9018,4.9018,4.9018,4.9018,4.9018,4.9018,4.9018,4.9018,4.9018,4.9018,4.9018,4.9018,4.9018,4.9018,4.9018,4.9221,4.983,3.9044,4.0397,4.1055,3.9768,3.8422,3.6567,3.3245,3.0492,2.8038,2.6033,2.5083,2.4814,2.5495,2.6153,2.7021,2.8397,2.9684,0.0,3.3215,3.522,3.6956,3.8272,3.9198,4.0275,4.1603,4.293,4.3596,4.3329,4.3557,0.0,4.3329,4.3557,4.3871,4.4297,4.4297,4.4381,4.461,4.461,4.4993,4.5697,4.5733,4.6127,4.6862,4.7572,4.7506,4.683,4.7605,4.8332,0.0,4.979,5.0995,5.2367,5.3179,5.3518,5.3518,5.3518,5.3518,5.3518,5.3518,5.3518,5.3518,5.3518,5.3518,5.3518,5.3518,5.3518,5.3518,5.3518,5.3518,5.3518,5.3518,5.3518,5.3518,5.3484,5.2875,5.23,5.23,5.1725,5.1217,5.1217,5.0574,5.0067,5.0067,4.9492,4.9018,4.9018,4.9018,4.9018,4.9018,4.9018,4.9018,4.9018,4.9018,4.9018,4.9018,4.9018,4.9018,4.9018,4.9018,4.9018,4.9018,4.9018,4.9018,4.9018,4.9018,4.9018,4.9018,4.9018,4.9018,4.9018,4.9729,5.0879,3.6892,3.7734,3.7943,3.7524,3.6387,3.4771,3.2348,3.0135,2.8038,2.601,2.4694,2.4268,2.5382,2.5764,2.6782,2.9475,3.0253,0.0,3.3215,3.522,3.6956,3.8242,4.0613,4.2329,4.2749,4.3169,4.3369,4.329,4.3369,4.3369,4.329,4.3369,4.3596,4.3871,4.4026,4.422,4.4381,4.503,4.5442,4.5697,4.6234,4.6585,4.6828,4.7035,4.7001,4.6828,4.7067,4.7571,4.8299,4.9028,5.0226,5.1623,5.2401,5.301,5.3518,5.3518,5.3518,5.3518,5.3518,5.3518,5.3518,5.3518,5.3518,5.3518,5.3518,5.3518,5.3518,5.3518,5.3518,5.3518,5.3518,5.3518,5.3518,5.3518,5.3315,5.3112,5.3112,5.2503,5.1961,5.1961,5.1352,5.0845,5.0845,5.0676,5.0338,4.983,4.9729,4.956,4.9052,4.9018,4.9018,4.9018,4.9018,4.9018,4.9018,4.9018,4.9018,4.9018,4.9018,4.9018,4.9018,4.9018,4.9018,4.9018,4.9018,4.9018,4.9018,4.9018,4.9255,4.9763,5.1014,5.186,3.459,3.5729,3.6058,3.5789,3.4711,3.3215,3.124,2.9265,2.735,2.5591,2.4358,2.3939,2.5023,2.5202,2.6063,2.8607,2.9445,3.0492,3.2467,3.4681,3.6776,3.8571,4.1025,4.2581,4.2581,4.3021,4.329,4.329,4.329,4.329,4.329,4.3369,4.3518,4.3675,4.391,4.4104,4.4297,4.4955,4.529,4.529,4.5733,4.5985,4.5985,4.6269,4.6202,4.602,4.6585,4.7035,0.0,4.8597,4.9724,5.0879,5.1894,5.2604,5.3078,5.3382,5.3518,5.3518,5.3518,5.3518,5.345,5.3144,5.2834,5.2661,5.2938,5.3246,5.3518,5.3518,5.3518,5.3518,5.3518,5.3518,5.3518,5.3518,5.3518,5.3518,5.3518,5.3112,5.2739,5.2739,5.2131,5.1623,5.1623,5.1386,5.1048,5.0574,5.0507,5.0338,4.9898,4.983,4.9729,4.9458,4.9424,4.9289,4.9018,4.9018,4.9018,4.9018,4.9018,4.9018,4.9018,4.9018,4.9018,4.9018,4.9255,4.9424,4.9424,4.9695,5.0202,5.0947,5.186,5.2469,0.0,3.4023,3.4921,3.4324,3.3185,3.1749,2.9891,2.7919,0.0,2.4874,2.4066,2.3849,2.4605,2.4694,2.5143,2.6632,2.7919,2.9415,3.1361,3.4022,3.6776,3.9379,4.0786,4.1534,4.1534,4.2611,4.329,4.329,4.329,4.329,4.329,4.3557,4.3675,4.3675,4.3871,4.4104,4.4297,4.4496,4.461,4.461,4.461,4.461,4.461,4.5326,4.5253,0.0,4.6056,4.6657,4.6825,4.8228,4.9259,5.0173,5.1592,5.2233,5.2401,5.3213,5.345,5.3416,5.3416,5.3382,5.3212,5.2449,5.1733,5.122,5.1987,5.2764,5.3314,5.3314,5.3348,5.3416,5.3416,5.3484,5.3518,5.3518,5.3518,5.3518,5.3518,5.3518,5.3518,5.3518,5.2909,5.2401,5.2401,5.1826,5.132,5.1286,5.1285,5.1285,5.1217,5.1185,5.0947,5.0236,5.0168,4.9898,4.9221,4.9052,4.9018,4.9018,4.9052,4.9086,4.9086,4.912,4.9154,4.9154,4.983,5.0168,5.0168,5.0913,5.1623,5.23,5.2367,5.2807,2.7778,0.0,3.0969,3.079,3.0133,2.9265,0.0,2.6901,2.5615,2.4784,2.4066,2.4118,2.5824,2.5704,2.6303,2.9116,2.9864,3.0761,3.2766,3.6178,3.9433,4.2064,4.2662,4.2841,4.2841,4.311,4.329,4.329,4.329,4.329,4.329,4.3369,4.3369,4.3369,4.3793,4.4104,4.4297,4.4496,4.461,4.461,4.461,4.461,4.461,4.4799,4.4761,4.461,4.4955,4.5442,4.5985,4.6323,4.7586,4.936,5.0259,5.1296,5.2401,5.3213,5.3109,5.2555,5.2555,5.2167,5.1627,5.1443,5.1257,5.1145,5.1331,5.1516,5.1663,5.1663,5.2095,5.2555,5.2555,5.3041,5.3518,5.3518,5.3518,5.3518,5.3518,5.3518,5.3518,5.3518,5.3348,5.3213,5.3213,5.3078,5.2739,5.2131,5.2063,5.186,5.1252,5.1185,5.1117,5.098,5.0947,5.0879,5.071,4.9661,4.9018,4.9018,4.9526,4.983,4.983,5.0371,5.071,5.071,5.0879,5.0947,5.0947,5.1691,5.2131,5.23,5.2942,5.3315,2.5448,2.759,2.9621,2.9621,2.9086,2.8427,2.7764,2.6303,2.4933,2.4276,2.3849,2.4029,2.5435,2.5644,2.6393,2.8757,2.9924,3.1719,3.525,3.8123,4.0689,4.3021,4.329,4.329,4.329,4.329,4.329,4.329,4.329,4.329,4.329,4.3438,4.3478,4.3478,4.3832,4.4065,4.4181,4.4343,4.4496,4.461,4.4496,4.4496,4.461,4.461,4.461,4.461,4.4955,4.5326,4.5733,4.6092,4.6883,4.8028,4.8818,4.9783,5.0821,5.1584,5.1834,5.1769,5.1769,5.122,5.0615,5.0995,5.0576,5.0033,5.0422,5.0267,5.0112,5.0881,5.1696,5.2307,5.2307,5.2903,5.3518,5.3518,5.3518,5.3518,5.3518,5.3518,5.3518,5.3518,5.3518,5.3518,5.3518,5.3518,5.3348,5.2909,5.2841,5.2706,5.2334,5.2266,5.2131,5.1758,5.1725,5.1589,5.1219,5.0473,5.0033,5.0033,5.0371,5.0608,5.0608,5.1014,5.1386,5.1725,5.1725,5.1894,5.2266,5.2672,5.2841,5.2875,5.3315,5.3518,2.4522,2.6991,2.9262,2.9172,2.8786,2.8278,2.7615,2.6063,2.4605,2.4029,2.3909,2.4178,2.5053,2.5681,2.6572,2.8094,3.0073,3.3095,3.7883,3.9709,4.1235,4.308,4.329,4.329,4.329,4.329,4.329,4.329,4.329,4.329,4.329,4.3518,4.3636,4.3636,4.3832,4.3949,4.3949,4.4143,4.4374,4.4496,4.4343,4.4381,4.4534,4.4572,4.4572,4.4572,4.5253,4.5515,4.5515,4.6198,4.655,4.6719,4.7432,4.8149,4.8835,4.9681,5.032,5.0758,5.0735,5.0267,4.9829,5.0499,4.9757,4.8728,4.947,4.9219,4.8893,5.0306,5.1369,5.2164,5.2272,5.2903,5.3518,5.3518,5.3518,5.3484,5.3348,5.3416,5.345,5.3348,5.345,5.3518,5.3518,5.3518,5.3484,5.3314,5.3416,5.3484,5.3314,5.3416,5.3247,5.257,5.2469,5.2232,5.1591,5.1523,5.1523,5.1523,5.1454,5.142,5.1523,5.1523,5.186,5.2469,5.2469,5.2807,5.3518,5.3518,5.3518,5.3518,5.3518,5.3518,2.509,2.6632,2.7764,2.72,2.7405,2.7585,2.6926,2.6063,2.5435,2.5315,2.5285,2.5854,2.7649,2.8068,2.8936,3.136,3.3903,3.6447,3.8901,4.0397,4.1743,4.314,4.329,4.329,4.329,4.329,4.329,4.329,4.329,4.329,4.329,4.3329,4.3369,4.3369,4.3596,4.3754,4.3754,4.3949,4.4065,4.4104,4.4258,4.4335,4.4343,4.4534,4.4496,4.4343,4.4648,4.4685,4.4534,4.4805,4.5326,4.5941,4.668,4.7397,4.8191,4.9523,4.9662,4.9131,4.901,4.8893,4.8811,4.8975,4.8811,4.8604,4.8769,4.8687,4.8646,4.8934,5.0112,5.1443,5.2128,5.2903,5.3518,5.3518,5.3518,5.3314,5.2626,5.3007,5.3314,5.2624,5.3007,5.3518,5.3518,5.3518,5.328,5.2589,5.3041,5.3246,5.2555,5.3109,5.345,5.3348,5.3315,5.3281,5.3179,5.3145,5.3145,5.3145,5.2503,5.2435,5.3112,5.3145,5.3213,5.3315,5.3315,5.3382,5.3518,5.3518,5.3518,5.3518,5.3518,5.3518,2.4335,2.5764,2.7076,2.7136,2.7914,2.8603,2.8304,2.7435,2.6686,2.6686,2.6686,2.7051,2.8368,2.9475,3.1241,3.4622,3.6477,3.8212,4.0187,4.1294,4.2252,4.317,4.329,4.329,4.329,4.329,4.329,4.329,4.329,4.329,4.329,4.329,4.329,4.329,4.3438,4.3478,4.3478,4.3596,4.3754,4.3988,4.3988,4.4026,4.4143,4.4258,4.4258,4.4143,4.4343,4.4412,4.4335,4.4496,4.4799,4.5136,4.5485,4.6053,4.6823,4.818,4.8694,4.8671,4.8605,4.8604,4.8604,4.8604,4.8604,4.8604,4.8604,4.8604,4.8687,4.9178,4.9868,5.0538,5.0914,5.1623,5.2203,5.2203,5.2203,5.2095,5.1733,5.1951,5.2095,5.1733,5.1951,5.2203,5.2203,5.2203,5.2059,5.1733,5.1951,5.2203,5.2307,5.2238,5.2378,5.2799,5.2485,5.2203,5.2203,5.259,5.3041,5.345,5.3145,5.3112,5.3484,5.3518,5.3518,5.3518,5.3518,5.3518,5.3518,5.3518,5.3518,5.3518,5.3518,5.3518,2.4186,2.5435,2.6806,2.7645,2.8603,2.9532,3.0133,2.9262,2.8364,2.8693,2.8753,2.8903,2.9415,3.1241,3.3753,3.7105,3.8452,3.9679,4.1422,4.2201,4.2761,4.323,4.329,4.329,4.329,4.329,4.329,4.329,4.329,4.329,4.329,4.329,4.329,4.329,4.329,4.329,4.329,4.329,4.3488,4.3832,4.3754,4.3754,4.3949,4.3988,4.3988,4.3949,4.422,4.4297,4.4258,4.4496,4.461,4.461,4.461,4.5003,4.5741,4.6942,4.7804,4.8389,4.8573,4.8604,4.8604,4.8604,4.8604,4.8604,4.8604,4.8604,4.8728,4.939,4.959,4.967,5.0065,5.0615,5.1107,5.1107,5.1107,5.1032,5.0843,5.0957,5.1032,5.0843,5.0957,5.1107,5.1107,5.1107,5.1032,5.0843,5.0995,5.1257,5.1696,5.1369,5.1331,5.1951,5.1443,5.1107,5.1107,5.1659,5.2307,5.2903,5.328,5.3518,5.3518,5.3518,5.3416,5.3212,5.3382,5.3382,5.3212,5.3382,5.3382,5.3212,5.3416,5.3382,2.5986,2.6482,2.6901,2.8218,2.8607,2.9325,3.1749,3.127,3.0642,3.1898,3.2168,3.2168,3.2228,3.4382,3.6596,3.8093,3.9918,4.1482,4.2231,4.2851,4.323,4.329,4.329,4.329,4.329,4.329,4.329,4.329,4.329,4.329,4.329,4.329,4.329,4.329,4.329,4.329,4.329,4.329,4.3329,4.3329,4.3596,4.3714,4.3714,4.391,4.391,4.3714,4.4143,4.422,4.4065,4.4419,4.461,4.461,4.461,4.5003,4.568,4.6419,4.7096,4.7773,4.8389,4.8604,4.8604,4.8604,4.8604,4.8604,4.8604,4.8604,4.8604,4.8687,4.8687,4.9025,5.0615,5.107,5.1107,5.1107,5.1107,5.0881,5.0143,5.0576,5.0881,5.0143,5.0576,5.1107,5.1107,5.1107,5.0843,5.0104,5.0615,5.0843,5.0182,5.0653,5.1107,5.1182,5.1145,5.1107,5.1107,5.1145,5.122,5.1257,5.2661,5.3518,5.3518,5.3518,5.3144,5.2378,5.3144,5.3144,5.2378,5.3144,5.3144,5.2414,5.3178,5.3109,2.5133,2.5974,2.6901,2.8278,2.9205,3.0253,3.2079,3.2437,3.2736,3.4083,3.4382,3.4502,3.4921,3.5818,3.7165,3.929,4.0606,4.1743,4.2821,4.314,4.329,4.329,4.329,4.329,4.329,4.329,4.329,4.329,4.329,4.329,4.329,4.329,4.329,4.329,4.329,4.329,4.329,4.329,4.329,4.329,4.3369,4.3478,4.3478,4.3527,4.3527,4.3478,4.3793,4.3949,4.4026,4.4297,4.4496,4.461,4.461,4.5003,4.568,4.6357,4.7034,4.7711,4.8389,4.8604,4.8604,4.8604,4.8604,4.8604,4.8604,4.8604,4.8604,4.8604,4.8604,4.8728,4.939,4.955,4.955,4.955,4.955,4.947,4.9178,4.9349,4.947,4.9147,4.9349,4.955,4.955,4.955,4.947,4.9138,4.9349,4.9599,4.9797,4.9678,4.9757,5.0299,4.9876,4.9757,5.0306,5.0345,5.0576,5.107,5.1663,5.2023,5.2023,5.2023,5.1878,5.1586,5.2343,5.259,5.2307,5.3109,5.3348,5.3041,5.3348,5.3348,2.4894,2.5734,2.6871,2.7979,2.9415,3.0971,3.2736,3.3664,3.4622,3.6387,3.6417,3.6237,3.6686,3.6956,3.7823,4.0038,4.1115,4.2073,4.314,4.329,4.329,4.329,4.329,4.329,4.329,4.329,4.329,4.329,4.329,4.329,4.329,4.329,4.329,4.329,4.329,4.329,4.329,4.329,4.329,4.329,4.329,4.329,4.329,4.329,4.329,4.329,4.3596,4.3793,4.4026,4.4143,4.4305,4.4496,4.4572,4.4811,4.5264,4.594,4.6576,4.7201,4.7845,4.8243,4.8396,4.8396,4.8396,4.8396,4.8396,4.8396,4.8396,4.8396,4.8469,4.851,4.851,4.8521,4.8604,4.8604,4.8604,4.8604,4.8604,4.8604,4.8604,4.8604,4.8604,4.8604,4.8604,4.8604,4.8604,4.8604,4.8604,4.8811,4.9358,4.8944,4.8852,4.9461,4.8975,4.8852,4.943,4.947,4.971,5.0267,5.0306,5.0576,5.107,5.1107,5.0957,5.0583,5.1369,5.1769,5.17,5.2487,5.2939,5.3007,5.328,5.328,2.5723,2.6093,2.6752,2.7435,2.9112,3.124,3.3904,3.504,3.6267,3.8901,3.8362,3.7434,3.7434,3.7973,3.8841,4.0187,4.1542,4.262,4.32,4.329,4.329,4.329,4.329,4.329,4.329,4.329,4.329,4.329,4.329,4.329,4.329,4.329,4.329,4.329,4.329,4.329,4.329,4.329,4.329,4.329,4.329,4.329,4.329,4.329,4.329,4.329,4.3596,4.3793,4.3988,4.3988,4.4143,4.4335,4.4496,4.4458,4.4358,4.503,4.5584,4.6123,4.6791,4.746,4.8007,4.8007,4.8007,4.8007,4.8007,4.8007,4.8007,4.8007,4.8133,4.8301,4.8301,4.8438,4.8604,4.8604,4.8604,4.8604,4.8604,4.8604,4.8604,4.8604,4.8604,4.8604,4.8604,4.8604,4.8604,4.8604,4.8604,4.8604,4.8604,4.8604,4.8604,4.8604,4.8604,4.8604,4.8604,4.8604,4.8604,4.8604,4.8604,4.9349,5.0995,5.107,5.0583,4.9527,5.0313,5.0621,5.0397,5.1229,5.174,5.2023,5.2835,5.2765,2.5133,2.6063,2.7585,2.8723,3.1179,3.3785,3.5522,3.6387,3.7584,4.0247,3.9738,3.8841,3.8841,3.899,3.9409,4.0247,4.1542,4.262,4.32,4.329,4.329,4.329,4.329,4.329,4.329,4.329,4.329,4.329,4.329,4.329,4.329,4.329,4.329,4.329,4.329,4.329,4.329,4.329,4.329,4.329,4.329,4.329,4.329,4.329,4.329,4.329,4.3369,4.3557,4.3793,4.3949,4.4026,4.4104,4.4181,4.4143,4.4165,4.4834,4.5494,4.6123,4.6791,4.746,4.8007,4.8007,4.8007,4.8007,4.8007,4.8007,4.8007,4.8007,4.8049,4.8133,4.826,4.8313,4.8396,4.8563,4.8604,4.8604,4.8604,4.8604,4.8604,4.8604,4.8604,4.8604,4.8604,4.8604,4.8604,4.8604,4.8604,4.8604,4.8604,4.8604,4.8604,4.8604,4.8604,4.8604,4.8604,4.8604,4.8604,4.8604,4.8469,4.8687,4.9309,4.9349,4.943,4.955,5.0345,5.0957,5.1294,5.2274,5.2765,5.2835,5.3076,5.3076,2.6141,2.726,2.8723,3.0013,3.2437,3.5073,3.7165,3.8332,3.9379,4.0696,4.0576,4.0187,4.0187,4.0187,4.0397,4.1085,4.2073,4.288,4.323,4.329,4.329,4.329,4.329,4.329,4.329,4.329,4.329,4.329,4.329,4.329,4.329,4.329,4.329,4.329,4.329,4.329,4.329,4.329,4.329,4.329,4.329,4.329,4.329,4.329,4.329,4.329,4.3409,4.3518,4.3557,4.3871,4.3949,4.3871,4.3988,4.3949,4.3931,4.4325,4.486,4.5414,4.6079,4.6743,4.7377,4.7649,4.7709,4.7709,4.7709,4.7709,4.7709,4.7709,4.7794,4.788,4.8133,4.826,4.8385,4.8521,4.8604,4.8604,4.8604,4.8604,4.8604,4.8604,4.8604,4.8604,4.8604,4.8604,4.8604,4.8604,4.8604,4.8604,4.8604,4.8604,4.8604,4.8604,4.8604,4.8604,4.8604,4.8604,4.8593,4.848,4.8385,4.8343,4.8385,4.8385,4.848,4.8811,4.9269,4.9837,5.0461,5.1075,5.1773,5.2451,5.2451,5.2661,2.7893,2.9026,2.9983,3.1331,3.3245,3.5579,3.8691,4.0397,4.1145,4.0606,4.0965,4.1422,4.1422,4.1482,4.1692,4.2291,4.291,4.329,4.329,4.329,4.329,4.329,4.329,4.329,4.329,4.329,4.329,4.329,4.329,4.329,4.329,4.323,4.32,4.32,4.314,4.311,4.311,4.311,4.311,4.311,4.317,4.32,4.32,4.326,4.329,4.329,4.3557,4.3518,4.3329,4.3793,4.3832,4.3675,4.3871,4.3832,4.3636,4.3636,4.3938,4.4407,4.5005,4.5663,4.6352,4.701,4.7219,4.7219,4.7279,4.7309,4.7309,4.7309,4.7409,4.7624,4.788,4.8133,4.8343,4.8521,4.8563,4.8604,4.8604,4.8604,4.8604,4.8604,4.8604,4.8604,4.8604,4.8604,4.8604,4.8604,4.8604,4.8604,4.8604,4.8604,4.8604,4.8604,4.8604,4.8563,4.8563,4.8563,4.848,4.8301,4.826,4.8175,4.8007,4.8007,4.7922,4.7709,4.7709,4.8061,4.8738,4.8708,4.9607,5.1257,5.1257,5.1729,2.6877,2.8637,3.0761,3.2617,3.4951,3.7255,3.902,4.0038,4.0726,4.1085,4.1294,4.1422,4.1422,4.1841,4.2231,4.2381,4.291,4.329,4.329,4.329,4.329,4.329,4.329,4.329,4.329,4.329,4.329,4.329,4.329,4.329,4.329,4.2851,4.262,4.262,4.2073,4.1803,4.1803,4.1803,4.1803,4.1803,4.2312,4.262,4.262,4.309,4.329,4.329,4.3369,4.3329,4.329,4.3409,4.3409,4.3369,4.3409,4.3409,4.3369,4.3369,4.3748,4.4347,4.4466,4.4945,4.5633,4.6322,4.6531,4.6621,4.716,4.7309,4.7309,4.7309,4.7352,4.7439,4.7624,4.788,4.8133,4.8343,4.848,4.8604,4.8604,4.8604,4.8604,4.8604,4.8604,4.8604,4.8604,4.8604,4.8604,4.8604,4.8604,4.8604,4.8604,4.8604,4.8604,4.8604,4.8604,4.8552,4.8385,4.8355,4.8301,4.8091,4.788,4.7837,4.8007,4.8007,4.8187,4.8615,4.8615,4.8913,4.9527,4.9726,4.997,5.0358,5.0358,5.1139,2.7833,2.9714,3.1719,3.4622,3.6387,3.7764,3.9074,3.9679,4.0038,4.0367,4.0935,4.1422,4.1422,4.1961,4.241,4.241,4.291,4.329,4.329,4.329,4.329,4.329,4.329,4.329,4.329,4.329,4.329,4.329,4.303,4.288,4.288,4.2252,4.1931,4.1931,4.1602,4.1422,4.1422,4.1422,4.1422,4.1422,4.1752,4.2081,4.241,4.303,4.329,4.329,4.329,4.329,4.329,4.329,4.329,4.329,4.329,4.329,4.329,4.329,4.3499,4.3898,4.4197,4.4526,4.4945,4.5603,4.6052,4.6381,4.6741,4.707,4.7309,4.7309,4.7309,4.7352,4.7538,4.7709,4.788,4.8091,4.8355,4.8604,4.8604,4.8604,4.8604,4.8604,4.8604,4.8604,4.8604,4.8521,4.8469,4.8469,4.8355,4.8343,4.8343,4.8343,4.8343,4.8343,4.8343,4.826,4.8175,4.8175,4.8133,4.8007,4.7752,4.7817,4.8248,4.8192,4.8364,4.8729,4.8645,4.8772,4.9077,4.9202,4.9305,4.9407,4.9805,5.0621,2.8521,3.0644,3.2527,3.6178,3.7255,3.7734,3.896,3.9313,3.9373,3.9373,4.0367,4.1205,4.1205,4.1782,4.2231,4.2231,4.2641,4.2961,4.2961,4.2961,4.2961,4.2961,4.2961,4.2961,4.2961,4.2961,4.2961,4.2961,4.2491,4.2231,4.2231,4.1602,4.1205,4.1205,4.1115,4.1025,4.1025,4.1025,4.1025,4.1055,4.1265,4.1752,4.241,4.303,4.329,4.329,4.329,4.329,4.329,4.329,4.329,4.329,4.329,4.329,4.329,4.329,4.329,4.3379,4.3917,4.4137,4.4257,4.4915,4.5574,4.6172,4.6249,4.677,4.7309,4.7309,4.7309,4.7352,4.7525,4.7581,4.7666,4.788,4.8218,4.851,4.851,4.851,4.848,4.8521,4.8563,4.8604,4.8604,4.8438,4.8343,4.8301,4.8175,4.8049,4.8007,4.8007,4.8007,4.8007,4.8007,4.7964,4.7922,4.7922,4.7983,4.8061,4.7847,4.8063,4.8769,4.8579,4.8639,4.895,4.8519,4.8297,4.8297,4.8323,4.8438,4.8615,4.9439,5.0395,2.5764,2.9265,3.2886,3.519,3.6596,3.7614,3.8362,3.899,3.9373,3.9373,4.0008,4.0516,4.0516,4.1055,4.1504,4.1504,4.1594,4.1654,4.1654,4.1654,4.1654,4.1654,4.1654,4.1654,4.1654,4.1654,4.1654,4.1654,4.1602,4.1504,4.1504,4.0876,4.0516,4.0516,3.9978,3.9679,3.9679,3.9679,3.9679,3.9679,4.0846,4.1752,4.241,4.303,4.329,4.329,4.329,4.329,4.329,4.329,4.329,4.329,4.329,4.329,4.329,4.329,4.329,4.329,4.3379,4.3409,4.3529,4.4227,4.4885,4.5544,4.6142,4.677,4.7309,4.7309,4.7309,4.7309,4.7352,4.7452,4.7624,4.7624,4.788,4.8091,4.8091,4.8091,4.8133,4.8301,4.848,4.8604,4.8604,4.8563,4.848,4.8343,4.8301,4.8218,4.8007,4.8007,4.8007,4.8007,4.8007,4.7922,4.7666,4.7666,4.7852,4.8249,4.8235,4.8579,4.9432,4.9269,4.9539,5.0306,4.8999,4.8297,4.8297,4.8456,4.8583,4.8615,4.9439,5.0944,2.6847,2.9864,3.2587,3.537,3.6207,3.6716,3.8063,3.8631,3.896,3.9313,3.9649,3.9858,3.9858,4.0397,4.0816,4.0816,4.1145,4.1422,4.1422,4.1422,4.1422,4.1422,4.1422,4.1422,4.1422,4.1422,4.1422,4.1422,4.1025,4.0816,4.0816,4.0217,3.9858,3.9858,3.9559,3.9373,3.9373,3.9373,3.9373,3.9403,4.0367,4.1175,4.1871,4.2491,4.3,4.329,4.329,4.329,4.329,4.329,4.329,4.329,4.329,4.329,4.329,4.329,4.329,4.329,4.329,4.329,4.3349,4.3618,4.4466,4.5364,4.5663,4.6471,4.7309,4.7309,4.7309,4.7309,4.7309,4.7396,4.7409,4.7409,4.7495,4.7581,4.7581,4.7794,4.8007,4.8133,4.8218,4.826,4.826,4.8133,4.8007,4.7922,4.7794,4.7709,4.7624,4.7581,4.7581,4.7581,4.7581,4.7688,4.7992,4.7979,4.8293,4.8998,4.8925,4.9269,5.0125,4.9929,5.0168,5.0919,4.9898,4.9614,5.0117,4.9391,4.95,5.0485,5.0434,5.1184,2.7026,2.9415,3.1271,3.4442,3.537,3.5938,3.7554,3.8153,3.8542,3.905,3.929,3.9373,3.9373,3.9828,4.0157,4.0157,4.0576,4.0876,4.0876,4.0876,4.0876,4.0876,4.0876,4.0876,4.0876,4.0876,4.0876,4.0876,4.0427,4.0157,4.0157,3.9679,3.9373,3.9373,3.9373,3.9373,3.9373,3.9373,3.9373,3.9403,4.0098,4.0756,4.1414,4.2111,4.2731,4.329,4.329,4.329,4.329,4.329,4.329,4.329,4.329,4.329,4.329,4.329,4.329,4.329,4.329,4.329,4.329,4.329,4.4107,4.5065,4.5244,4.6112,4.71,4.7249,4.7309,4.7309,4.7309,4.7309,4.7309,4.7309,4.7309,4.7309,4.7309,4.7624,4.788,4.788,4.7964,4.8007,4.8007,4.7837,4.7666,4.7624,4.7452,4.7412,4.7549,4.7549,4.7608,4.7788,4.7818,4.7997,4.8506,4.8536,4.8895,4.9689,4.9584,4.9884,5.0727,5.0573,5.0674,5.1199,5.0704,5.0683,5.1236,5.0108,5.0302,5.1601,5.1304,5.1512,2.4126,2.6303,2.8453,3.1092,3.3633,3.5699,3.6417,3.7524,3.8392,3.8422,3.896,3.9373,3.9373,3.9439,3.9433,3.9433,3.9463,3.9529,3.9529,3.9529,3.9529,3.9529,3.9529,3.9529,3.9529,3.9529,3.9529,3.9529,3.9463,3.9433,3.9433,3.9403,3.9373,3.9373,3.9373,3.9373,3.9373,3.9373,3.9373,3.9403,4.0098,4.0756,4.1414,4.2111,4.2731,4.329,4.329,4.329,4.329,4.329,4.329,4.329,4.329,4.329,4.329,4.329,4.329,4.329,4.329,4.329,4.329,4.329,4.3768,4.4496,4.5095,4.5813,4.6459,4.713,4.7309,4.7309,4.7309,4.7309,4.7309,4.7309,4.7309,4.7309,4.7309,4.7482,4.7624,4.7624,4.7837,4.8007,4.8007,4.8007,4.788,4.7624,4.7581,4.7735,4.8191,4.8237,4.8476,4.9149,4.9209,4.9209,4.9269,4.9269,4.9494,5.0152,5.0136,5.0435,5.1139,5.1169,5.1169,5.1229,5.1199,5.087,5.0288,5.0344,5.0488,5.0617,5.1393,5.2155,2.3588,2.5435,2.7615,3.0223,3.1899,3.3424,3.54,3.6537,3.7285,3.7674,3.8302,3.8751,3.8751,3.911,3.9373,3.9373,3.9373,3.9373,3.9373,3.9373,3.9373,3.9373,3.9373,3.9373,3.9373,3.9373,3.9373,3.9373,3.9373,3.9373,3.9373,3.9373,3.9373,3.9373,3.9373,3.9373,3.9373,3.9373,3.9373,3.9373,3.9649,4.0127,4.0756,4.1482,4.2141,4.2731,4.315,4.329,4.329,4.329,4.329,4.329,4.329,4.329,4.329,4.329,4.329,4.329,4.329,4.329,4.329,4.329,4.4037,4.4975,4.5214,4.6082,4.701,4.7249,4.7309,4.7309,4.7309,4.7309,4.7309,4.7309,4.7309,4.7309,4.7309,4.7352,4.7439,4.7439,4.7482,4.7688,4.8109,4.817,4.8156,4.8069,4.8429,4.8595,4.8297,4.87,4.906,4.9269,4.9299,4.9434,4.9853,4.9883,5.0182,5.0794,5.0823,5.0913,5.1199,5.1229,5.1229,5.1229,5.1229,5.1359,5.1728,5.0789,5.1158,5.2707,5.2044,5.207,2.2811,2.4567,2.6901,2.9535,3.0522,3.1629,3.4502,3.5489,3.5998,3.6626,3.7464,3.8123,3.8362,3.8751,3.914,3.9343,3.9373,3.9373,3.9373,3.9373,3.9373,3.9373,3.9373,3.9373,3.9373,3.9373,3.9373,3.9373,3.9373,3.9373,3.9373,3.9373,3.9373,3.9373,3.9373,3.9373,3.9373,3.9373,3.9373,3.9373,3.9373,3.9768,4.0427,4.0846,4.1572,4.241,4.2821,4.312,4.329,4.329,4.329,4.329,4.329,4.329,4.329,4.329,4.329,4.329,4.329,4.329,4.329,4.329,4.4077,4.5005,4.5214,4.6082,4.701,4.7249,4.7309,4.7309,4.7309,4.7309,4.7309,4.7309,4.7309,4.7309,4.7309,4.7309,4.7369,4.7578,4.7638,4.7848,4.8506,4.8626,4.8626,4.8626,4.903,4.9239,4.8955,4.9314,4.9673,4.9883,4.9912,5.0092,5.0495,5.0524,5.0704,5.1199,5.1229,5.1229,5.1229,5.1229,5.1229,5.1229,5.1229,5.1526,5.2139,5.1074,5.1395,5.302,5.1966,5.1712,0.0,0.0,0.0,0.0,2.9502,3.037,3.3635,3.4354,3.4563,3.528,3.6417,3.7494,3.8212,3.8362,3.8571,3.9254,3.9373,3.9373,3.9373,3.9373,3.9373,3.9373,3.9373,3.9373,3.9373,3.9373,3.9373,3.9373,3.9373,3.9373,3.9373,3.9373,3.9373,3.9373,3.9373,3.9373,3.9373,3.9373,3.9373,3.9373,3.9373,3.9738,4.0367,4.0397,4.1115,4.2381,4.2381,4.2731,4.329,4.329,4.329,4.329,4.329,4.329,4.329,4.329,4.329,4.329,4.329,4.329,4.3319,4.329,4.3768,4.4496,4.5095,4.5783,4.6501,4.713,4.7309,4.7309,4.7309,4.7309,4.7309,4.7309,4.7309,4.7309,4.7339,4.7339,4.7519,4.8147,4.8297,4.8506,4.9209,4.9329,4.9329,4.9329,4.9359,4.9553,5.0106,5.0196,5.0465,5.1139,5.1229,5.1229,5.1229,5.1229,5.1229,5.1229,5.1229,5.1229,5.1229,5.1229,5.1229,5.1229,5.1229,5.1229,5.1229,5.1229,5.1229,5.1229,5.1229,5.1229,2.2413,0.0,0.0,0.0,0.0,0.0,0.0,3.0969,3.1539,3.3634,3.4322,3.507,3.6716,3.7375,3.7913,3.8571,3.908,3.9373,3.9373,3.9373,3.9373,3.9373,3.9373,3.9373,3.9373,3.9373,3.9373,0.0,3.9373,3.9373,3.9373,3.9373,3.9373,3.9373,3.9373,3.9373,3.9373,3.9373,3.9373,3.9373,3.9373,3.9529,3.9709,4.0187,4.0846,4.1722,4.2201,4.2731,4.329,4.329,4.329,4.329,4.329,4.329,4.329,4.329,4.329,4.329,4.329,4.3618,4.3958,4.3439,4.4396,4.5723,4.5394,4.6112,4.707,4.7249,4.7309,4.7309,4.7309,4.7309,4.7309,4.7309,4.7309,4.7429,4.7908,4.8027,4.8057,4.8237,4.87,4.9194,4.9853,4.9972,4.9972,4.9972,5.0361,5.0571,5.0226,5.0614,5.0973,5.1199,5.1229,5.1229,5.1229,5.1229,5.1229,5.1229,5.1229,5.1229,5.1229,5.1229,5.1229,5.1229,5.1229,5.1229,5.1229,5.1229,5.1229,5.1229,5.1229,5.1229,2.3221,0.0,0.0,0.0,0.0,0.0,2.9744,2.9774,2.9924,3.2557,3.3095,3.3604,3.534,3.6178,3.6836,3.7494,3.8153,3.8745,3.9313,3.9373,3.9373,3.9373,3.9373,3.9373,3.9373,3.9373,3.9373,3.9373,3.9373,3.9373,3.9373,3.9373,3.9373,3.9373,3.9373,3.9373,3.9373,3.9373,3.9373,3.9373,3.9373,3.9373,3.9403,3.9798,4.0487,4.1414,4.1811,4.2491,4.329,4.329,4.329,4.329,4.329,4.329,4.329,4.329,4.329,4.329,4.329,4.3738,4.4197,4.3499,4.4635,4.616,4.5514,4.6232,4.7309,4.7309,4.7309,4.7309,4.7309,4.7309,4.7309,4.7309,4.7309,4.7489,4.8147,4.8506,4.8775,4.9045,4.9404,4.9883,5.0495,5.0614,5.0614,5.0614,5.0913,5.1079,5.0644,5.0943,5.1229,5.1229,5.1229,5.1229,5.1229,5.1229,5.1229,5.1229,5.1229,5.1229,5.1229,5.1229,5.1229,5.1229,5.1229,5.1229,5.1229,5.1229,5.1229,5.1229,5.1229,5.1229,2.4238,2.5226,0.0,0.0,2.7081,0.0,3.0076,2.9567,2.9086,0.0,3.2078,3.2527,3.3993,3.4771,3.54,3.6058,3.6746,3.7674,3.902,3.926,3.932,3.932,3.9343,3.9373,3.9373,3.9373,3.9373,3.9373,3.9373,3.9373,3.9373,3.9373,3.9373,3.9373,3.9373,3.9373,3.9373,3.9373,3.9373,3.9373,3.9373,3.9373,3.9373,3.9373,4.0127,4.1422,4.1422,4.2132,4.329,4.329,4.329,4.329,4.329,4.329,4.329,4.329,4.329,4.329,4.3379,4.3798,4.4227,4.3589,4.4695,4.616,4.5514,4.6232,4.7309,4.7309,4.7309,4.7309,4.7309,4.7309,4.7309,4.7309,4.7309,4.7489,4.8237,4.891,4.9494,5.0166,5.0315,5.0495,5.1109,5.1229,5.1229,5.1229,5.1229,5.1229,5.1229,5.1229,5.1229,5.1229,5.1229,5.1229,5.1229,5.1229,5.1229,5.1229,5.1229,5.1229,5.1229,5.1229,5.1229,5.1229,5.1229,5.1229,5.1229,5.1229,5.1229,5.1229,5.1229,5.1229,2.592,2.6303,2.6662,2.6901,2.7106,0.0,2.6841,2.6871,2.744,0.0,2.9355,3.0073,3.2467,3.3006,3.3305,3.3963,3.51,3.6327,3.7614,3.8242,3.8601,3.8601,3.908,3.9373,3.9373,3.9373,3.9373,3.9373,3.9373,3.9373,3.9373,3.9373,3.9373,3.9373,3.9373,3.9373,3.9373,3.9373,3.9373,3.9373,3.9373,3.9373,3.9373,3.9373,4.0127,4.1422,4.1422,4.2132,4.329,4.329,4.329,4.329,4.329,4.329,4.329,4.329,4.329,4.3379,4.3928,4.4197,4.4287,4.4167,4.5083,4.616,4.5514,4.6232,4.7309,4.7309,4.7309,4.7309,4.7309,4.7309,4.7309,4.7309,4.7309,4.7638,4.885,4.9209,4.9613,5.078,5.102,5.1079,5.1199,5.1229,5.1229,5.1229,5.1229,5.1229,5.1229,5.1229,5.1229,5.1229,5.1229,5.1229,5.1229,5.1229,5.1229,5.1229,5.1229,5.1229,5.1229,5.1229,5.1229,5.1229,5.1229,5.1229,5.1229,5.1229,5.1229,5.1229,5.1229,5.1229,2.6667,2.6841,2.7195,2.75,0.0,0.0,0.0,2.7081,2.7141,2.9146,2.8757,2.8786,3.1091,3.127,3.136,3.2318,3.3634,3.4741,3.537,3.6866,3.7913,3.7913,3.8212,3.8542,3.8871,3.8901,3.905,3.9343,3.9373,3.9373,3.9373,3.9373,3.9373,3.9373,3.9373,3.9373,3.9373,3.9373,3.9373,3.9373,3.9373,3.9373,3.9403,3.9768,4.0457,4.1422,4.1752,4.2432,4.329,4.329,4.329,4.329,4.329,4.329,4.329,4.329,4.3499,4.3828,4.4197,4.4526,4.4796,4.4796,4.5484,4.6262,4.5903,4.6501,4.7309,4.7309,4.7309,4.7309,4.7309,4.7309,4.7309,4.7309,4.7549,4.8057,4.909,4.9523,5.0032,5.102,5.1229,5.1229,5.1229,5.1229,5.1229,5.1229,5.1229,5.1229,5.1229,5.1229,5.1229,5.1229,5.1229,5.1229,5.1229,5.1229,5.1229,5.1229,5.1229,5.1229,5.1229,5.1229,5.1229,5.1229,5.1229,5.1229,5.1229,5.1229,5.1229,5.1229,5.1229,5.1229,2.753,2.7854,2.8543,0.0,0.0,2.7949,0.0,0.0,0.0,0.0,0.0,0.0,0.0,0.0,0.0,3.0763,0.0,0.0,0.0,3.4981,0.0,3.6806,3.7075,3.7434,3.7973,3.7913,3.8182,3.896,3.8931,3.896,3.92,3.9313,3.9373,3.9373,3.9373,3.9373,3.9373,3.9373,3.9373,3.9373,3.9373,3.9373,3.9403,4.0098,4.0756,4.1452,4.2111,4.2731,4.329,4.329,4.329,4.329,4.329,4.329,4.329,4.329,4.3708,4.4317,4.4466,4.4766,4.5155,4.5394,4.5873,4.6309,4.6429,4.689,4.7309,4.7309,4.7309,4.7309,4.7309,4.7309,4.7309,4.7309,4.7818,4.8476,4.9179,4.9763,5.0375,5.1079,5.1229,5.1229,5.1229,5.1229,5.1229,5.1229,5.1229,5.1229,5.1229,5.1229,5.1229,5.1229,5.1229,5.1229,5.1229,5.1229,5.1229,5.1229,5.1229,5.1229,5.1229,5.1229,5.1229,5.1229,5.1229,5.1229,5.1229,5.1229,5.1229,5.1229,5.1229,5.1229,0.0,0.0,0.0,0.0,3.0223,0.0,0.0,0.0,2.8128,2.723,0.0,0.0,0.0,0.0,0.0,0.0,0.0,0.0,3.0941,3.2138,3.3514,3.4713,3.5878,3.6626,3.6686,3.6178,3.6327,3.7554,3.7135,3.7315,3.8452,3.908,3.9373,3.9373,3.9373,3.9373,3.9373,3.9373,3.9373,3.9373,3.9373,3.9373,3.9403,4.0098,4.0756,4.1452,4.2111,4.2731,4.329,4.329,4.329,4.329,4.329,4.329,4.329,4.329,4.3708,4.4407,4.4975,4.4855,4.4616,4.5813,4.6262,4.6399,4.701,4.7249,4.7309,4.7309,4.7309,4.7309,4.7309,4.7309,4.7309,4.7309,4.7818,4.8476,4.9179,4.9763,5.0375,5.1079,5.1229,5.1229,5.1229,5.1229,5.1229,5.1229,5.1229,5.1229,5.1229,5.1229,5.1229,5.1229,5.1229,5.1229,5.1229,5.1229,5.1229,5.1229,5.1229,5.1229,5.1229,5.1229,5.1229,5.1229,5.1229,5.1229,5.1229,5.1229,5.1229,5.1229,5.1229,5.1229,0.0,0.0,0.0,0.0,0.0,0.0,2.8308,0.0,2.7974,0.0,0.0,0.0,0.0,0.0,0.0,0.0,2.9624,0.0,0.0,0.0,3.1569,3.3664,0.0,0.0,3.5252,3.5429,3.5878,3.6806,3.6267,3.6477,3.7764,3.8452,3.902,3.9373,3.9373,3.9373,3.9373,3.9373,3.9373,3.9373,3.9373,3.9373,3.9469,4.0487,4.1115,4.1482,4.2491,4.309,4.329,4.329,4.329,4.329,4.329,4.329,4.3349,4.3738,4.4317,4.4915,4.5185,4.5125,4.4975,4.5544,4.6262,4.695,4.7219,4.7309,4.7309,4.7309,4.7309,4.7309,4.7309,4.7309,4.7399,4.7788,4.8386,4.9045,4.9703,5.0361,5.0853,5.1169,5.1229,5.1229,5.1229,5.1229,5.1229,5.1229,5.1229,5.1229,5.1229,5.1229,5.1229,5.1229,5.1229,5.1229,5.1229,5.1229,5.1229,5.1229,5.1229,5.1229,5.1229,5.1229,5.1229,5.1229,5.1229,5.1229,5.1229,5.1229,5.1229,5.1229,5.1229,5.1229,3.0642,0.0,0.0,0.0,0.0,0.0,0.0,0.0,0.0,0.0,0.0,0.0,0.0,0.0,0.0,0.0,0.0,2.9382,0.0,2.8846,0.0,0.0,0.0,0.0,0.0,3.4173,3.4562,3.5579,3.4891,3.513,3.6806,3.7674,3.8422,3.911,3.932,3.9373,3.9373,3.9373,3.9373,3.9373,3.9373,3.9529,3.9738,4.0876,4.1512,4.1752,4.2851,4.329,4.329,4.329,4.329,4.329,4.329,4.329,4.3379,4.4077,4.4736,4.5304,4.5304,4.5424,4.5574,4.5574,4.6352,4.7309,4.7309,4.7309,4.7309,4.7309,4.7309,4.7309,4.7309,4.7429,4.7698,4.8177,4.8925,4.9673,5.0106,5.0704,5.1229,5.1229,5.1229,5.1229,5.1229,5.1229,5.1229,5.1229,5.1229,5.1229,5.1229,5.1229,5.1229,5.1229,5.1229,5.1229,5.1229,5.1229,5.1229,5.1229,5.1229,5.1229,5.1229,5.1229,5.1229,5.1229,5.1229,5.1229,5.1229,5.1229,5.1229,5.1229,5.1229,5.1229,0.0,0.0,0.0,3.073,0.0,0.0,0.0,0.0,3.0073,0.0,0.0,0.0,0.0,0.0,0.0,0.0,0.0,0.0,0.0,0.0,0.0,0.0,0.0,0.0,0.0,3.1779,3.148,3.3455,3.2348,3.2766,3.5429,3.6746,3.7734,3.8392,3.908,3.9373,3.9373,3.9373,3.9373,3.9373,3.9373,3.9738,4.0397,4.1055,4.1752,4.241,4.303,4.329,4.329,4.329,4.329,4.329,4.329,4.329,4.3379,4.4077,4.4736,4.5304,4.5304,4.5723,4.6249,4.6249,4.6741,4.7309,4.7309,4.7309,4.7309,4.7309,4.7309,4.7309,4.7309,4.7788,4.8267,4.8267,4.9284,5.0166,5.0196,5.0704,5.1229,5.1229,5.1229,5.1229,5.1229,5.1229,5.1229,5.1229,5.1229,5.1229,5.1229,5.1229,5.1229,5.1229,5.1229,5.1229,5.1229,5.1229,5.1229,5.1229,5.1229,5.1229,5.1229,5.1229,5.1229,5.1229,5.1229,5.1229,5.1229,5.1229,5.1229,5.1229,5.1229,5.1229,3.4681,3.5759,3.6297,3.3006,0.0,0.0,0.0,0.0,0.0,0.0,0.0,0.0,0.0,0.0,0.0,0.0,0.0,0.0,0.0,0.0,0.0,0.0,0.0,0.0,0.0,0.0,3.1421,3.2108,3.175,3.2467,3.4711,3.6088,3.7285,3.8362,3.905,3.9373,3.9373,3.9373,3.9373,3.9373,3.9373,3.9768,4.0427,4.1085,4.1782,4.244,4.306,4.329,4.329,4.329,4.329,4.329,4.329,4.3559,4.4047,4.4706,4.5095,4.5364,4.5813,4.6142,4.6279,4.6279,4.677,4.7309,4.7309,4.7309,4.7309,4.7309,4.7309,4.7399,4.7848,4.8117,4.8506,4.9374,4.9867,5.0315,5.0734,5.105,5.1229,5.1229,5.1229,5.1229,5.1229,5.1229,5.1229,5.1229,5.1229,5.1229,5.1229,5.1229,5.1229,5.1229,5.1229,5.1229,5.1229,5.1229,5.1229,5.1229,5.1229,5.1229,5.1229,5.1229,5.1229,5.1229,5.1229,5.1229,5.1229,5.1229,5.1229,5.1229,5.1229,5.1229,3.5968,3.6776,3.7135,3.4502,3.4203,0.0,3.121,0.0,3.2018,0.0,0.0,0.0,0.0,0.0,0.0,0.0,0.0,0.0,0.0,2.5704,0.0,0.0,0.0,0.0,0.0,3.0043,3.0494,3.1421,3.0853,3.145,0.0,3.528,3.6626,3.7674,3.8811,3.9373,3.9373,3.9373,3.9373,3.9373,3.9649,4.0127,4.0756,4.1482,4.2141,4.2731,4.315,4.329,4.329,4.329,4.329,4.329,4.329,4.3708,4.4377,4.5035,4.5454,4.5723,4.613,4.6279,4.6309,4.6591,4.695,4.7309,4.7309,4.7309,4.7309,4.7309,4.7489,4.7758,4.8177,4.8626,4.9194,4.9986,5.0375,5.0644,5.1139,5.1229,5.1229,5.1229,5.1229,5.1229,5.1229,5.1229,5.1229,5.1229,5.1229,5.1229,5.1229,5.1229,5.1229,5.1229,5.1229,5.1229,5.1229,5.1229,5.1229,5.1229,5.1229,5.1229,5.1229,5.1229,5.1229,5.1229,5.1229,5.1229,5.1229,5.1229,5.1229,5.1229,5.1229,5.1229]}]]